[[{"header":{"parameterUnit":"m.s-1","parameterCategory":1,"la1":30.6,"la2":28.766,"lo1":-90.7593,"lo2":-88.6598,"dy":0.0162,"dx":0.0183,"nx":116,"ny":114,"refTime":"2023-06-03T06:00:00:Z","depth":0,"parameterNumber":2,"parameterNumberName":"U-component_of_WINDS"},"data":[0.0,0.0,0.0,0.0,0.0,0.0,0.0,0.0,0.0,0.0,0.0,0.0,0.0,0.0,0.0,0.0,0.0,0.0,0.0,0.0,0.0,0.0,0.0,0.0,0.0,0.0,0.0,0.0,0.0,0.0,0.0,0.0,0.0,0.0,0.0,0.0,0.0,0.0,0.0,0.0,0.0,0.0,0.0,0.0,0.0,0.0,0.0,0.0,0.0,0.0,0.0,0.0,0.0,0.0,0.0,0.0,0.0,0.0,0.0,0.0,0.0,0.0,0.0,0.0,0.0,0.0,0.0,0.0,0.0,0.0,0.0,0.0,0.0,0.0,0.0,0.0,0.0,0.0,0.0,0.0,0.0,0.0,0.0,0.0,0.0,0.0,0.0,0.0,0.0,0.0,0.0,0.0,0.0,0.0,0.0,0.0,0.0,0.0,0.0,0.0,0.0,0.0,0.0,0.0,0.0,0.0,0.0,0.0,0.0,0.0,0.0,0.0,0.0,0.0,0.0,0.0,0.0,0.0,0.0,0.0,0.0,0.0,0.0,0.0,0.0,0.0,0.0,0.0,0.0,0.0,0.0,0.0,0.0,0.0,0.0,0.0,0.0,0.0,0.0,0.0,0.0,0.0,0.0,0.0,0.0,0.0,0.0,0.0,0.0,0.0,0.0,0.0,0.0,0.0,0.0,0.0,0.0,0.0,0.0,0.0,0.0,0.0,0.0,0.0,0.0,0.0,0.0,0.0,0.0,0.0,0.0,0.0,0.0,0.0,0.0,0.0,0.0,0.0,0.0,0.0,0.0,0.0,0.0,0.0,0.0,0.0,0.0,0.0,0.0,0.0,0.0,0.0,0.0,0.0,0.0,0.0,0.0,0.0,0.0,0.0,0.0,0.0,0.0,0.0,0.0,0.0,0.0,0.0,0.0,0.0,0.0,0.0,0.0,0.0,0.0,0.0,0.0,0.0,0.0,0.0,0.0,0.0,0.0,0.0,0.0,0.0,0.0,0.0,0.0,0.0,0.0,0.0,0.0,0.0,0.0,0.0,0.0,0.0,0.0,0.0,0.0,0.0,0.0,0.0,0.0,0.0,0.0,0.0,0.0,0.0,0.0,0.0,0.0,0.0,0.0,0.0,0.0,0.0,0.0,0.0,0.0,0.0,0.0,0.0,0.0,0.0,0.0,0.0,0.0,0.0,0.0,0.0,0.0,0.0,0.0,0.0,0.0,0.0,0.0,0.0,0.0,0.0,0.0,0.0,0.0,0.0,0.0,0.0,0.0,0.0,0.0,0.0,0.0,0.0,0.0,0.0,0.0,0.0,0.0,0.0,0.0,0.0,0.0,0.0,0.0,0.0,0.0,0.0,0.0,0.0,0.0,0.0,0.0,0.0,0.0,0.0,0.0,0.0,0.0,0.0,0.0,0.0,0.0,0.0,0.0,0.0,0.0,0.0,0.0,0.0,0.0,0.0,0.0,0.0,0.0,0.0,0.0,0.0,0.0,0.0,0.0,0.0,0.0,0.0,0.0,0.0,0.0,0.0,0.0,0.0,0.0,0.0,0.0,0.0,0.0,0.0,0.0,0.0,0.0,0.0,0.0,0.0,0.0,0.0,0.0,0.0,0.0,0.0,0.0,0.0,0.0,0.0,0.0,0.0,0.0,0.0,0.0,0.0,0.0,0.0,0.0,0.0,0.0,0.0,0.0,0.0,0.0,0.0,0.0,0.0,0.0,0.0,0.0,0.0,0.0,0.0,0.0,0.0,0.0,0.0,0.0,0.0,0.0,0.0,0.0,0.0,0.0,0.0,0.0,0.0,0.0,0.0,0.0,0.0,0.0,0.0,0.0,0.0,0.0,0.0,0.0,0.0,0.0,0.0,0.0,0.0,0.0,0.0,0.0,0.0,0.0,0.0,0.0,0.0,0.0,0.0,0.0,0.0,0.0,0.0,0.0,0.0,0.0,0.0,0.0,0.0,0.0,0.0,0.0,0.0,0.0,0.0,0.0,0.0,0.0,0.0,0.0,0.0,0.0,0.0,0.0,0.0,0.0,0.0,0.0,0.0,0.0,0.0,0.0,0.0,0.0,0.0,0.0,0.0,0.0,0.0,0.0,0.0,0.0,0.0,0.0,0.0,0.0,0.0,0.0,0.0,0.0,0.0,0.0,0.0,0.0,0.0,0.0,0.0,0.0,0.0,0.0,0.0,0.0,0.0,0.0,0.0,0.0,0.0,0.0,0.0,0.0,0.0,0.0,0.0,0.0,0.0,0.0,0.0,0.0,0.0,0.0,0.0,0.0,0.0,0.0,0.0,0.0,0.0,0.0,0.0,0.0,0.0,0.0,0.0,0.0,0.0,0.0,0.0,0.0,0.0,0.0,0.0,0.0,0.0,0.0,0.0,0.0,0.0,0.0,0.0,0.0,0.0,0.0,0.0,0.0,0.0,0.0,0.0,0.0,0.0,0.0,0.0,0.0,0.0,0.0,0.0,0.0,0.0,0.0,0.0,0.0,0.0,0.0,0.0,0.0,0.0,0.0,0.0,0.0,0.0,0.0,0.0,0.0,0.0,0.0,0.0,0.0,0.0,0.0,0.0,0.0,0.0,0.0,0.0,0.0,0.0,0.0,0.0,0.0,0.0,0.0,0.0,0.0,0.0,0.0,0.0,0.0,0.0,0.0,0.0,0.0,0.0,0.0,0.0,0.0,0.0,0.0,0.0,0.0,0.0,0.0,0.0,0.0,0.0,0.0,0.0,0.0,0.0,0.0,0.0,0.0,0.0,0.0,0.0,0.0,0.0,0.0,0.0,0.0,0.0,0.0,0.0,0.0,0.0,0.0,0.0,0.0,0.0,0.0,0.0,0.0,0.0,0.0,0.0,0.0,0.0,0.0,0.0,0.0,0.0,0.0,0.0,0.0,0.0,0.0,0.0,0.0,0.0,0.0,0.0,0.0,0.0,0.0,0.0,0.0,0.0,0.0,0.0,0.0,0.0,0.0,0.0,0.0,0.0,0.0,0.0,0.0,0.0,0.0,0.0,0.0,0.0,0.0,0.0,0.0,0.0,0.0,0.0,0.0,0.0,0.0,0.0,0.0,0.0,0.0,0.0,0.0,0.0,0.0,0.0,0.0,0.0,0.0,0.0,0.0,0.0,0.0,0.0,0.0,0.0,0.0,0.0,0.0,0.0,0.0,0.0,0.0,0.0,0.0,0.0,0.0,0.0,0.0,0.0,0.0,0.0,0.0,0.0,0.0,0.0,0.0,0.0,0.0,0.0,0.0,0.0,0.0,0.0,0.0,0.0,0.0,0.0,0.0,0.0,0.0,0.0,0.0,0.0,0.0,0.0,0.0,0.0,0.0,0.0,0.0,0.0,0.0,0.0,0.0,0.0,0.0,0.0,0.0,0.0,0.0,0.0,0.0,0.0,0.0,0.0,0.0,0.0,0.0,0.0,0.0,0.0,0.0,0.0,0.0,0.0,0.0,0.0,0.0,0.0,0.0,0.0,0.0,0.0,0.0,0.0,0.0,0.0,0.0,0.0,0.0,0.0,0.0,0.0,0.0,0.0,0.0,0.0,0.0,0.0,0.0,0.0,0.0,0.0,0.0,0.0,0.0,0.0,0.0,0.0,0.0,0.0,0.0,0.0,0.0,0.0,0.0,0.0,0.0,0.0,0.0,0.0,0.0,0.0,0.0,0.0,0.0,0.0,0.0,0.0,0.0,0.0,0.0,0.0,0.0,0.0,0.0,0.0,0.0,0.0,0.0,0.0,0.0,0.0,0.0,0.0,0.0,0.0,0.0,0.0,0.0,0.0,0.0,0.0,0.0,0.0,0.0,0.0,0.0,0.0,0.0,0.0,0.0,0.0,0.0,0.0,0.0,0.0,0.0,0.0,0.0,0.0,0.0,0.0,0.0,0.0,0.0,0.0,0.0,0.0,0.0,0.0,0.0,0.0,0.0,0.0,0.0,0.0,0.0,0.0,0.0,0.0,0.0,0.0,0.0,0.0,0.0,0.0,0.0,0.0,0.0,0.0,0.0,0.0,0.0,0.0,0.0,0.0,0.0,0.0,0.0,0.0,0.0,0.0,0.0,0.0,0.0,0.0,0.0,0.0,0.0,0.0,0.0,0.0,0.0,0.0,0.0,0.0,0.0,0.0,0.0,0.0,0.0,0.0,0.0,0.0,0.0,0.0,0.0,0.0,0.0,0.0,0.0,0.0,0.0,0.0,0.0,0.0,0.0,0.0,0.0,0.0,0.0,0.0,0.0,0.0,0.0,0.0,0.0,0.0,0.0,0.0,0.0,0.0,0.0,0.0,0.0,0.0,0.0,0.0,0.0,0.0,0.0,0.0,0.0,0.0,0.0,0.0,0.0,0.0,0.0,0.0,0.0,0.0,0.0,0.0,0.0,0.0,0.0,0.0,0.0,0.0,0.0,0.0,0.0,0.0,0.0,0.0,0.0,0.0,0.0,0.0,0.0,0.0,0.0,0.0,0.0,0.0,0.0,0.0,0.0,0.0,0.0,0.0,0.0,0.0,0.0,0.0,0.0,0.0,0.0,0.0,0.0,0.0,0.0,0.0,0.0,0.0,0.0,0.0,0.0,0.0,0.0,0.0,0.0,0.0,0.0,0.0,0.0,0.0,0.0,0.0,0.0,0.0,0.0,0.0,0.0,0.0,0.0,0.0,0.0,0.0,0.0,0.0,0.0,0.0,0.0,0.0,0.0,0.0,0.0,0.0,0.0,0.0,0.0,0.0,0.0,0.0,0.0,0.0,0.0,0.0,0.0,0.0,0.0,0.0,0.0,0.0,0.0,0.0,0.0,0.0,0.0,0.0,0.0,0.0,0.0,0.0,0.0,0.0,0.0,0.0,0.0,0.0,0.0,0.0,0.0,0.0,0.0,0.0,0.0,0.0,0.0,0.0,0.0,0.0,0.0,0.0,0.0,0.0,0.0,0.0,0.0,0.0,0.0,0.0,0.0,0.0,0.0,0.0,0.0,0.0,0.0,0.0,0.0,0.0,0.0,0.0,0.0,0.0,0.0,0.0,0.0,0.0,0.0,0.0,0.0,0.0,0.0,0.0,0.0,0.0,0.0,0.0,0.0,0.0,0.0,0.0,0.0,0.0,0.0,0.0,0.0,0.0,0.0,0.0,0.0,0.0,0.0,0.0,0.0,0.0,0.0,0.0,0.0,0.0,0.0,0.0,0.0,0.0,0.0,0.0,0.0,0.0,0.0,0.0,0.0,0.0,0.0,0.0,0.0,0.0,0.0,0.0,0.0,0.0,0.0,0.0,0.0,0.0,0.0,0.0,0.0,0.0,0.0,0.0,0.0,0.0,0.0,0.0,0.0,0.0,0.0,0.0,0.0,0.0,0.0,0.0,0.0,0.0,0.0,0.0,0.0,0.0,0.0,0.0,0.0,0.0,0.0,0.0,0.0,0.0,0.0,0.0,0.0,0.0,0.0,0.0,0.0,0.0,0.0,0.0,0.0,0.0,0.0,0.0,0.0,0.0,0.0,0.0,0.0,0.0,0.0,0.0,0.0,0.0,0.0,0.0,0.0,0.0,0.0,0.0,0.0,0.0,0.0,0.0,0.0,0.0,0.0,0.0,0.0,0.0,0.0,0.0,0.0,0.0,0.0,0.0,0.0,0.0,0.0,0.0,0.0,0.0,0.0,0.0,0.0,0.0,0.0,0.0,0.0,0.0,0.0,0.0,0.0,0.0,0.0,0.0,0.0,0.0,0.0,0.0,0.0,0.0,0.0,0.0,0.0,0.0,0.0,0.0,0.0,0.0,0.0,0.0,0.0,0.0,0.0,0.0,0.0,0.0,0.0,0.0,0.0,0.0,0.0,0.0,0.0,0.0,0.0,0.0,0.0,0.0,0.0,0.0,0.0,0.0,0.0,0.0,0.0,0.0,0.0,0.0,0.0,0.0,0.0,0.0,0.0,0.0,0.0,0.0,0.0,0.0,0.0,0.0,0.0,0.0,0.0,0.0,0.0,0.0,0.0,0.0,0.0,0.0,0.0,0.0,0.0,0.0,0.0,0.0,0.0,0.0,0.0,0.0,0.0,0.0,0.0,0.0,0.0,0.0,-3.0615,0.0,0.0,0.0,0.0,0.0,0.0,0.0,0.0,0.0,0.0,0.0,0.0,0.0,0.0,0.0,0.0,0.0,0.0,0.0,0.0,0.0,0.0,0.0,0.0,0.0,0.0,0.0,0.0,0.0,0.0,0.0,0.0,0.0,0.0,0.0,0.0,0.0,0.0,-3.2792,-3.2792,-3.3072,-3.3668,-3.458,-3.5147,-3.5362,0.0,0.0,0.0,0.0,0.0,0.0,0.0,0.0,0.0,0.0,0.0,0.0,0.0,0.0,0.0,0.0,0.0,0.0,0.0,0.0,0.0,0.0,0.0,0.0,0.0,0.0,0.0,0.0,0.0,0.0,0.0,0.0,0.0,0.0,0.0,0.0,0.0,0.0,0.0,0.0,0.0,0.0,0.0,0.0,0.0,0.0,0.0,0.0,0.0,0.0,0.0,0.0,0.0,0.0,0.0,0.0,0.0,0.0,0.0,0.0,0.0,0.0,0.0,0.0,0.0,0.0,0.0,0.0,0.0,0.0,0.0,-3.1019,0.0,0.0,0.0,0.0,0.0,0.0,0.0,0.0,0.0,0.0,0.0,0.0,0.0,0.0,0.0,0.0,0.0,0.0,0.0,0.0,0.0,0.0,0.0,-3.119,-3.119,-3.119,-3.119,-3.119,0.0,0.0,0.0,0.0,0.0,0.0,-3.2107,-3.1495,-3.1315,-3.1532,-3.166,-3.2292,-3.3394,-3.3644,-3.4023,-3.4489,-3.3647,0.0,0.0,0.0,0.0,0.0,0.0,0.0,0.0,0.0,0.0,0.0,0.0,0.0,0.0,0.0,0.0,0.0,0.0,0.0,0.0,0.0,0.0,0.0,0.0,0.0,0.0,0.0,0.0,0.0,0.0,0.0,0.0,0.0,0.0,0.0,0.0,0.0,0.0,0.0,0.0,0.0,0.0,0.0,0.0,0.0,0.0,0.0,0.0,0.0,0.0,0.0,0.0,0.0,0.0,0.0,0.0,0.0,0.0,0.0,0.0,0.0,0.0,0.0,-3.6163,-3.7138,-3.7604,-3.7215,-3.7517,-3.8139,-3.441,-3.2641,-3.2333,0.0,0.0,0.0,0.0,0.0,0.0,0.0,0.0,0.0,0.0,0.0,0.0,0.0,0.0,0.0,0.0,0.0,0.0,0.0,0.0,0.0,0.0,-3.119,-3.119,-3.119,-3.119,-3.119,-3.119,0.0,0.0,0.0,0.0,0.0,-3.1343,-3.1241,-3.0978,-3.0506,-3.1157,-3.1797,-3.2498,-3.3771,-3.4615,-3.4967,-3.3981,-3.3931,-3.4498,0.0,0.0,0.0,0.0,0.0,0.0,0.0,0.0,0.0,0.0,0.0,0.0,0.0,0.0,0.0,0.0,0.0,0.0,0.0,0.0,0.0,0.0,0.0,0.0,0.0,0.0,0.0,0.0,0.0,0.0,0.0,0.0,0.0,0.0,0.0,0.0,0.0,0.0,0.0,0.0,0.0,-2.6691,-2.6691,0.0,0.0,0.0,0.0,0.0,0.0,0.0,0.0,0.0,0.0,0.0,0.0,0.0,0.0,-3.4705,-3.6396,-3.7026,-3.6651,-3.83,-3.8731,-3.8116,-3.8335,-3.8909,-3.9643,-3.7916,0.0,-3.4885,-3.3372,0.0,0.0,0.0,0.0,0.0,0.0,0.0,0.0,0.0,0.0,0.0,0.0,0.0,0.0,0.0,0.0,0.0,0.0,0.0,0.0,0.0,-3.0898,-3.0699,-3.0699,-3.1056,-3.0997,-3.0236,-3.1217,0.0,0.0,0.0,-3.1035,-3.0699,-3.0699,-3.0768,-3.0914,-3.1582,-3.2463,-3.3487,-3.4143,-3.4765,-3.5369,-3.5358,-3.5087,-3.4659,-3.4005,0.0,0.0,0.0,0.0,0.0,0.0,0.0,0.0,0.0,0.0,0.0,0.0,0.0,0.0,0.0,0.0,0.0,0.0,0.0,0.0,0.0,0.0,0.0,0.0,0.0,0.0,0.0,0.0,0.0,0.0,0.0,0.0,0.0,0.0,0.0,0.0,0.0,0.0,0.0,-2.7015,-2.7322,-2.6776,-2.747,-2.7656,0.0,0.0,0.0,0.0,0.0,0.0,0.0,0.0,0.0,-3.3421,-3.5018,-3.6117,-3.6574,-3.8213,-3.912,-3.9314,-4.0695,-4.1402,-4.1463,-4.1522,-4.1776,-4.2063,-4.0729,-3.9361,-3.7885,-3.5393,-3.3314,-3.166,0.0,0.0,0.0,0.0,0.0,-3.1135,0.0,0.0,0.0,0.0,0.0,0.0,0.0,0.0,0.0,0.0,0.0,0.0,-3.1207,-3.0839,-3.0642,-3.0816,-3.1155,-3.0983,-2.9991,-3.0781,-3.0871,-2.9856,-3.0074,-3.0115,-2.9807,-3.0174,-3.0705,-3.139,-3.2217,-3.3224,-3.4425,-3.4967,-3.5461,-3.5898,-3.7026,-3.6781,-3.5479,-3.4904,-3.4193,-3.3389,0.0,0.0,0.0,0.0,0.0,0.0,0.0,0.0,0.0,0.0,0.0,0.0,0.0,0.0,0.0,0.0,0.0,0.0,0.0,0.0,0.0,0.0,0.0,0.0,0.0,0.0,0.0,0.0,0.0,0.0,0.0,0.0,0.0,0.0,0.0,0.0,0.0,-2.7434,-2.8035,-2.6843,-2.84,-2.8891,0.0,0.0,0.0,0.0,0.0,0.0,-3.2724,-3.4461,-3.5572,-3.594,-3.7551,-3.8521,-3.8741,-4.0118,-4.1111,-4.1717,-4.2572,-4.3302,-4.3878,-4.3862,-4.3744,-4.3483,-4.2364,-4.1208,-3.9891,-3.6988,-3.4531,-3.2505,-3.2154,-3.1621,-3.1038,-3.1038,-3.1442,-3.1987,0.0,0.0,0.0,0.0,0.0,0.0,0.0,0.0,0.0,0.0,0.0,-3.0578,-3.1227,-3.1318,-3.1589,-3.2144,-3.1716,-3.1374,-3.1294,-2.9611,-2.8576,-2.8496,-2.7916,-2.7867,-2.848,-2.9799,-3.0799,-3.1387,-3.2773,-3.3802,-3.4554,-3.6521,-3.7126,-3.6628,-3.8768,-3.899,-3.7604,-3.544,-3.5143,-3.5849,-3.2984,0.0,0.0,0.0,0.0,0.0,0.0,0.0,0.0,0.0,0.0,0.0,0.0,0.0,0.0,0.0,0.0,0.0,0.0,0.0,0.0,0.0,0.0,0.0,0.0,0.0,0.0,0.0,0.0,0.0,0.0,0.0,0.0,0.0,0.0,0.0,0.0,0.0,0.0,-2.6894,-2.9296,0.0,0.0,0.0,0.0,-3.1009,-3.2132,-3.331,-3.4606,-3.5841,-3.714,-3.8472,-4.0068,-4.1295,-4.2047,-4.2892,-4.3349,-4.3386,-4.344,-4.3494,-4.3531,-4.3859,-4.3573,-4.2814,-4.2309,-4.1324,-3.9929,-3.7609,-3.5941,-3.4696,-3.3369,-3.2814,-3.2776,-3.2776,-3.2795,-3.2737,0.0,0.0,0.0,0.0,0.0,0.0,0.0,0.0,-3.119,-3.119,-3.0679,-3.0733,-3.1829,-3.127,-3.1232,-3.2262,-3.1794,-3.0945,-2.9669,-2.929,-2.852,-2.7237,-2.7732,-2.857,-2.9735,-2.9853,-3.0837,-3.2745,-3.3682,-3.4472,-3.5145,-3.5903,-3.6592,-3.7297,-3.8543,-3.9411,-3.9744,-3.7605,-3.6356,-3.5684,-3.3642,-3.2923,0.0,0.0,0.0,0.0,0.0,0.0,0.0,0.0,0.0,0.0,0.0,0.0,0.0,0.0,0.0,0.0,0.0,0.0,0.0,0.0,0.0,0.0,0.0,0.0,0.0,0.0,0.0,0.0,0.0,0.0,0.0,0.0,0.0,0.0,0.0,0.0,0.0,-3.094,-3.2797,0.0,-3.1559,-3.1918,-3.2652,-3.3691,-3.4628,-3.5695,-3.6917,-3.8705,-3.9914,-4.0418,-4.1877,-4.2782,-4.3057,-4.3368,-4.3515,-4.3515,-4.3515,-4.3515,-4.3496,-4.3849,-4.329,-4.2037,-4.2089,-4.1098,-3.938,-3.8214,-3.6774,-3.5277,-3.4761,-3.3891,-3.2891,-3.2891,-3.3256,-3.3705,0.0,0.0,0.0,0.0,0.0,0.0,0.0,0.0,-3.076,-3.0549,-3.0203,-3.0482,-3.1838,-3.13,-3.1365,-3.2654,-3.1617,-3.0328,-2.9011,-2.8247,-2.7248,-2.5906,-2.7314,-2.8576,-2.9516,-3.044,-3.1749,-3.3499,-3.4382,-3.5055,-3.5504,-3.5729,-3.6323,-3.7286,-3.8237,-3.9235,-4.0119,-3.9018,-3.7861,-3.6597,-3.4824,-3.4264,-3.4303,0.0,0.0,0.0,0.0,0.0,0.0,0.0,0.0,0.0,0.0,0.0,0.0,0.0,0.0,0.0,0.0,0.0,0.0,0.0,0.0,0.0,0.0,0.0,0.0,0.0,0.0,0.0,0.0,0.0,0.0,0.0,0.0,0.0,0.0,-3.0979,-3.2846,-3.3676,-3.5757,-3.6451,-3.4709,-3.4996,-3.5705,-3.6774,-3.735,-3.8195,-3.9462,-4.0607,-4.1421,-4.1826,-4.2741,-4.3322,-4.3515,-4.3515,-4.3515,-4.3515,-4.3515,-4.3515,-4.3515,-4.3726,-4.3095,-4.1834,-4.1782,-4.0904,-3.9466,-3.8833,-3.7575,-3.6007,-3.5731,-3.4822,-3.3643,-3.3643,-3.4068,-3.4545,0.0,0.0,0.0,0.0,0.0,0.0,0.0,-3.0091,-2.9849,-2.9287,-2.9259,-2.9848,-3.1289,-3.1457,-3.2034,-3.338,-3.1091,-2.9592,-2.9547,-2.6452,-2.4619,-2.4664,-2.6512,-2.7615,-2.7724,-3.1466,-3.3454,-3.3529,-3.4829,-3.5472,-3.5519,-3.6148,-3.6477,-3.6603,-3.7958,-3.8609,-3.8721,-3.9471,-3.9557,-3.8898,-3.6538,-3.6115,-3.6614,0.0,0.0,0.0,0.0,0.0,0.0,0.0,0.0,0.0,0.0,0.0,0.0,0.0,0.0,0.0,0.0,0.0,0.0,0.0,0.0,0.0,0.0,0.0,0.0,0.0,0.0,0.0,0.0,0.0,0.0,0.0,0.0,0.0,-2.9594,-3.3325,-3.5702,-3.4851,-3.7963,-3.9334,-3.7185,-3.8268,-3.9394,-4.0113,-4.0155,-4.072,-4.2002,-4.133,-4.1446,-4.2616,-4.2674,-4.2939,-4.3462,-4.3479,-4.3515,-4.3515,-4.3515,-4.3515,-4.3515,-4.3515,-4.3039,-4.2213,-4.1425,-4.0785,-4.0193,-3.942,-3.829,-3.6993,-3.6239,-3.559,-3.5088,-3.5088,-3.5246,-3.5236,0.0,0.0,0.0,0.0,0.0,0.0,0.0,-2.9841,-2.928,-2.922,-2.9259,-3.0014,-3.1917,-3.1745,-3.2034,-3.338,-3.1091,-2.9202,-2.8214,-2.5929,-2.5023,-2.6019,-2.6572,-2.7902,-3.0089,-3.1208,-3.2443,-3.3856,-3.422,-3.4806,-3.5504,-3.5684,-3.6267,-3.7165,-3.7553,-3.8617,-4.0145,-4.0189,-4.0573,-4.0913,-3.8755,-3.8078,-3.8081,0.0,0.0,0.0,0.0,0.0,0.0,0.0,0.0,0.0,0.0,0.0,0.0,0.0,0.0,0.0,0.0,0.0,0.0,0.0,0.0,0.0,0.0,0.0,0.0,0.0,0.0,0.0,0.0,0.0,0.0,0.0,-3.1192,-3.2621,-3.3963,-3.5185,-3.6976,-3.9817,-4.1077,-4.1441,-4.0857,-4.1136,-4.1474,-4.1687,-4.1204,-4.1061,-4.1427,-4.1109,-4.1064,-4.138,-4.2244,-4.2769,-4.292,-4.3322,-4.3515,-4.3515,-4.3515,-4.3515,-4.3515,-4.3515,-4.2745,-4.1407,-4.1187,-4.0352,-3.9116,-3.891,-3.7899,-3.6533,-3.6697,-3.5962,-3.4803,-3.4803,-3.486,-3.4765,0.0,0.0,0.0,0.0,0.0,0.0,0.0,-2.9207,-2.8833,-2.8412,-2.8613,-2.9423,-3.1044,-3.0669,-3.0717,-3.1764,-2.9445,-2.759,-2.6821,-2.5313,-2.481,-2.555,-2.6837,-2.8469,-3.0471,-3.1711,-3.2852,-3.3993,-3.4428,-3.4953,-3.5504,-3.5504,-3.6193,-3.7404,-3.7404,-3.8435,-4.0146,-4.0016,-4.072,-4.1761,-4.0498,-4.0063,-3.9914,-3.78,-3.5987,-3.4394,-3.3167,-3.2838,-3.286,-3.1966,0.0,0.0,0.0,0.0,0.0,0.0,0.0,0.0,0.0,0.0,0.0,0.0,0.0,0.0,0.0,0.0,0.0,0.0,0.0,0.0,0.0,0.0,0.0,0.0,-3.338,-3.5153,-3.7577,-3.769,-3.8561,-4.137,-4.2316,-4.273,-4.273,-4.3069,-4.3278,-4.3278,-4.2557,-4.2134,-4.2134,-4.1716,-4.1464,-4.1399,-4.2084,-4.2415,-4.2322,-4.2884,-4.316,-4.3178,-4.3392,-4.3515,-4.3515,-4.3515,-4.28,0.0,-4.1242,-4.0396,-3.9184,-3.8836,-3.7753,0.0,0.0,0.0,0.0,0.0,-3.4694,-3.4581,0.0,0.0,0.0,0.0,0.0,0.0,0.0,-2.8418,-2.8402,-2.7448,-2.7778,-2.8443,-2.9384,-2.8951,-2.8801,-2.9337,-2.7051,-2.5523,-2.5378,-2.4699,-2.4359,-2.4504,-2.7275,-2.9082,-2.973,-3.2334,-3.3671,-3.3671,-3.4591,-3.5144,-3.5431,-3.5431,-3.6182,-3.7524,-3.7524,-3.8227,-3.9388,-3.9499,-4.0364,-4.1767,-4.1817,-4.18,-4.1581,-3.9803,-3.8436,-3.7123,-3.4485,-3.3171,-3.2669,-3.2482,0.0,0.0,0.0,0.0,0.0,0.0,0.0,0.0,0.0,0.0,0.0,0.0,0.0,0.0,0.0,0.0,0.0,0.0,0.0,0.0,0.0,0.0,0.0,0.0,-3.5295,-3.6972,-4.022,-4.0252,-4.0309,-4.1151,-4.2543,-4.3391,-4.3391,-4.4143,-4.4615,-4.4615,-4.3859,-4.3392,-4.3392,0.0,0.0,0.0,0.0,-4.1882,-4.1703,-4.2302,-4.2596,-4.2616,-4.3142,-4.341,-4.341,-4.3462,-4.3057,-4.2268,-4.1535,-4.0726,-3.9827,-3.9129,-3.7826,-3.6266,-3.6083,-3.5246,-3.4195,-3.4486,-3.4545,0.0,0.0,0.0,0.0,0.0,0.0,0.0,0.0,-2.8049,-2.7366,-2.8003,-2.8086,-2.8294,-2.8752,-2.8682,-2.8427,-2.8019,-2.6512,-2.5127,-2.398,-2.4146,-2.4962,-2.6399,-2.7965,-2.9217,-3.0082,-3.1181,-3.1742,-3.1742,-3.1938,-3.307,-3.5082,-3.5082,-3.6197,-3.8197,-3.8197,-3.8661,-3.9454,-3.9993,-4.0688,-4.1534,-4.2279,-4.1949,-4.0968,-4.0502,-3.852,-3.5853,-3.5214,-3.4971,-3.4769,-3.353,-3.3757,-3.4378,-3.3137,-3.1628,0.0,0.0,0.0,0.0,0.0,0.0,0.0,0.0,0.0,0.0,0.0,0.0,0.0,0.0,0.0,0.0,0.0,0.0,0.0,-3.4921,-3.6731,-3.8447,-4.0203,-4.0801,-4.1669,-4.3202,-4.3814,-4.4118,-4.4118,-4.4415,-4.4615,-4.4615,-4.3859,-4.3392,-4.3392,-4.2151,0.0,-4.1367,-4.1223,-4.1105,-4.1064,-4.1664,-4.1979,-4.1979,0.0,0.0,-4.2864,-4.3303,-4.3057,-4.2286,-4.2139,-4.124,-3.9882,-3.9717,-3.834,-3.6156,-3.4798,-3.4123,-3.3895,-3.3954,-3.3561,-3.3062,0.0,0.0,0.0,0.0,0.0,0.0,0.0,-2.81,-2.7774,-2.7627,-2.7874,-2.8035,-2.7914,-2.7589,-2.7157,-2.6541,-2.5326,-2.4458,-2.4115,-2.4723,-2.5783,-2.7283,-2.8291,-2.9216,-2.9969,-3.0788,-3.1312,-3.1602,-3.2613,-3.3922,-3.5453,-3.5959,-3.699,-3.8392,-3.8392,-3.8781,-3.9403,-3.9768,-4.0098,-4.0464,-4.1301,-4.0817,-3.9681,-4.0449,-3.895,-3.6405,-3.6088,-3.5549,-3.4942,-3.4155,-3.399,-3.3895,-3.3144,-3.1799,-3.0453,0.0,0.0,0.0,0.0,0.0,0.0,0.0,0.0,0.0,0.0,0.0,0.0,0.0,0.0,-3.0447,-3.1808,0.0,-3.4262,-3.6567,-3.8317,-3.9634,-4.0307,-4.1287,-4.2093,-4.2654,-4.3588,-4.4042,-4.3686,-4.4564,-4.4993,-4.4632,-4.4215,-4.3995,-4.3995,-4.2929,-4.2134,-4.1762,-4.1298,-4.0874,-4.0497,-4.1064,-4.1358,-4.1358,-4.2282,-4.2711,-4.2731,-4.325,-4.3057,-4.2286,-4.1882,-4.102,-3.9827,-3.9035,-3.7988,-3.6795,-3.5532,-3.4541,-3.3807,-3.3807,-3.355,-3.3256,0.0,0.0,0.0,0.0,0.0,0.0,0.0,-2.8168,-2.8343,-2.746,-2.7646,-2.7695,-2.7273,-2.6605,-2.5923,-2.5257,-2.4326,-2.4082,-2.4814,-2.5672,-2.6764,-2.8079,-2.8818,-2.9554,-3.0317,-3.0837,-3.1501,-3.229,-3.3848,-3.5125,-3.6129,-3.6943,-3.7769,-3.8586,-3.8586,-3.8975,-3.9568,-3.9568,-3.9694,-3.9828,-4.0232,-3.9679,-3.8722,-3.9891,-3.9028,-3.715,-3.6522,-3.5429,-3.4324,-3.4324,-3.3589,-3.2721,-3.2856,-3.2063,-3.0941,-3.0178,-2.9684,0.0,0.0,0.0,0.0,0.0,0.0,0.0,0.0,-2.8169,-2.8783,-3.025,-3.1031,-3.2168,-3.4474,-3.5102,-3.5956,-3.8048,-3.9529,-4.0397,-4.0397,-4.1452,-4.1976,-4.1265,-4.2656,-4.3476,-4.3035,-4.4469,-4.5221,-4.4637,-4.4733,-4.4767,-4.4615,-4.3842,-4.3064,-4.2303,-4.1576,-4.0849,-4.0113,-4.0546,-4.0733,-4.0756,-4.1832,-4.2342,-4.2362,-4.305,-4.29,-4.2077,-4.1227,-4.0506,-3.979,-3.8337,-3.7639,-3.7437,-3.6795,-3.5514,-3.4027,-3.4027,-3.3844,-3.3587,0.0,0.0,0.0,0.0,0.0,0.0,0.0,0.0,-2.7844,-2.8811,-2.7827,-2.7104,-2.7272,-2.6646,-2.5738,-2.4601,-2.4395,-2.463,-2.5362,-2.6494,-2.7907,-2.966,-3.0062,-3.0903,-3.2272,-3.124,-3.1564,-3.3431,-3.3282,-3.4461,-3.6865,-3.6975,-3.7849,-3.9305,-3.9305,-3.9664,-4.0292,-4.0292,-4.0621,-4.1115,-4.0606,-3.9963,-3.9245,-3.8832,-3.7792,-3.6507,-3.5848,-3.4756,-3.3604,-3.3604,-3.3499,-3.3484,-3.4099,-3.3754,-3.2916,-3.166,-3.0046,-2.8412,-2.7066,-2.6333,-2.6467,-2.8723,-2.8378,-2.8408,0.0,-3.1869,-3.16,-3.356,-3.4472,-3.522,-3.6103,-3.7195,-3.8048,-3.8347,-3.9529,-4.0397,-4.0397,-4.1025,-4.125,-4.0591,-4.1388,-4.2257,-4.2921,-4.3939,-4.455,-4.4609,-4.5213,-4.528,-4.4632,-4.3842,-4.3064,-4.2303,-4.1576,-4.0849,-4.0113,-4.0171,-4.0179,-4.0204,-4.0821,-4.111,-4.1155,-4.2264,-4.2318,-4.1451,-4.0454,-3.9974,-3.9827,-3.8927,-3.8138,-3.7492,-3.7401,-3.634,-3.4876,-3.4876,-3.3959,-3.2839,0.0,0.0,0.0,0.0,0.0,0.0,0.0,0.0,0.0,-2.8763,-2.8573,-2.826,-2.7661,-2.67,-2.575,-2.4926,-2.4592,-2.4909,-2.6041,-2.7151,-2.8624,-3.0556,-3.1302,-3.1968,-3.2593,-3.2034,-3.2529,-3.4067,-3.4516,-3.5681,-3.7477,-3.8099,-3.8765,-3.9439,-3.9828,-4.0142,-4.0397,-4.0397,-4.0561,-4.0756,-4.0098,-3.9185,-3.8182,-3.7524,-3.5983,-3.4188,-3.4292,-3.3484,0.0,-3.148,-3.145,-3.1794,-3.2078,-3.1973,-3.1569,-3.0657,-2.9819,-2.8966,-2.8008,-2.8098,-2.8637,-2.9427,-3.0325,-3.145,-3.311,-3.3679,-3.4083,-3.4906,-3.5893,-3.6701,-3.6971,-3.7778,-3.8527,-3.8931,-3.9783,-4.0127,-3.9334,-3.9813,-3.9843,-3.8781,-3.8983,-4.0069,-4.222,-4.3271,-4.4025,-4.4559,-4.4902,-4.4925,-4.4632,-4.3842,-4.3064,-4.2303,-4.1576,-4.0849,-4.0113,-4.0096,-4.0096,-4.0113,-4.0631,-4.0903,-4.0926,-4.1789,-4.1896,-4.1358,-4.0839,-4.0322,-3.9827,-3.9038,-3.8505,-3.8193,-3.8193,-3.7202,-3.5697,-3.5188,-3.4289,-3.3348,0.0,0.0,0.0,0.0,0.0,0.0,0.0,0.0,0.0,0.0,-2.9309,-2.9144,-2.7927,-2.702,-2.6211,-2.5484,-2.4914,-2.5174,-2.6468,-2.7442,-2.8928,-3.1119,-3.2014,-3.2765,-3.3394,-3.3022,-3.3606,-3.5232,-3.5891,-3.6917,-3.8271,-3.9031,-3.9388,-3.9403,-3.9918,-4.0232,-4.0397,-4.0397,-4.0292,-4.0083,-3.9619,-3.8407,-3.6791,-3.5968,-3.4113,-3.2018,-3.2497,-3.1704,-3.027,-2.934,-2.9445,-2.9983,-2.9983,-3.0223,-3.0357,-2.9549,-2.9202,-2.9022,-2.8906,-2.9549,-3.0357,-3.0849,-3.2362,-3.3903,-3.4442,-3.519,-3.5818,-3.5998,-3.6626,-3.721,-3.7375,-3.7808,-3.8332,-3.9035,-3.9529,-3.9499,-3.8527,-3.8826,-3.8646,-3.7315,-3.715,-3.8123,-4.0578,-4.1961,-4.3024,-4.3893,-4.432,-4.4557,-4.4587,-4.3842,-4.3064,-4.2303,-4.1576,-4.0849,-4.0113,-4.0096,-4.0096,-4.0096,-4.048,-4.0679,-4.0685,-4.1059,-4.1215,-4.1167,-4.0582,-3.9996,-3.9413,-3.8613,-3.835,-3.8481,-3.8481,-3.7592,-3.6211,-3.5591,-3.4706,-3.3807,0.0,0.0,0.0,0.0,0.0,0.0,0.0,0.0,0.0,0.0,0.0,0.0,0.0,-2.7772,-2.7276,-2.6081,-2.5503,-2.5532,-2.6359,-2.7149,-2.8775,-3.1363,-3.188,-3.3129,-3.5362,-3.4059,-3.4668,-3.7302,-3.6932,-3.7675,-3.9337,-3.9388,-3.9388,-3.9388,-3.9403,-3.9798,-4.0397,-4.0397,-4.0023,-3.9454,-3.9388,-3.7868,-3.5415,-3.4083,-3.2332,-3.0567,-3.0582,-2.934,-2.7705,-2.766,-2.8109,-2.8667,-2.8667,-2.9505,-3.0253,-2.8996,-2.8184,-2.7944,-2.9232,-2.9606,-3.04,-3.356,-3.4414,-3.4968,-3.6851,-3.6851,-3.6626,-3.7225,-3.6911,-3.6701,-3.73,-3.7419,-3.7659,-3.8317,-3.8437,-3.8437,-3.8392,-3.8407,-3.7943,-3.6671,-3.6507,-3.6889,-3.7731,-3.9662,-4.1292,-4.2298,-4.3611,-4.4471,-4.4575,-4.3842,-4.3064,-4.2303,-4.1576,-4.0849,-4.0113,-4.0096,-4.0096,-4.0096,-4.0121,-4.0121,-4.0129,-3.9868,-4.0079,-4.053,-3.9029,-3.8376,-3.8288,-3.7547,-3.7506,-3.7911,-3.7911,-3.7269,-3.6303,-3.6266,-3.522,-3.3807,0.0,0.0,0.0,0.0,0.0,0.0,0.0,0.0,0.0,0.0,0.0,0.0,0.0,0.0,0.0,0.0,-2.5834,-2.5869,-2.6251,-2.7442,-2.8711,-2.9977,-3.1527,-3.2924,-3.4158,-3.413,-3.4997,-3.6791,-3.6679,-3.7124,-3.8078,-3.8078,-3.8317,-3.8751,-3.9215,-3.9783,-4.0367,-3.9933,-3.9634,-3.9275,-3.7524,-3.6013,-3.4622,-3.2856,-3.0687,-2.8528,0.0,-2.72,-2.6138,-2.5241,-2.539,-2.595,-2.595,-2.6557,-2.726,-2.726,-2.8053,-2.9037,-2.9487,-3.1194,-3.3126,-3.4234,-3.5806,-3.7255,-3.7898,-3.7898,-3.7689,-3.7464,-3.6207,-3.5085,-3.4861,-3.5175,-3.5684,-3.6372,-3.7554,-3.8392,-3.8392,-3.8392,-3.7913,-3.6641,-3.6492,-3.643,-3.6256,-3.7769,0.0,-4.0661,-4.2173,-4.3035,-4.3065,-4.3289,-4.3064,-4.2303,-4.1576,-4.0849,-4.0113,-4.0096,-4.0096,-4.0096,-4.0096,-4.0096,-4.0121,-4.039,-4.0613,-4.073,-3.9591,-3.91,-3.8994,-3.7721,-3.7285,-3.738,-3.6863,-3.6283,-3.5701,-3.5224,-3.4513,-3.3807,0.0,0.0,0.0,0.0,0.0,0.0,0.0,0.0,0.0,0.0,0.0,0.0,0.0,0.0,0.0,0.0,0.0,-2.6309,-2.6125,-2.7051,-2.7983,-2.8832,-3.0269,-3.1447,-3.2353,-3.2616,-3.329,-3.4352,-3.4592,-3.516,-3.6013,-3.6252,-3.6851,-3.7734,-3.8167,-3.8721,-3.929,-3.8646,-3.8093,-3.7464,-3.531,-3.3754,-3.2542,-3.0522,-2.8562,0.0,-2.5839,-2.5255,-2.4762,-2.3894,-2.4059,-2.4605,-2.4605,-2.5217,-2.6138,-2.7051,-2.8382,-2.9861,-3.1044,-3.2901,-3.4728,-3.5672,-3.6971,-3.8108,-3.8347,-3.8033,-3.7449,-3.6552,-3.5175,-3.3844,-3.2961,-3.314,-3.3724,-3.4637,-3.5833,-3.6896,-3.7614,-3.7509,-3.7225,-3.6851,-3.6626,-3.6312,-3.5893,-3.6702,-3.7792,-3.9089,-4.0341,-4.1371,-4.2257,-4.2239,-4.2246,-4.2303,-4.1322,-4.0578,-4.0096,-4.0096,-4.0096,-4.0096,-4.0096,-4.0096,-4.0121,-4.0449,-4.047,-4.0167,-3.9311,-3.8789,-3.8422,-3.7167,-3.6589,-3.6466,-3.5939,-3.5385,-3.4799,-3.4331,-3.3787,-3.339,0.0,0.0,0.0,0.0,0.0,0.0,0.0,0.0,0.0,0.0,0.0,0.0,0.0,0.0,0.0,0.0,0.0,0.0,-2.6099,-2.6163,-2.6785,-2.7991,-2.8264,-2.8971,-3.0207,-2.9807,-2.9888,-3.0475,-3.1106,-3.2034,-3.3305,-3.3964,-3.4953,-3.6178,-3.6178,-3.6522,-3.706,-3.6447,-3.5477,-3.4189,-3.2796,-3.1135,-2.9292,-2.729,-2.6138,-2.5367,-2.4103,-2.3625,-2.361,-2.364,-2.4133,-2.4709,-2.4709,-2.5659,-2.6991,-2.8278,-2.919,-3.049,-3.365,-3.4578,-3.5252,-3.7719,-3.7898,-3.7599,-3.8167,-3.73,-3.6013,-3.4728,-3.3799,-3.2856,-3.1585,-3.1406,-3.1869,-3.3185,-3.3559,-3.4367,-3.6312,-3.6073,-3.6148,-3.7315,-3.6941,-3.6567,-3.6537,-3.6537,-3.6857,-3.7636,0.0,-3.966,-4.1933,-4.0769,-4.0691,-4.2148,-4.0806,-4.0045,-4.0096,-4.0096,-4.0096,-4.0096,-4.0096,-4.0079,-4.0045,-4.0045,-3.9656,-3.8903,-3.8159,-3.7449,-3.6745,-3.5893,-3.5442,-3.5235,-3.5186,-3.4539,-3.365,-3.3615,-3.3137,-3.2616,0.0,0.0,0.0,0.0,0.0,0.0,0.0,0.0,0.0,0.0,0.0,0.0,0.0,0.0,0.0,0.0,0.0,0.0,-2.6589,-2.6654,-2.6873,-2.7192,-2.7833,-2.8563,-2.9383,-2.9404,-2.9715,-3.0345,-3.0187,-3.0253,-3.061,-3.0775,-3.1255,-3.2033,-3.2033,-3.2407,-3.296,-3.2317,-3.1824,-3.136,-2.9577,-2.8558,-2.7944,-2.6422,-2.545,-2.4814,-2.447,-2.4007,-2.3684,-2.4171,-2.5136,-2.6093,-2.6093,-2.735,-2.8918,-2.922,-3.0836,-3.2796,-3.4144,-3.5549,-3.6821,-3.7494,-3.7898,-3.7928,-3.715,-3.5971,-3.4788,-3.3918,-3.1674,-2.9744,-2.9415,-3.0133,-3.1017,-3.1869,-3.4487,-3.6761,-3.7764,-3.8197,-3.8347,-3.8167,-3.8003,-3.7719,-3.7225,-3.718,-3.7267,0.0,-3.7781,-3.8216,-3.884,-3.9081,-3.9654,-4.0613,-3.9717,-3.9489,-4.0096,-4.0096,-4.0096,-4.0096,-4.0096,-3.9808,-3.9276,-3.9276,-3.887,-3.8142,-3.7398,-3.6981,-3.6694,-3.5334,-3.4745,-3.4589,-3.3482,-3.3119,-3.3101,-3.2509,-3.2371,-3.2534,0.0,0.0,0.0,0.0,0.0,0.0,0.0,0.0,0.0,0.0,0.0,0.0,0.0,0.0,0.0,0.0,0.0,0.0,0.0,-2.7155,-2.6959,-2.7273,-2.7535,-2.7704,-2.7743,-2.7895,-2.8169,-2.8545,-2.8238,-2.8418,-2.9012,-2.8768,-2.9117,-2.9959,-2.9763,-3.0043,-3.0627,-2.9953,-2.949,0.0,0.0,-2.6542,-2.6168,-2.5121,-2.4507,-2.4156,-2.4156,-2.4313,-2.4627,-2.56,-2.6617,-2.753,-2.7814,-2.9071,-3.0552,-3.1135,-3.2347,-3.3829,-3.5355,-3.6567,-3.7479,-3.7764,-3.7898,-3.7539,-3.5968,-3.4801,-3.3619,-3.2093,-3.0313,-2.8846,-2.8263,-2.8981,-2.9983,-3.0898,-3.344,-3.5789,-3.7345,-3.7883,-3.8302,-3.8781,-3.8571,-3.8242,-3.7883,-3.7838,-3.7614,-3.7045,-3.7124,-3.7457,-3.8103,-3.7995,-3.8421,-3.9544,-3.8816,-3.8789,-3.9584,-3.9927,-4.0096,-4.0096,-3.9774,-3.9394,-3.8988,-3.8667,-3.8108,-3.7381,0.0,-3.6609,-3.6214,-3.5334,-3.4607,-3.3931,-3.3102,-3.2539,-3.2164,-3.1699,-3.1695,-3.1932,0.0,0.0,0.0,0.0,0.0,0.0,0.0,0.0,0.0,0.0,0.0,0.0,0.0,0.0,0.0,0.0,0.0,0.0,0.0,0.0,-2.7283,-2.7925,-2.7583,-2.7046,-2.6401,-2.649,-2.6543,-2.6543,-2.6419,-2.6933,-2.8019,-2.742,-2.7705,-2.8627,-2.8157,-2.8308,-2.8876,-2.8218,-2.7649,-2.7091,-2.5839,-2.4978,-2.4395,0.0,-2.3595,-2.3595,-2.3595,-2.4403,-2.5689,-2.7121,-2.8169,-2.8981,-2.9744,-3.0866,-3.2138,-3.3395,-3.3829,-3.4427,-3.6881,-3.7539,-3.7659,-3.8138,-3.7764,-3.6746,-3.4681,-3.3634,-3.2407,-2.9953,-2.9412,-2.8978,-2.7809,-2.8229,-2.9146,-3.0432,-3.1839,-3.3679,-3.6252,-3.6686,-3.7404,-3.9215,-3.8901,-3.8527,-3.8527,-3.8437,-3.7928,-3.6821,-3.6582,-3.7023,-3.822,-3.7109,-3.7124,-3.8551,-3.8067,-3.8133,-3.8881,-3.9584,-3.9978,-4.0096,-3.9445,-3.9039,-3.8819,-3.8193,-3.7432,-3.6643,0.0,0.0,-3.5583,-3.5481,-3.4687,-3.3541,-3.344,-3.256,-3.1343,-3.1343,-3.1275,-3.119,0.0,0.0,0.0,0.0,0.0,0.0,0.0,0.0,0.0,0.0,-3.0779,-3.0992,0.0,0.0,0.0,0.0,0.0,0.0,0.0,0.0,0.0,-2.879,-2.8717,-2.8595,-2.8495,-2.808,-2.7879,-2.7879,-2.7409,-2.7008,-2.6627,-2.6088,-2.5619,-2.523,-2.4714,-2.4852,-2.5412,-2.4762,-2.4732,-2.5053,-2.4268,-2.3879,-2.3759,-2.364,0.0,0.0,-2.3595,-2.4118,-2.5053,-2.6971,-2.8753,-3.0387,-3.1614,-3.2901,-3.4128,-3.4921,-3.5549,-3.6297,-3.7808,-3.8227,-3.8123,-3.7689,-3.7105,-3.5983,-3.344,-3.1913,-3.0597,-2.9086,-2.8334,-2.7869,-2.7645,-2.8603,-2.9834,-3.1122,-3.2916,-3.4861,-3.6956,-3.7719,-3.8392,-3.9269,-3.932,-3.9245,-3.9245,-3.8721,-3.8302,0.0,-3.709,-3.6364,-3.6077,-3.5821,-3.6084,-3.6954,-3.7519,-3.8133,-3.8881,-3.9059,-3.9437,-4.0096,-3.9977,-3.9259,-3.8091,-3.7973,-3.7144,-3.5825,0.0,0.0,-3.5549,-3.4945,-3.4539,-3.4252,-3.3643,-3.2865,-3.2107,-3.2107,-3.1735,-3.119,0.0,0.0,0.0,0.0,0.0,0.0,0.0,-3.0467,-3.0797,-3.243,-3.1953,-3.1739,-3.2509,-3.2981,-3.2967,0.0,0.0,0.0,0.0,0.0,0.0,0.0,-2.9567,-2.9381,-2.901,-2.9124,-2.9195,-2.9195,0.0,-2.8249,-2.8243,-2.702,-2.6256,-2.5863,-2.5013,-2.4814,-2.5068,-2.4395,-2.4306,-2.4545,-2.3879,-2.3595,-2.3595,-2.3595,0.0,0.0,-2.3595,-2.4022,-2.4844,-2.6512,-2.7944,-2.9385,-3.1764,-3.3664,-3.5011,-3.4981,-3.5684,-3.6686,-3.7629,-3.8123,-3.8227,-3.7569,-3.6686,-3.528,-3.2587,-3.0971,-2.9654,-2.8364,-2.7824,-2.76,-2.76,-2.8423,-2.9385,-3.0357,-3.1584,-3.323,-3.5549,-3.6462,-3.7389,-3.8721,-3.92,-3.9388,-3.9388,-3.8796,-3.8242,-3.7898,-3.7015,-3.6357,-3.6028,-3.5684,-3.5668,-3.6038,-3.6783,-3.7352,-3.77,-3.8117,-3.851,-3.8896,-3.8512,-3.817,-3.7872,-3.7053,-3.6535,-3.6197,-3.5769,0.0,-3.5566,-3.5211,-3.4844,-3.4421,-3.3694,-3.3186,-3.278,-3.2002,-3.1752,-3.1718,0.0,0.0,0.0,0.0,0.0,0.0,0.0,-3.0852,-3.1256,-3.3513,-3.3256,-3.2858,-3.2858,-3.3421,-3.3652,0.0,0.0,0.0,0.0,0.0,0.0,0.0,0.0,0.0,-2.9484,0.0,0.0,-3.0345,-2.9771,0.0,0.0,0.0,0.0,0.0,-2.6123,-2.5689,-2.5779,-2.5098,-2.4814,0.0,0.0,-2.3729,-2.3595,0.0,0.0,0.0,0.0,-2.3939,-2.459,-2.5929,-2.6811,-2.7869,-3.0597,-3.2931,-3.4607,-3.4337,-3.5357,-3.6656,-3.7404,-3.8093,-3.8422,-3.7614,-3.6342,-3.4622,-3.2079,-3.0417,-2.9052,-2.7839,-2.76,-2.76,-2.76,-2.8034,-2.8652,-2.9472,-2.9983,-3.1285,-3.4114,-3.4936,-3.6058,-3.8138,-3.8871,-3.92,-3.92,-3.8571,-3.7913,-3.727,-3.6626,0.0,-3.6282,-3.5789,-3.5504,-3.5504,-3.6054,-3.6446,-3.6615,-3.7249,-3.7632,-3.7774,-3.7065,-3.7034,-3.7605,-3.6242,-3.5958,-3.6524,-3.5853,0.0,0.0,-3.56,-3.5267,-3.4675,-3.41,-3.3778,-3.3508,-3.2324,-3.2073,-3.2226,0.0,0.0,0.0,0.0,0.0,0.0,0.0,-3.1342,-3.188,-3.3587,-3.3733,-3.3697,-3.3697,-3.3752,-3.3652,0.0,0.0,0.0,0.0,0.0,0.0,0.0,0.0,0.0,0.0,0.0,0.0,-3.1089,-3.1021,0.0,0.0,0.0,0.0,0.0,0.0,-2.5944,-2.6452,-2.5794,0.0,0.0,0.0,0.0,0.0,0.0,0.0,0.0,0.0,-2.364,-2.3909,-2.5241,-2.6138,-2.6866,-2.7764,-2.9804,-3.2093,-3.3245,-3.4966,-3.6746,-3.7973,-3.8796,-3.902,-3.7734,-3.5968,-3.4038,-3.1974,-3.0031,-2.8472,-2.775,-2.76,-2.76,-2.76,-2.7645,-2.8109,-2.9397,-2.9651,-3.0819,-3.4054,-3.4563,-3.5552,-3.8093,-3.8437,-3.8482,-3.8482,-3.7883,-3.724,-3.6611,-3.5968,0.0,-3.5594,-3.5534,-3.5504,-3.5504,-3.5569,-3.5926,-3.6569,-3.6661,-3.7083,-3.7796,-3.7114,-3.6794,-3.6785,-3.6018,-3.5695,-3.5701,0.0,0.0,0.0,-3.56,-3.5549,-3.5481,-3.5414,-3.4996,-3.437,-3.4235,-3.3393,-3.2293,0.0,0.0,0.0,0.0,0.0,0.0,-3.1146,-3.1397,-3.2155,-3.4252,-3.41,-3.399,-3.4472,-3.41,-3.3734,-3.3578,0.0,0.0,0.0,0.0,0.0,0.0,0.0,0.0,0.0,0.0,-3.119,-3.119,-3.119,0.0,0.0,0.0,0.0,0.0,0.0,-2.6956,-2.7165,-2.6482,0.0,0.0,0.0,0.0,0.0,0.0,0.0,0.0,0.0,0.0,-2.3684,-2.4223,-2.4567,-2.4837,-2.5106,-2.6467,-2.8431,-3.0956,-3.311,-3.4981,-3.6297,-3.7419,-3.7988,-3.7075,-3.5055,-3.2976,-3.1765,-2.9684,-2.7929,-2.766,-2.76,-2.7458,-2.7008,-2.693,-2.6974,-2.7064,-2.6724,-2.7489,-3.0426,-3.0822,-3.2135,-3.5636,-3.6402,-3.6956,-3.7719,-3.7225,-3.6582,-3.5953,0.0,0.0,-3.5504,-3.5504,-3.5504,-3.5504,-3.5504,-3.5636,-3.5958,-3.5943,-3.6091,-3.6428,-3.5736,-3.5673,-3.6066,-3.4926,-3.4882,-3.5638,0.0,0.0,0.0,-3.56,-3.56,-3.5549,-3.5115,-3.503,-3.5064,-3.4167,-3.3474,-3.2899,0.0,0.0,0.0,0.0,0.0,-2.9369,-3.0989,-3.1334,-3.2173,-3.4362,-3.4156,-3.4027,-3.4582,-3.4137,-3.3807,-3.3807,-3.3807,0.0,0.0,0.0,0.0,0.0,0.0,0.0,0.0,0.0,-3.119,-3.119,-3.119,-3.119,0.0,0.0,-2.9563,-2.9361,0.0,0.0,0.0,0.0,0.0,0.0,0.0,0.0,0.0,0.0,0.0,0.0,0.0,0.0,0.0,0.0,0.0,-2.3595,-2.3595,-2.4253,-2.5585,-2.8487,-3.118,-3.3455,-3.4607,-3.6133,-3.721,-3.6402,-3.4337,-3.2258,-3.1391,-2.9325,-2.76,-2.76,-2.7433,-2.7126,-2.659,-2.631,-2.6014,-2.5481,-2.4998,-2.5494,-2.7755,-2.8426,-2.99,-3.3125,-3.45,-3.5526,-3.6348,-3.6298,-3.6013,-3.5549,0.0,0.0,0.0,-3.5504,-3.5504,-3.5504,-3.5504,-3.5504,-3.5504,-3.5504,-3.5401,-3.5187,-3.4513,-3.4506,-3.5015,-3.3826,-3.3931,-3.5044,0.0,0.0,0.0,-3.5207,-3.5299,-3.5249,-3.4729,-3.4976,-3.5442,-3.4224,-3.3746,-3.3643,0.0,0.0,0.0,0.0,0.0,0.0,-3.0663,-3.1193,-3.1984,-3.3605,-3.3807,-3.3807,-3.3807,-3.3807,-3.3807,-3.3807,-3.3807,0.0,0.0,0.0,0.0,0.0,0.0,0.0,0.0,0.0,-3.119,-3.119,-3.119,-3.119,-3.119,-3.0597,-2.9957,-2.9361,0.0,0.0,0.0,0.0,0.0,0.0,0.0,0.0,0.0,0.0,0.0,0.0,0.0,0.0,0.0,0.0,0.0,0.0,0.0,-2.361,-2.4014,-2.6033,-2.943,-3.2677,-3.3335,-3.5415,-3.7105,-3.5833,-3.3993,-3.2168,-3.0821,-2.8981,-2.76,-2.76,-2.7008,-2.651,-2.651,-2.5906,-2.5398,-2.5398,-2.5384,-2.5826,-2.7133,-2.8509,-2.9816,-3.0988,-3.3121,-3.4424,-3.4269,-3.5001,-3.5519,0.0,0.0,0.0,0.0,-3.5504,-3.5504,-3.5504,-3.5504,-3.5504,-3.5504,-3.5504,-3.516,-3.4503,-3.3845,-3.3516,-3.3503,-3.2881,-3.2975,0.0,0.0,0.0,0.0,-3.4333,-3.46,-3.46,-3.46,-3.5012,-3.5515,-3.4854,-3.4551,-3.4472,0.0,0.0,0.0,0.0,0.0,0.0,0.0,-3.0797,-3.1984,-3.3587,-3.3807,-3.4009,-3.4564,-3.4137,-3.3807,-3.3807,-3.3807,0.0,0.0,0.0,0.0,0.0,0.0,0.0,0.0,0.0,-3.119,-3.119,-3.119,-3.0995,-3.058,-3.0393,-2.9761,-2.8779,-2.8583,-2.8165,0.0,0.0,0.0,0.0,0.0,0.0,0.0,0.0,0.0,0.0,0.0,0.0,0.0,0.0,0.0,0.0,0.0,0.0,0.0,-2.4358,-2.6408,-2.8906,-3.0911,-3.2048,-3.2706,-3.2751,-3.1644,-3.0261,-2.9297,-2.832,-2.7316,-2.6295,-2.631,-2.6203,-2.5175,-2.4823,-2.4481,-2.393,-2.3842,-2.4279,-2.5624,-2.6516,-2.8043,-3.0856,-3.3542,-3.5153,-3.507,0.0,-3.5504,0.0,0.0,0.0,0.0,-3.5504,-3.5504,-3.5504,-3.5055,-3.5026,-3.5504,-3.504,-3.4728,-3.4503,-3.3814,-3.3261,-3.2806,-3.214,0.0,0.0,0.0,0.0,0.0,-3.3836,-3.3912,-3.3912,-3.3912,-3.4037,-3.4202,-3.3987,-3.3599,-3.3144,0.0,0.0,0.0,0.0,0.0,0.0,0.0,-3.016,-3.1239,-3.2693,-3.3164,-3.3537,-3.405,-3.3917,-3.3807,-3.3807,-3.3807,0.0,0.0,0.0,0.0,0.0,0.0,0.0,-3.119,-3.119,-3.119,-3.119,-3.119,-3.0878,-3.0293,-3.0293,-2.9651,-2.8487,-2.8487,-2.8165,0.0,0.0,0.0,0.0,0.0,0.0,-2.3595,0.0,0.0,0.0,0.0,0.0,0.0,0.0,0.0,0.0,0.0,0.0,0.0,0.0,-2.4153,-2.5755,-2.8629,-3.0133,-3.0841,-3.0732,-3.0147,-2.9273,-2.7939,-2.742,-2.6837,-2.5646,-2.5536,-2.5398,-2.4452,-2.406,-2.3679,-2.3198,-2.3108,-2.3402,-2.4215,-2.5463,-2.7597,-3.1103,-3.3366,-3.4617,0.0,-3.5145,0.0,0.0,0.0,0.0,0.0,-3.5504,-3.5504,-3.5504,-3.51,-3.4951,-3.5115,-3.4728,-3.4264,-3.3724,-3.332,-3.2781,-3.2108,-3.169,0.0,0.0,0.0,0.0,0.0,-3.2641,-3.2855,-3.2871,-3.3114,-3.3391,-3.3572,-3.3313,-3.3095,-3.2885,0.0,0.0,0.0,0.0,0.0,0.0,0.0,-2.9299,-3.001,-3.112,-3.1995,-3.2528,-3.2583,-3.3275,-3.3733,-3.3807,0.0,0.0,0.0,0.0,0.0,0.0,0.0,0.0,-3.119,-3.114,-3.114,-3.119,-3.114,-3.0808,-3.023,-3.0272,-2.9629,-2.8439,-2.8463,-2.8134,0.0,0.0,0.0,0.0,0.0,0.0,0.0,0.0,0.0,0.0,0.0,0.0,0.0,0.0,0.0,0.0,0.0,0.0,0.0,0.0,0.0,0.0,0.0,-2.9056,-3.0627,-2.9363,-2.9166,-2.8775,-2.6707,-2.6341,0.0,-2.5398,-2.4738,-2.4292,-2.4234,-2.359,-2.3108,-2.3108,-2.3145,-2.3158,-2.3158,-2.5392,-2.8241,-3.1525,-3.2633,-3.3087,-3.2963,-3.4376,0.0,0.0,0.0,0.0,0.0,-3.5287,-3.529,-3.537,-3.537,-3.507,-3.4518,-3.4414,-3.3724,-3.2512,-3.2512,-3.2138,-3.1511,-3.1451,0.0,0.0,0.0,0.0,0.0,-3.0937,-3.1449,-3.1511,-3.2145,-3.2765,-3.3248,-3.2667,-3.2828,-3.3294,0.0,0.0,0.0,0.0,0.0,0.0,0.0,0.0,0.0,0.0,-3.0989,-3.1916,-3.2528,-3.2766,-3.3115,0.0,0.0,0.0,0.0,0.0,0.0,0.0,0.0,0.0,-3.119,-3.0649,-3.0632,-3.119,-3.0632,-3.0105,-2.9629,-3.0064,-2.9413,-2.7835,-2.8295,-2.7874,0.0,0.0,0.0,0.0,0.0,0.0,0.0,0.0,0.0,0.0,-2.3551,-2.3533,0.0,0.0,0.0,0.0,0.0,0.0,0.0,0.0,-2.2287,-2.286,-2.3632,0.0,-2.548,-2.5614,-2.6006,-2.612,0.0,-2.5243,-2.5273,-2.393,-2.3989,-2.4118,-2.3514,-2.3215,-2.3108,-2.3108,-2.3471,-2.3791,-2.3791,-2.6388,-2.8738,-2.9956,-3.1668,-3.2409,-3.1587,-3.2587,0.0,0.0,0.0,0.0,0.0,-3.3216,-3.3275,-3.3932,-3.3963,-3.4128,-3.4503,-3.3484,-3.2826,-3.2512,-3.2512,-3.2138,-3.1481,-3.0957,0.0,0.0,0.0,0.0,-2.9621,-2.9946,-3.006,-3.0075,-3.0226,-3.0379,-3.0586,-3.087,-3.1107,-3.1198,0.0,0.0,0.0,0.0,0.0,0.0,0.0,0.0,0.0,0.0,0.0,0.0,0.0,0.0,0.0,0.0,0.0,0.0,0.0,0.0,0.0,0.0,0.0,-3.07,-3.07,-3.0311,-3.0311,-3.07,-3.0632,-3.0194,-2.9406,-2.9739,-2.8898,-2.7136,-2.7146,-2.6622,0.0,0.0,0.0,0.0,-2.4066,0.0,0.0,0.0,0.0,0.0,-2.3076,-2.2827,0.0,-2.2677,-2.2534,-2.2197,0.0,0.0,0.0,0.0,-2.1303,-2.1745,-2.1432,-2.2646,-2.4006,-2.4001,-2.4491,-2.4764,-2.3936,-2.4125,-2.4219,-2.3272,-2.3251,-2.3312,-2.3148,-2.2694,-2.2518,-2.302,-2.3158,-2.3489,-2.4268,-2.6213,-2.8027,-2.935,-3.0895,-3.1668,0.0,0.0,0.0,0.0,0.0,0.0,0.0,-3.1839,-3.2044,-3.2882,-3.2619,-3.2803,-3.3574,-3.2871,-3.2333,-3.2034,-3.2034,-3.169,-3.1017,-3.0672,0.0,0.0,0.0,0.0,-2.8708,-2.8996,-2.9131,-2.916,-2.9487,-2.9606,-2.9651,-2.9968,-3.0088,-3.0043,0.0,0.0,0.0,0.0,0.0,0.0,0.0,0.0,0.0,0.0,0.0,0.0,0.0,0.0,0.0,0.0,0.0,0.0,0.0,0.0,0.0,0.0,-3.0693,-2.9989,-3.0108,-2.9869,-2.992,-3.0277,-3.0666,-3.0364,-2.9406,-2.9406,-2.8404,-2.6557,-2.5899,-2.5217,0.0,-2.5098,-2.4642,-2.3655,-2.4216,0.0,0.0,0.0,0.0,0.0,0.0,0.0,0.0,-2.139,-2.1482,-2.1328,-2.0807,0.0,0.0,0.0,0.0,0.0,-1.9952,-2.1878,-2.3879,-2.3277,-2.37,-2.4079,-2.328,-2.3235,-2.3303,-2.3144,-2.2732,-2.2548,-2.2907,-2.2309,-2.202,-2.2844,-2.2732,-2.3183,-2.5026,-2.5929,-2.7097,-2.904,-3.011,0.0,0.0,0.0,0.0,0.0,0.0,0.0,0.0,-3.0543,-3.0853,-3.1693,-3.1148,-3.1232,-3.1944,-3.2214,-3.2049,-3.1511,-3.1406,-3.1032,-3.0492,-3.0298,-2.9624,0.0,0.0,0.0,-2.7645,-2.8203,-2.8442,-2.8502,-2.9082,-2.9292,-2.9322,-2.9412,-2.9457,-2.9382,0.0,0.0,0.0,0.0,0.0,0.0,0.0,0.0,0.0,0.0,0.0,0.0,0.0,0.0,0.0,0.0,0.0,0.0,0.0,0.0,0.0,-3.0036,-2.9486,-2.9448,-3.0091,-2.8821,-2.9092,-3.1021,-2.989,-2.9364,-2.9406,-2.9406,-2.8404,-2.6557,-2.5899,-2.5217,-2.4575,-2.4103,-2.3789,-2.361,-2.3714,0.0,0.0,0.0,0.0,0.0,0.0,0.0,0.0,-2.0919,-2.0559,-2.0067,-1.9978,0.0,0.0,0.0,0.0,0.0,-1.9824,-2.0865,-2.1929,-2.183,-2.2556,-2.328,-2.3143,-2.3122,-2.3144,-2.3125,-2.3032,-2.2857,-2.2481,-2.2656,-2.2757,-2.2456,-2.3175,-2.4644,-2.7243,-2.7334,-2.7427,-2.8214,0.0,0.0,0.0,0.0,0.0,0.0,0.0,0.0,0.0,0.0,-2.86,-2.947,-2.9404,-2.938,-2.9551,-3.0953,-3.16,-3.1496,-3.0913,-3.0612,-3.0462,-2.9385,-2.8786,0.0,0.0,-2.7705,-2.76,-2.7705,-2.775,-2.7764,-2.7869,-2.7899,-2.7974,-2.8532,-2.8742,-2.8742,0.0,0.0,0.0,0.0,0.0,0.0,0.0,0.0,0.0,0.0,0.0,0.0,0.0,0.0,0.0,0.0,0.0,0.0,0.0,0.0,-2.8453,-2.8048,-2.7862,-2.8095,-2.8838,-2.8602,-2.9161,-3.0615,-2.9987,-2.979,-2.9957,-2.8185,-2.6887,-2.6019,-2.4986,-2.4358,-2.4036,-2.3729,-2.3595,-2.3573,0.0,0.0,0.0,0.0,0.0,0.0,0.0,0.0,0.0,0.0,-2.0055,-1.9798,-1.9798,0.0,0.0,0.0,0.0,0.0,-1.9798,-2.0413,-2.1069,-2.1069,-2.1656,-2.2246,-2.2246,-2.202,-2.197,-2.2543,-2.2447,-2.2259,-2.2297,-2.2243,-2.233,-2.2669,-2.3672,-2.4883,-2.6151,-2.6113,-2.6264,0.0,0.0,0.0,0.0,0.0,0.0,0.0,0.0,0.0,0.0,0.0,-2.7111,-2.8266,-2.8298,-2.8524,-2.9002,-2.9487,-2.9735,-2.972,-2.9088,-2.8812,-2.8842,-2.7843,-2.7652,-2.8023,0.0,-2.7229,-2.76,-2.76,-2.76,-2.76,-2.76,-2.76,-2.763,-2.7959,-2.8064,-2.8124,0.0,0.0,0.0,0.0,0.0,0.0,0.0,0.0,0.0,0.0,0.0,0.0,0.0,0.0,0.0,0.0,0.0,0.0,0.0,-2.7303,-2.7115,-2.6725,-2.6691,-2.7131,-2.806,-2.8358,-2.9042,-3.0152,-2.9927,-2.9821,-2.9741,-2.707,-2.5674,-2.5307,-2.4298,-2.3744,-2.3595,-2.3595,-2.3595,-2.3551,0.0,0.0,0.0,0.0,0.0,0.0,0.0,0.0,0.0,0.0,0.0,0.0,0.0,0.0,0.0,-1.9798,-1.9798,-1.9798,-1.9798,-2.0251,-2.0666,-2.0528,-2.1006,-2.1556,-2.182,-2.1543,-2.1559,-2.2498,-2.2372,-2.2083,-2.2121,-2.1882,-2.2046,-2.3133,-2.4249,-2.5096,-2.536,-2.5398,-2.5762,-2.6763,0.0,0.0,0.0,0.0,0.0,0.0,0.0,0.0,0.0,0.0,-2.5897,-2.7,-2.7013,-2.7327,-2.8021,-2.7488,-2.754,-2.8183,-2.7436,-2.7129,-2.7211,-2.6498,-2.6493,-2.7045,-2.6496,-2.6549,-2.7071,-2.7071,-2.7188,-2.7331,-2.7331,-2.7433,-2.76,-2.76,-2.7705,-2.7914,0.0,0.0,0.0,0.0,0.0,0.0,0.0,0.0,0.0,0.0,0.0,0.0,0.0,0.0,0.0,0.0,0.0,0.0,0.0,-2.7303,-2.7115,-2.6725,-2.6691,-2.7402,-2.8891,-2.7705,-2.8115,-3.029,-2.9043,-2.8189,-2.7712,-2.6894,-2.5869,-2.4664,-2.4575,-2.4171,-2.3595,-2.3595,-2.3595,-2.3551,-2.2942,0.0,0.0,0.0,0.0,0.0,0.0,0.0,0.0,0.0,0.0,0.0,0.0,0.0,-1.9798,-1.9798,-1.9798,-1.9798,-1.9798,-2.0251,-2.0566,-1.9999,-2.0677,-2.1757,-2.2757,-2.2957,-2.3108,-2.3753,-2.3853,-2.3351,-2.1832,-2.1933,-2.2623,-2.3753,-2.4833,-2.59,-2.6954,0.0,-2.7331,0.0,0.0,0.0,0.0,0.0,0.0,0.0,0.0,0.0,0.0,0.0,0.0,-2.4998,-2.4998,-2.503,-2.5082,-2.457,-2.5607,-2.8183,-2.7005,-2.648,-2.6453,-2.5771,-2.5495,-2.5563,-2.5508,-2.5508,-2.5563,-2.5563,-2.5946,-2.659,-2.659,-2.6982,-2.76,-2.76,-2.8004,-2.8532,0.0,0.0,0.0,0.0,0.0,0.0,0.0,0.0,0.0,0.0,0.0,0.0,0.0,0.0,0.0,0.0,0.0,0.0,0.0,-2.6923,-2.6857,-2.6708,-2.6419,-2.6763,-2.7796,-2.7698,-2.8523,-3.0293,-2.9074,-2.8163,-2.7534,-2.6047,-2.5307,-2.5187,-2.4335,-2.3849,-2.3595,-2.3595,-2.3377,-2.2987,-2.2346,-2.1842,0.0,0.0,0.0,0.0,0.0,0.0,0.0,0.0,-1.9798,-1.9798,-1.9798,-1.9798,-1.9798,-1.9798,-1.9798,-1.9798,-1.9798,-1.9636,-1.9523,-1.9745,-1.9427,-1.9594,-2.1645,-2.2121,-2.2372,-2.3276,-2.3434,-2.3133,-2.2184,-2.2447,-2.3045,-2.3866,-2.4895,-2.5875,-2.67,-2.6801,0.0,0.0,0.0,0.0,0.0,0.0,0.0,0.0,0.0,0.0,0.0,0.0,0.0,-2.4775,-2.4788,-2.4788,-2.4788,-2.428,-2.4346,-2.5031,-2.457,-2.4596,-2.506,-2.4313,-2.4496,-2.537,-2.4922,-2.4979,-2.5398,-2.5398,-2.5563,-2.581,-2.581,-2.5973,-2.6258,-2.6616,-2.6887,-2.7214,0.0,0.0,0.0,0.0,0.0,0.0,0.0,0.0,0.0,0.0,0.0,0.0,0.0,0.0,0.0,0.0,0.0,0.0,-2.6725,-2.6691,-2.6641,-2.6504,-2.6174,-2.627,-2.6842,-2.7097,-2.7858,-2.9102,-2.8129,-2.732,-2.6617,-2.5232,-2.4724,-2.4941,-2.4014,-2.3595,-2.3595,-2.3595,-2.3246,-2.2649,-2.1969,-2.1342,0.0,0.0,0.0,0.0,0.0,0.0,0.0,0.0,-1.9798,-1.9798,-1.9798,-1.9798,-1.9798,-1.9798,-1.9643,-1.9449,-1.9449,-1.89,-1.8463,-1.8992,-1.8457,-1.8379,-2.0509,-2.1098,-2.1682,-2.3304,-2.3346,-2.2892,-2.2238,-2.2653,-2.3296,-2.3904,-2.4757,-2.5548,-2.6135,-2.6084,0.0,0.0,0.0,0.0,0.0,0.0,0.0,0.0,0.0,0.0,0.0,0.0,0.0,0.0,-2.3766,-2.3766,-2.3766,-2.3389,-2.3,-2.2581,-2.2581,-2.2963,-2.3654,-2.3276,-2.3679,-2.4639,-2.4134,-2.4221,-2.4654,-2.4654,-2.4809,-2.5063,-2.5315,-2.548,-2.5701,-2.6058,-2.6457,-2.6898,0.0,0.0,0.0,0.0,0.0,0.0,0.0,0.0,0.0,0.0,0.0,0.0,0.0,0.0,0.0,0.0,0.0,0.0,-2.6691,-2.6691,-2.6487,-2.6031,-2.5995,-2.6087,-2.6282,-2.5702,-2.5747,-2.6501,-2.5894,-2.5247,-2.4619,-2.4605,-2.4231,-2.361,-2.361,-2.3595,-2.3595,-2.3595,-2.3246,-2.2626,-2.1969,-2.1342,-2.0721,0.0,0.0,0.0,0.0,0.0,0.0,0.0,-1.9798,-1.9798,-1.9798,-1.9773,-1.9773,-1.9773,-1.9254,-1.8688,-1.8688,-1.814,-1.7578,-1.7605,-1.7947,-1.8572,-1.9646,-2.0252,-2.1388,-2.4204,-2.3854,-2.2793,-2.1854,-2.2463,-2.3253,-2.386,-2.4424,-2.4963,-2.5511,0.0,0.0,0.0,0.0,0.0,0.0,0.0,0.0,0.0,0.0,0.0,0.0,0.0,0.0,0.0,-2.1493,-2.1493,-2.1493,-2.1493,-2.1493,-2.1481,-2.1493,-2.1782,-2.2334,-2.2844,-2.3095,-2.3108,-2.3108,-2.3108,-2.3108,-2.3108,-2.3573,-2.435,-2.5091,-2.5714,-2.618,-2.618,-2.6937,-2.7968,0.0,0.0,0.0,0.0,0.0,0.0,0.0,0.0,0.0,0.0,0.0,0.0,0.0,0.0,0.0,0.0,0.0,0.0,-2.6691,-2.6691,-2.6487,-2.6031,-2.5633,-2.5298,-2.497,-2.4422,-2.4699,-2.5886,-2.5205,-2.5038,-2.5277,-2.4343,-2.4036,-2.4253,-2.3363,-2.2965,-2.2965,-2.2965,-2.2337,-2.1393,-2.1615,-2.1075,-2.0067,0.0,0.0,0.0,0.0,0.0,0.0,0.0,0.0,0.0,-1.9044,-1.8661,-1.8259,-1.8259,-1.8097,-1.7934,-1.7934,-1.7385,-1.695,-1.7468,-1.7162,-1.721,-1.8939,-1.9736,-2.0475,-2.1722,-2.1885,-2.1463,-2.0458,-2.0879,-2.14,-2.1594,-2.2048,-2.2791,0.0,0.0,0.0,0.0,0.0,0.0,0.0,0.0,0.0,0.0,0.0,0.0,0.0,0.0,0.0,0.0,-2.1493,0.0,-2.1493,-2.1493,-2.132,-2.0943,-2.1333,-2.1782,-2.2322,-2.2456,-2.2732,-2.3108,-2.3108,-2.3108,-2.3108,-2.3108,-2.3245,-2.3484,-2.3708,-2.3887,-2.4051,-2.4507,-2.4869,-2.5301,0.0,0.0,0.0,0.0,0.0,0.0,0.0,0.0,0.0,0.0,-2.1669,-2.2118,0.0,0.0,0.0,0.0,0.0,0.0,0.0,-2.6539,-2.6192,-2.5707,-2.5182,-2.4617,-2.4095,-2.3773,-2.3999,-2.4807,-2.4395,-2.4395,-2.4792,-2.4268,-2.4067,-2.4126,-2.3418,-2.293,-2.2644,-2.2413,-2.1714,-2.082,-2.121,-2.072,-1.9798,0.0,0.0,0.0,0.0,0.0,0.0,0.0,0.0,0.0,-1.8688,-1.8194,-1.7605,-1.7605,-1.7385,-1.7174,-1.7174,-1.6613,-1.6169,-1.6602,-1.6533,-1.6704,-1.8123,-1.9503,-2.0451,-2.0255,-2.0785,-2.0963,-1.9944,-2.0223,-2.0658,-2.0881,-2.0868,-2.1164,0.0,0.0,0.0,0.0,0.0,0.0,0.0,0.0,0.0,0.0,0.0,0.0,0.0,0.0,0.0,0.0,-2.0394,0.0,-2.0815,-2.0815,-2.0652,-2.0352,-2.0665,-2.1117,-2.1669,-2.2121,-2.2498,-2.2794,-2.3007,-2.3108,-2.3108,-2.3108,-2.3108,-2.3108,-2.3108,-2.3246,-2.3496,-2.3866,-2.4142,-2.4418,0.0,0.0,0.0,0.0,0.0,0.0,0.0,0.0,0.0,0.0,-2.028,-2.0717,0.0,0.0,0.0,0.0,0.0,0.0,0.0,-2.6157,-2.5689,-2.5163,-2.4612,-2.4095,-2.3595,-2.3595,-2.3595,-2.3595,-2.3595,-2.3573,-2.3523,-2.4149,-2.4053,-2.3331,-2.3402,-2.3054,-2.2402,-2.1849,-2.1269,-2.0696,-2.0771,-2.0396,-1.9798,-1.9798,0.0,0.0,0.0,0.0,0.0,0.0,0.0,0.0,-1.8528,-1.7981,-1.7357,-1.7401,-1.689,-1.6355,-1.6397,-1.5921,-1.541,-1.541,-1.6015,-1.6755,-1.7227,-1.9204,-2.0629,-1.9372,-2.0156,-2.0819,-1.9918,-2.0072,-2.0498,-2.0963,-2.0274,-1.9872,0.0,0.0,0.0,0.0,0.0,0.0,0.0,0.0,0.0,0.0,0.0,0.0,0.0,0.0,0.0,0.0,-1.8608,0.0,-1.9579,-1.9618,-1.9618,0.0,-1.9618,-1.9916,-2.0528,-2.1638,-2.2151,-2.2218,-2.2767,-2.2975,-2.3017,-2.3078,-2.3108,-2.3108,-2.3108,-2.3421,-2.3916,-2.3916,-2.4243,-2.465,0.0,0.0,0.0,0.0,0.0,0.0,0.0,0.0,0.0,0.0,0.0,0.0,0.0,0.0,0.0,0.0,0.0,0.0,0.0,-2.543,-2.5128,-2.4612,-2.4053,-2.3724,-2.3595,-2.3595,-2.3595,-2.3595,-2.3595,-2.3355,-2.2912,-2.3057,-2.2744,-2.207,-2.1618,-2.1352,-2.1166,-2.1033,-2.0608,-2.0055,-2.0597,-2.0396,-1.9798,-1.9798,-1.9798,0.0,0.0,0.0,0.0,0.0,0.0,0.0,-1.7174,-1.6259,-1.5477,-1.5781,-1.5537,-1.5234,-1.5543,-1.5526,-1.541,-1.541,-1.5811,-1.6328,-1.6777,-1.729,-1.7732,-1.7805,-1.8307,-1.867,-1.8442,-1.8498,-1.8482,-1.8296,-1.8061,0.0,0.0,0.0,0.0,0.0,0.0,0.0,0.0,0.0,0.0,0.0,0.0,0.0,0.0,0.0,0.0,-1.7813,0.0,-1.7895,-1.807,-1.807,-1.807,0.0,-1.807,-1.8334,-1.8867,-2.0358,-2.1131,-2.1314,-2.1897,-2.2168,-2.2199,-2.2823,-2.3108,-2.3108,-2.3108,-2.3183,-2.3296,-2.3296,-2.3371,-2.3534,0.0,0.0,0.0,0.0,0.0,0.0,0.0,0.0,0.0,0.0,0.0,0.0,0.0,0.0,0.0,0.0,0.0,0.0,0.0,0.0,-2.4572,-2.4032,-2.3752,-2.3595,-2.3595,-2.3595,-2.3595,-2.3595,-2.3312,-2.3009,-2.2709,-2.2696,-2.2325,-2.1653,-2.1406,-2.1091,-2.0733,-2.045,-2.0131,-1.9824,-2.0182,-2.0105,-1.9798,-1.9798,-1.9798,-1.9798,-1.9798,0.0,0.0,0.0,0.0,0.0,0.0,0.0,-1.4834,-1.5049,-1.4805,-1.4561,-1.499,-1.5107,-1.5205,-1.5625,-1.5928,-1.6212,-1.6599,-1.6562,-1.6533,-1.6973,-1.7246,-1.7369,-1.7369,-1.7369,-1.7291,-1.7109,-1.6894,0.0,0.0,0.0,0.0,0.0,0.0,0.0,0.0,0.0,0.0,0.0,0.0,0.0,0.0,-1.6557,-1.6726,-1.7062,-1.7062,-1.7246,-1.7605,-1.7605,-1.7605,-1.7605,-1.7605,-1.774,-1.8019,-1.9534,-2.0311,-2.0495,-2.0804,-2.0931,-2.097,-2.1193,-2.1392,-2.1576,-2.1576,-2.1701,-2.1896,-2.1896,-2.1896,-2.1932,0.0,0.0,0.0,0.0,0.0,0.0,0.0,0.0,0.0,0.0,0.0,0.0,0.0,0.0,0.0,0.0,0.0,0.0,0.0,0.0,0.0,-2.3616,-2.3595,-2.3595,-2.3595,-2.3595,-2.3595,-2.3595,-2.2875,-2.2578,-2.2683,-2.2474,-2.1976,-2.1277,-2.1405,-2.1108,-2.0515,-2.0012,-1.9798,-1.9798,-1.9798,-1.9798,-1.9798,-1.9798,-1.9798,-1.9798,-1.9798,-1.9798,-1.9669,-1.8794,0.0,0.0,0.0,0.0,-1.4687,-1.4793,-1.4424,-1.4094,-1.4551,-1.4727,-1.4999,-1.5782,-1.5977,-1.6075,-1.6385,-1.6221,-1.6055,-1.6395,-1.6531,-1.6609,-1.6687,-1.6697,-1.6677,-1.6599,0.0,0.0,0.0,0.0,0.0,0.0,0.0,0.0,0.0,0.0,0.0,0.0,0.0,0.0,-1.541,-1.541,-1.569,-1.6293,-1.6322,-1.6595,-1.7208,-1.7306,-1.7339,-1.7339,-1.7398,-1.7383,-1.7262,-1.8589,-1.926,-1.9441,-1.9529,-1.9563,-1.9571,-1.9381,-1.949,-1.9789,-1.9868,-2.0129,-2.0478,-2.0557,-2.059,-2.059,0.0,0.0,0.0,0.0,0.0,0.0,0.0,0.0,0.0,0.0,-1.9406,-1.9914,0.0,0.0,0.0,0.0,0.0,0.0,0.0,0.0,0.0,-2.3595,-2.3595,-2.3595,-2.3595,-2.3595,-2.3595,-2.3595,-2.2409,-2.2106,-2.2599,-2.1547,-2.0689,-2.004,-2.0054,-2.0015,-1.9911,-1.9836,-1.9798,-1.9798,-1.9798,-1.9798,-1.9798,-1.9798,-1.9798,-1.9798,-1.9798,-1.9798,-1.9579,-1.8205,-1.7688,0.0,0.0,0.0,-1.427,-1.4678,-1.4219,-1.3656,-1.4085,-1.4492,-1.4902,-1.5381,-1.5498,-1.5518,-1.5576,-1.5537,-1.5518,-1.5576,-1.5889,-1.63,-1.6629,-1.6697,-1.6602,-1.6242,0.0,0.0,0.0,0.0,0.0,0.0,0.0,0.0,0.0,0.0,0.0,0.0,0.0,0.0,-1.541,-1.541,-1.5439,-1.5555,-1.5555,-1.5575,-1.569,-1.6098,-1.6297,-1.6297,-1.6665,-1.6416,-1.572,-1.6675,-1.7266,-1.759,-1.8053,-1.8265,-1.8315,-1.9007,-1.9317,-1.9418,-1.9775,-1.9947,-2.0059,-2.0465,-2.059,-2.059,0.0,0.0,0.0,0.0,0.0,0.0,0.0,0.0,0.0,0.0,0.0,-2.0372,0.0,0.0,0.0,0.0,0.0,0.0,0.0,0.0,0.0,-2.3595,-2.3595,-2.3595,-2.3595,-2.3268,-2.3113,-2.3113,-2.1819,-2.1495,-2.2023,-2.1159,-2.0742,-2.0727,-2.0453,-2.0314,-2.0289,-1.9936,-1.9798,-1.9798,-1.9798,-1.9798,-1.9798,-1.9798,-1.9798,-1.9798,-1.9798,-1.9798,-1.9579,-1.8097,-1.7605,-1.733,-1.5853,0.0,0.0,0.0,-1.3818,-1.3242,-1.3636,-1.4268,-1.4834,-1.501,-1.5234,-1.541,-1.541,-1.541,-1.541,-1.541,-1.5566,-1.5762,-1.5927,-1.5966,-1.5898,0.0,0.0,0.0,0.0,0.0,0.0,0.0,0.0,0.0,0.0,0.0,0.0,0.0,0.0,-1.541,-1.541,-1.541,-1.541,-1.541,-1.541,-1.541,-1.541,-1.5596,-1.5693,-1.5703,-1.6143,-1.6025,-1.543,-1.6064,-1.6424,-1.6608,-1.683,-1.6941,-1.6951,-1.7075,-1.7265,-1.7516,-1.7685,-1.7905,-1.8155,-1.8624,-1.8802,-1.8833,0.0,0.0,0.0,0.0,0.0,0.0,0.0,0.0,0.0,0.0,0.0,0.0,0.0,0.0,0.0,0.0,0.0,0.0,0.0,0.0,0.0,-2.3595,-2.3595,-2.3595,-2.3595,-2.3009,-2.2694,-2.2694,-2.1417,-2.114,-2.1786,-2.1176,-2.127,-2.1882,-2.1207,-2.0893,-2.0867,-2.0289,-2.0024,-2.0012,-1.9861,-1.9798,-1.9798,-1.9798,-1.9798,-1.9798,-1.9798,-1.9798,-1.9579,-1.8097,-1.7605,-1.733,-1.5853,-1.4796,0.0,0.0,0.0,-1.3023,-1.3525,-1.4131,-1.4678,-1.4893,-1.5176,-1.541,-1.541,-1.541,-1.541,-1.541,-1.541,-1.541,-1.541,-1.541,-1.541,0.0,0.0,0.0,0.0,0.0,0.0,0.0,0.0,0.0,0.0,0.0,0.0,0.0,0.0,-1.541,-1.541,-1.541,-1.541,-1.541,-1.541,-1.541,-1.541,-1.5527,-1.5576,-1.5586,-1.5938,-1.586,-1.542,-1.5752,-1.5928,-1.5928,-1.5928,-1.5928,-1.5899,-1.5547,-1.5605,-1.5938,-1.6046,-1.6338,-1.6755,-1.7227,-1.7451,-1.7588,0.0,0.0,0.0,0.0,0.0,0.0,0.0,0.0,0.0,0.0,0.0,0.0,-2.1513,-2.1722,-2.2243,-2.3447,-2.358,-2.3595,-2.3595,-2.3595,-2.3595,-2.3595,-2.3595,0.0,-2.3595,-2.3009,-2.2694,-2.2694,-2.1417,-2.1325,-2.235,-2.1735,-2.202,-2.297,-2.192,-2.1443,-2.1405,-2.088,-2.0641,-2.0591,-2.0024,-1.9798,-1.9798,-1.9798,-1.9798,-1.9798,-1.9798,-1.9798,-1.9579,-1.8097,-1.7605,-1.733,-1.5853,-1.4796,-1.4104,0.0,0.0,0.0,-1.3851,-1.4104,-1.4328,-1.5176,-1.5391,-1.541,-1.541,-1.541,-1.541,-1.541,-1.541,-1.541,-1.541,-1.541,-1.541,0.0,0.0,0.0,0.0,0.0,0.0,0.0,0.0,0.0,0.0,0.0,0.0,0.0,0.0,-1.541,-1.541,-1.541,-1.541,-1.541,-1.541,-1.541,-1.541,-1.585,-1.6056,-1.6056,-1.6085,-1.586,-1.541,-1.5439,-1.5449,-1.5449,-1.5449,-1.5449,-1.5439,-1.542,-1.542,-1.5488,-1.5938,-1.6338,-1.6755,-1.7227,-1.7637,-1.7978,0.0,0.0,0.0,0.0,0.0,0.0,0.0,0.0,0.0,0.0,0.0,0.0,0.0,-2.1476,-2.187,-2.2349,-2.277,-2.3201,-2.3573,-2.3246,-2.3201,-2.3573,-2.2809,-2.2583,-2.3009,-2.2011,-2.1489,-2.1489,-2.0584,-2.0553,-2.1293,-2.1089,-2.1543,-2.2556,-2.2196,-2.182,-2.1455,-2.093,-2.0478,-2.0087,-1.9886,-1.9798,-1.9798,-1.9798,-1.9798,-1.9747,-1.9254,-1.9397,-1.9579,-1.8097,-1.7605,-1.744,-1.6425,-1.5405,-1.4443,-1.3896,-1.333,-1.3032,-1.3574,-1.3704,-1.3909,-1.4795,-1.501,-1.5078,-1.5352,-1.541,-1.541,-1.541,-1.541,-1.541,-1.541,-1.541,-1.541,0.0,0.0,0.0,0.0,0.0,0.0,0.0,0.0,0.0,0.0,0.0,0.0,0.0,0.0,0.0,-1.541,-1.541,-1.541,-1.541,-1.541,-1.541,-1.541,-1.5566,-1.5644,-1.5644,-1.5644,-1.5566,-1.541,-1.541,-1.541,-1.541,-1.541,-1.541,-1.541,-1.541,-1.541,-1.5459,-1.5919,-1.6193,-1.6387,-1.7119,-1.748,-1.7646,0.0,0.0,0.0,0.0,0.0,0.0,0.0,0.0,-1.9423,-1.9423,0.0,0.0,0.0,0.0,-2.1472,-2.1673,-2.21,-2.2529,-2.2935,-2.2597,-2.2552,-2.2935,-2.2156,-2.1899,-2.2346,-2.1345,-2.0795,-2.0795,-2.0131,-2.01,-2.0691,-2.088,-2.1358,-2.2046,-2.2234,-2.2108,-2.1732,-2.1207,-2.0641,-2.0075,-1.9874,-1.9798,-1.9798,-1.9798,-1.9798,-1.9747,-1.9254,-1.9228,-1.9228,-1.8004,-1.744,-1.7118,-1.6368,-1.5515,-1.4648,-1.3926,-1.3516,-1.3398,-1.3818,-1.3936,-1.4102,-1.4814,-1.5,-1.5068,-1.5352,-1.541,-1.541,-1.541,-1.541,-1.541,-1.541,-1.5167,-1.4991,0.0,0.0,0.0,0.0,0.0,0.0,0.0,0.0,0.0,0.0,0.0,0.0,0.0,0.0,0.0,-1.4733,-1.4743,-1.4743,-1.4743,-1.4634,-1.4717,-1.4991,-1.5163,-1.52,-1.5171,-1.52,-1.5051,-1.4733,-1.4634,-1.4599,-1.4599,-1.4599,-1.4903,-1.5381,-1.5108,-1.4991,-1.5,-1.5144,-1.5294,-1.556,-1.6519,-1.7011,-1.7207,0.0,0.0,0.0,0.0,0.0,0.0,0.0,0.0,-1.8688,-1.8661,0.0,0.0,0.0,0.0,0.0,-2.1615,-2.1673,-2.1673,-2.1697,-2.1673,-2.1673,-2.1697,-2.1687,-2.1677,-2.17,-2.1115,-2.081,-2.081,-2.0156,-2.0138,-2.0704,-2.1257,-2.1493,-2.1506,-2.2046,-2.2284,-2.2234,-2.1694,-2.1169,-2.0616,-2.0024,-1.9798,-1.9798,-1.9798,-1.9798,-1.9798,-1.9773,-1.9319,-1.8581,-1.7852,-1.7118,-1.6379,-1.5633,-1.5117,-1.4697,-1.425,-1.4114,-1.4202,0.0,0.0,0.0,-1.5303,-1.5391,-1.5381,-1.5371,-1.54,-1.54,-1.541,-1.541,-1.541,-1.541,-1.4746,-1.4174,0.0,0.0,0.0,0.0,0.0,0.0,0.0,0.0,0.0,0.0,0.0,0.0,0.0,0.0,-1.3129,-1.341,-1.3395,-1.3395,-1.3395,-1.3161,-1.3398,-1.4181,-1.4628,-1.4795,-1.4671,-1.4795,-1.435,-1.3418,-1.312,-1.2995,-1.3025,-1.3009,-1.3885,-1.5264,-1.4481,-1.4154,-1.4148,-1.3632,-1.3712,-1.4247,-1.5437,-1.6165,-1.6706,0.0,0.0,0.0,0.0,0.0,-1.6782,-1.6782,-1.7868,-1.8501,0.0,0.0,0.0,-1.9321,-1.9747,-2.0346,-2.1004,-2.1053,-2.1221,-2.1673,-2.1293,-2.1245,-2.1673,-2.1254,-2.1185,-2.1605,-2.103,-2.073,-2.073,-2.0532,-2.0541,-2.0704,-2.1257,-2.1493,-2.1493,-2.1644,-2.1493,-2.1131,-2.0981,-2.0591,-2.0024,-1.9861,-1.9798,-1.9798,-1.9798,-1.9798,-1.9721,-1.9202,-1.8874,-1.8581,-1.7852,-1.7118,-1.6379,-1.5633,-1.5117,-1.4756,-1.4639,-1.4385,-1.4202,-1.4668,0.0,0.0,0.0,0.0,0.0,-1.5273,-1.5176,-1.5049,-1.5352,-1.541,-1.541,-1.541,-1.4746,-1.4004,0.0,0.0,0.0,0.0,0.0,0.0,0.0,0.0,0.0,0.0,0.0,0.0,0.0,-1.3188,-1.3672,-1.377,-1.377,-1.377,-1.377,-1.368,-1.3752,-1.3978,-1.4111,-1.4161,-1.4128,-1.4161,-1.4031,-1.3762,-1.3427,-1.3303,-1.3286,-1.3085,-1.3243,-1.3644,-1.3425,-1.3464,-1.3641,-1.3825,-1.409,-1.4477,-1.5152,-1.5494,-1.5623,0.0,0.0,0.0,0.0,0.0,-1.6321,-1.6321,-1.7326,-1.784,0.0,0.0,0.0,-1.8715,-1.9277,-1.9854,-2.0346,-2.0371,-2.0638,-2.1237,-2.0963,-2.1016,-2.1596,-2.1232,-2.1181,-2.1546,-2.098,-2.0691,-2.0691,-2.0691,-2.0691,-2.0717,-2.1496,-2.1581,-2.1182,-2.1393,-2.1069,-2.0327,-2.0327,-2.0112,-1.9823,-2.0062,-2.0189,-2.0189,-2.0189,-2.0189,-2.0099,-1.9393,-1.8953,-1.8581,-1.7852,-1.6922,-1.5979,-1.5555,-1.5244,-1.5049,-1.5049,-1.4863,-1.4689,-1.498,-1.4863,-1.4757,-1.5254,0.0,0.0,-1.5264,-1.5088,-1.4882,0.0,-1.4981,-1.476,-1.4497,-1.391,-1.3322,0.0,0.0,0.0,0.0,0.0,0.0,0.0,0.0,0.0,0.0,0.0,0.0,-1.1553,-1.2239,-1.281,-1.3048,-1.307,-1.307,-1.307,-1.2927,-1.3027,-1.3402,-1.3469,-1.3469,-1.3402,-1.3319,-1.3084,-1.2674,-1.2381,-1.2222,-1.2215,-1.208,-1.2049,-1.2163,-1.2026,-1.2343,-1.2916,-1.3117,-1.3286,-1.3526,-1.4289,-1.4557,-1.4629,0.0,0.0,-1.6395,-1.6206,-1.6124,-1.6114,-1.6163,-1.6748,-1.7028,0.0,-1.7158,-1.7878,-1.8595,-1.9034,-1.9376,-1.9611,-1.9668,-1.9932,-2.0519,-2.0638,-2.0918,-2.1408,-2.1546,-2.1581,-2.1581,-2.1069,-2.0817,-2.088,-2.0817,-2.0817,-2.0893,-2.1845,-2.1757,-2.0805,-2.1232,-2.0803,-1.9798,-1.9798,-1.9798,-1.9849,-2.039,-2.0591,-2.0591,-2.0591,-2.0591,-2.0528,-1.9987,-1.9333,-1.8581,-1.7743,-1.6557,-1.541,-1.541,-1.541,-1.541,-1.541,-1.541,-1.541,-1.541,-1.541,-1.541,-1.541,-1.5381,0.0,-1.54,-1.5049,-1.4727,0.0,-1.4379,-1.3809,-1.3195,-1.2618,-1.2285,0.0,0.0,0.0,0.0,0.0,0.0,0.0,0.0,0.0,0.0,-1.0646,-1.0687,-1.0687,-1.0955,-1.1363,-1.1926,-1.1953,-1.1953,-1.1953,-1.1663,-1.1861,-1.2655,-1.2784,-1.2784,-1.2648,-1.245,-1.1901,-1.1082,-1.0787,-1.066,-1.0687,-1.0653,-1.0807,-1.1022,-1.0834,-1.1295,-1.216,-1.1929,-1.1899,-1.2051,-1.3136,-1.3528,-1.3673,0.0,-1.6168,-1.6256,-1.6555,-1.6339,-1.6212,-1.6512,-1.6921,-1.7059,-1.6714,-1.7297,-1.7911,-1.8328,-1.8459,-1.8538,-1.8605,-1.8802,-1.9128,-1.9614,-2.0316,-2.0742,-2.0842,-2.1681,-2.2146,-2.2146,-2.1606,-2.1543,-2.1995,-2.1543,-2.1556,-2.1995,-2.2209,-2.1958,-2.1345,-2.1006,-2.0465,-1.9798,-1.9798,-1.9798,-1.9811,-1.9924,-1.9974,-1.9974,-1.9974,-1.9974,-1.9962,-1.9849,-1.9333,-1.8501,-1.7174,-1.6122,-1.541,-1.541,-1.541,-1.541,-1.541,-1.541,-1.541,-1.541,-1.541,-1.541,-1.541,-1.5156,0.0,-1.5332,-1.4786,-1.4328,0.0,-1.3986,-1.325,-1.3114,-1.2053,-1.1261,0.0,0.0,0.0,0.0,0.0,0.0,0.0,0.0,0.0,0.0,-1.0982,-1.1256,-1.1256,-1.175,-1.2098,-1.2211,-1.2218,-1.2218,-1.2218,-1.2158,-1.2204,-1.2385,-1.2415,-1.2415,-1.2378,-1.212,-1.1907,-1.1718,-1.1182,-1.1035,-1.1243,-1.1009,-1.1069,-1.1356,-1.1578,-1.1783,-1.1921,-1.1626,-1.1804,-1.2261,-1.2498,-1.2556,-1.2592,-1.6134,-1.6271,-1.6533,-1.6973,-1.6875,-1.6829,-1.7021,-1.7173,-1.7159,-1.676,-1.7223,-1.7729,-1.801,-1.8261,-1.8387,-1.8313,-1.843,-1.8647,-1.894,-1.9356,-1.9726,-1.9988,-2.0723,-2.1111,-2.1111,-2.0819,-2.076,-2.1009,-2.0906,-2.0998,-2.1255,-2.1683,-2.1425,-2.0573,-2.0642,-2.0152,-1.9281,-1.9631,-1.9798,-1.9823,-2.0138,-2.0264,-2.0264,-2.0264,-2.0264,-2.0214,-1.9911,-1.9097,-1.8031,-1.7302,-1.6301,-1.541,-1.541,-1.541,-1.541,-1.541,-1.541,-1.541,-1.541,-1.541,-1.541,-1.541,-1.5254,0.0,0.0,-1.4912,-1.4521,-1.4736,-1.3743,-1.2707,-1.235,-1.1483,-1.0731,0.0,0.0,0.0,0.0,0.0,0.0,0.0,0.0,0.0,0.0,-1.0854,-1.1116,-1.1369,-1.1662,-1.1991,-1.2285,-1.2305,-1.2305,-1.2305,-1.2305,-1.2305,-1.2305,-1.2158,-1.2084,-1.2084,-1.179,-1.165,-1.1637,-1.1343,-1.1255,-1.1382,-1.1269,-1.1376,-1.165,-1.165,-1.1817,-1.2071,-1.1917,-1.1951,-1.2104,-1.2245,-1.2305,-1.2305,-1.6437,-1.6611,-1.6992,-1.7432,-1.7432,-1.7445,-1.749,-1.7432,-1.7256,-1.6872,-1.7236,-1.7553,-1.7708,-1.8059,-1.8249,-1.8154,-1.809,-1.8169,-1.8356,-1.8451,-1.869,-1.9114,-1.9569,-1.9812,-1.9902,-1.9761,-1.9733,-1.9881,-2.008,-2.0245,-2.0369,-2.1041,-2.0804,-1.9839,-2.0151,-1.9789,-1.8927,-1.9397,-1.9669,-1.9849,-2.0339,-2.0528,-2.0528,-2.0528,-2.0528,-2.0439,-1.9805,-1.8741,-1.7578,-1.744,-1.6489,-1.541,-1.541,-1.541,-1.541,-1.541,-1.541,-1.541,-1.541,-1.541,0.0,0.0,0.0,-1.541,0.0,0.0,0.0,-1.4813,-1.3504,-1.2228,-1.1679,-1.0942,0.0,0.0,0.0,0.0,0.0,0.0,0.0,0.0,0.0,0.0,0.0,-1.064,-1.0894,-1.1349,-1.1442,-1.1717,-1.2191,-1.2271,-1.2305,-1.2305,-1.2305,-1.2305,-1.2305,-1.2107,-1.1986,-1.1986,-1.1657,-1.151,-1.1475,-1.1415,-1.1456,-1.151,-1.151,-1.1677,-1.1973,-1.169,-1.1844,-1.2218,-1.2218,-1.2111,-1.202,-1.2218,-1.2305,-1.2305,-1.7314,-1.7275,-1.7441,-1.7871,-1.7627,-1.751,-1.7881,-1.7627,-1.7363,-1.7314,-1.7676,-1.7807,-1.7475,-1.7475,-1.753,-1.7496,-1.7389,-1.7469,-1.7869,-1.828,-1.8532,-1.8588,-1.9091,-1.9535,-1.9902,-1.9425,-1.9596,-2.0501,-2.0296,-2.0434,-2.0902,-2.0832,-2.07,-2.0532,-1.9412,-1.921,-1.9643,-1.9071,-1.9202,-1.9811,-1.9874,-1.9899,-1.9899,-1.9899,-1.9899,-1.9809,-1.9095,-1.8313,-1.7495,0.0,-1.6093,-1.541,0.0,-1.541,-1.541,-1.541,0.0,0.0,0.0,0.0,0.0,0.0,-1.541,0.0,0.0,0.0,-1.4813,-1.4813,0.0,-1.1947,-1.1864,0.0,0.0,0.0,0.0,0.0,0.0,0.0,0.0,0.0,0.0,0.0,0.0,0.0,-1.1082,-1.1369,-1.167,-1.1879,-1.1953,-1.2164,-1.2305,-1.2305,-1.2305,-1.2305,-1.2305,-1.2271,-1.2251,-1.2245,-1.1957,-1.1852,-1.1846,-1.155,-1.157,-1.1852,-1.1852,-1.1984,-1.2251,-1.2218,-1.2091,-1.1953,-1.1953,-1.2058,-1.2258,-1.2291,-1.2305,-1.2305,-1.709,-1.7402,-1.7725,-1.7656,-1.7705,-1.7803,-1.7978,-1.7861,-1.7744,-1.7744,-1.79,-1.7939,-1.7764,-1.7744,-1.7646,-1.7402,-1.7092,-1.6869,-1.6809,-1.6732,-1.6707,-1.6707,-1.7385,-1.777,-1.7706,-1.7968,-1.8207,-1.8353,-1.8406,-1.8552,-1.8799,-1.8876,-1.8666,-1.8253,-1.8107,-1.8015,-1.7934,-1.8474,-1.8874,-1.9202,-1.9643,-1.9527,-1.9202,-1.9643,-1.9527,-1.9123,-1.8821,-1.795,-1.6922,0.0,-1.6007,0.0,0.0,0.0,0.0,-1.541,0.0,0.0,0.0,0.0,0.0,0.0,0.0,0.0,-1.541,0.0,-1.5032,0.0,0.0,0.0,0.0,0.0,0.0,0.0,-0.9715,0.0,0.0,0.0,0.0,0.0,0.0,0.0,0.0,0.0,0.0,0.0,0.0,-1.1436,-1.1603,-1.1891,-1.2087,-1.2087,-1.2218,-1.2305,-1.2305,-1.2305,-1.2305,-1.2305,-1.2178,-1.2124,-1.2118,-1.1991,-1.2004,-1.2124,-1.2124,-1.2191,-1.2305,-1.2305,-1.2231,-1.2124,-1.2124,-1.2091,-1.2107,-1.2238,-1.2305,-1.2305,-1.697,-1.7412,-1.7744,-1.7432,-1.7734,-1.8008,-1.8008,-1.8008,-1.8008,-1.8008,-1.8008,-1.8008,-1.8008,-1.7831,-1.7588,-1.7202,-1.6614,-1.6039,-1.557,-1.533,-1.5222,-1.5251,-1.6079,-1.6455,-1.6281,-1.6875,-1.7051,-1.6697,-1.7032,-1.7183,-1.7202,-1.7476,-1.7302,-1.6821,-1.7146,-1.7107,-1.6866,-1.7743,-1.8221,-1.8447,-1.8992,-1.8874,-1.8474,-1.8992,-1.8847,-1.8367,-1.8178,-1.7413,-1.6464,-1.6265,-1.5835,0.0,-1.541,0.0,-1.541,0.0,0.0,0.0,-1.5439,0.0,0.0,0.0,0.0,0.0,0.0,0.0,0.0,0.0,0.0,0.0,0.0,0.0,-1.002,-0.9733,0.0,-0.9626,0.0,0.0,0.0,0.0,0.0,0.0,0.0,0.0,0.0,0.0,-1.0949,0.0,-1.1296,-1.1663,-1.1906,-1.1906,-1.2151,-1.2305,-1.2305,-1.2305,-1.2305,-1.2305,-1.2305,-1.2305,-1.2305,-1.2305,-1.2305,-1.2305,-1.2305,-1.2305,-1.2305,-1.2305,-1.215,-1.1885,-1.1885,-1.161,-1.1245,-1.1734,-1.1885,-1.1848,-1.7451,-1.7383,-1.7435,-1.7383,-1.7734,-1.8008,-1.8008,-1.8008,-1.8008,-1.8008,-1.8008,-1.8008,-1.8008,-1.7406,-1.6929,-1.6655,-1.5659,-1.479,-1.4214,-1.4493,-1.479,-1.4914,-1.5689,-1.631,-1.6668,-1.6707,-1.6716,-1.6697,-1.7032,-1.7183,-1.7202,-1.7476,-1.7578,-1.7523,-1.6838,-1.6922,-1.7523,-1.6838,-1.6978,-1.7633,-1.766,-1.766,-1.7633,0.0,-1.766,-1.755,-1.6838,0.0,0.0,-1.569,-1.541,0.0,0.0,0.0,0.0,0.0,0.0,0.0,0.0,0.0,0.0,-1.5518,0.0,0.0,0.0,0.0,-1.5958,0.0,0.0,0.0,-1.3019,-1.1389,-1.002,-0.9733,-0.9715,0.0,0.0,0.0,0.0,0.0,0.0,0.0,0.0,0.0,0.0,-1.0606,-1.0835,-1.0995,-1.1009,-1.1591,-1.1906,-1.1906,-1.2151,-1.2305,-1.2305,-1.2305,-1.2305,-1.2305,-1.2305,-1.2305,-1.2305,-1.2305,-1.2305,-1.2305,-1.2305,-1.2305,-1.2305,-1.2305,-1.1731,-1.0864,-1.0864,-1.026,-0.9513,-1.0484,-1.0864,-1.0708,-1.695,-1.7187,-1.7383,-1.7383,-1.7734,-1.7794,-1.7182,-1.707,-1.6976,-1.6689,-1.6685,-1.6744,-1.6995,-1.6801,-1.6472,-1.5967,-1.5367,-1.4817,-1.4402,-1.4238,-1.4192,-1.4233,-1.5343,-1.579,-1.537,-1.6258,-1.6414,-1.5829,-1.594,-1.6007,-1.6007,-1.6097,-1.613,-1.613,-1.5882,-1.5911,-1.6159,-1.6397,-1.6652,-1.6866,-1.6866,-1.6866,-1.6922,0.0,0.0,-1.6838,-1.6595,-1.6179,0.0,-1.5468,-1.541,-1.541,-1.541,-1.541,-1.541,-1.541,-1.5723,0.0,0.0,0.0,-1.6406,-1.5987,0.0,0.0,0.0,0.0,0.0,0.0,0.0,0.0,0.0,-1.1234,-1.0345,-1.002,-0.9813,-0.9546,0.0,0.0,0.0,0.0,0.0,0.0,0.0,0.0,0.0,-1.0593,-1.068,-1.074,-1.074,-1.1109,-1.1376,-1.157,-1.1864,-1.2104,-1.2298,-1.2305,-1.2305,-1.2305,-1.2305,-1.2305,-1.2268,-1.162,-1.1316,-1.1279,-1.0608,-1.0314,-1.0314,-1.0314,-1.0121,-0.982,-0.982,-0.9593,-0.9334,-0.9669,-0.982,-0.9744,-1.6735,-1.6797,-1.6977,-1.7145,-1.7216,-1.7116,-1.6688,-1.6395,-1.616,-1.5897,-1.5956,-1.6089,-1.6286,-1.611,-1.5755,-1.5136,-1.4661,-1.4095,-1.3454,-1.3528,-1.3595,-1.3535,-1.4723,-1.5331,-1.5136,-1.5969,-1.616,-1.5644,-1.5644,-1.5566,-1.541,-1.541,-1.541,-1.541,-1.541,-1.541,-1.5439,-1.5921,-1.6122,-1.6122,-1.6122,-1.6122,0.0,0.0,-1.6528,-1.6122,0.0,-1.5806,-1.541,-1.541,-1.541,-1.541,-1.541,-1.5518,-1.5644,-1.5644,-1.6064,-1.6535,-1.6378,-1.635,0.0,-1.592,-1.5557,0.0,-1.533,0.0,0.0,0.0,0.0,0.0,0.0,-1.1139,-1.0492,-1.0167,-0.996,-0.9699,0.0,-0.9377,0.0,0.0,0.0,-1.0347,0.0,0.0,-1.0593,-1.0593,-1.0593,-1.0593,0.0,0.0,-1.1229,-1.1382,-1.1817,-1.1959,-1.1768,-1.1768,-1.1583,-1.1211,-1.1211,-1.1211,-1.1211,-1.0571,-1.0265,-1.0228,-0.9599,-0.9296,-0.9296,-0.9296,-0.9074,-0.8765,-0.8765,-0.8542,-0.8275,-0.8618,-0.8542,-0.8237,-1.6775,-1.6276,-1.6162,-1.6558,-1.6201,-1.599,-1.64,-1.5929,-1.5524,-1.5483,-1.5724,-1.5904,-1.592,-1.5409,-1.4828,-1.4207,-1.3564,-1.2699,-1.1509,-1.2444,-1.2986,-1.2852,-1.3868,-1.484,-1.5735,-1.5853,-1.5951,-1.6024,-1.6095,-1.587,-1.541,-1.541,-1.541,-1.541,-1.541,-1.541,-1.541,-1.541,-1.541,-1.541,-1.541,-1.541,-1.541,-1.541,0.0,-1.541,-1.541,-1.541,-1.541,-1.541,-1.541,-1.541,-1.541,-1.5713,-1.6095,-1.6095,-1.6721,-1.7295,-1.6811,-1.6318,-1.5833,-1.5382,0.0,0.0,0.0,0.0,-1.4269,0.0,0.0,0.0,0.0,0.0,-1.0499,-1.018,-1.0097,-0.9884,-0.9317,-0.9244,-0.9364,0.0,0.0,-1.0593,-1.0593,-1.0593,-1.0593,-1.0593,-1.0593,-1.0593,0.0,0.0,0.0,-1.1389,-1.1912,-1.1755,-1.082,-1.0746,-1.0265,-0.9296,-0.9296,-0.9296,-0.9296,-0.9258,-0.9221,-0.9221,-0.9183,-0.9145,-0.9145,-0.9145,-0.858,-0.7744,-0.7744,-0.7138,-0.6416,-0.7365,-0.7138,-0.63,-1.6573,-1.5687,-1.5044,-1.5515,-1.5479,-1.5153,-1.4542,-1.4493,-1.4448,-1.4169,-1.4388,-1.4662,-1.4846,-1.458,-1.409,-1.3526,-1.3108,-1.2677,-1.2111,-1.2158,-1.2184,-1.2144,-1.3075,-1.3588,-1.3535,-1.5085,-1.5617,-1.5056,-1.575,-1.587,-1.541,-1.541,-1.541,-1.541,-1.541,-1.541,-1.541,-1.541,-1.541,-1.541,-1.541,-1.541,0.0,0.0,-1.541,-1.541,-1.541,-1.541,-1.541,-1.541,-1.541,-1.541,-1.541,-1.5713,-1.6095,-1.6095,-1.6721,-1.7212,-1.6327,-1.6251,-1.6143,-1.4976,-1.4512,-1.4351,0.0,0.0,0.0,0.0,0.0,0.0,0.0,0.0,-1.0566,-1.0492,-1.0261,-0.9987,-0.9619,-0.976,0.0,-1.0332,0.0,0.0,-1.0593,-1.0593,-1.0593,-1.0593,-1.0593,-1.0593,0.0,0.0,0.0,-1.1382,-1.1056,-1.0857,-1.0783,-1.0045,-0.9556,-0.9296,-0.9296,-0.9296,-0.9263,-0.8542,-0.8199,-0.8122,-0.7403,-0.7061,-0.7061,-0.7061,-0.6911,-0.6683,-0.6683,-0.6528,-0.6338,-0.6606,-0.6528,-0.63,-1.6027,-1.4673,-1.3575,-1.3727,-1.3977,0.0,-1.3925,-1.3716,0.0,-1.3427,-1.3673,-1.3908,-1.3948,-1.3915,-1.3654,-1.3099,-1.2884,-1.2549,-1.1957,-1.1891,-1.1792,-1.1531,-1.2116,-1.2557,-1.2788,-1.3987,-1.4665,-1.4777,-1.5312,-1.553,-1.541,-1.541,-1.541,-1.541,-1.541,-1.541,-1.541,-1.541,-1.541,-1.541,-1.541,0.0,0.0,-1.541,-1.541,-1.541,-1.541,-1.541,-1.541,-1.541,-1.5537,-1.5693,-1.5693,-1.6163,-1.6672,-1.6672,-1.684,-1.6947,-1.6369,-1.5765,-1.5141,-1.4347,-1.3842,-1.3525,-1.3525,-1.3354,-1.3234,0.0,0.0,0.0,0.0,0.0,0.0,-1.0801,-1.0394,-1.006,-0.9893,-1.0013,0.0,0.0,-1.0232,0.0,-1.0053,-1.0364,-1.0428,-1.0047,-1.0084,0.0,0.0,0.0,0.0,-1.0723,-1.0271,-0.9852,-0.9508,-0.9005,-0.8471,-0.7974,-0.7974,-0.7974,-0.797,-0.7403,-0.7134,-0.7099,-0.6528,-0.63,-0.63,-0.63,-0.63,-0.63,-0.63,-0.63,-0.63,-0.63,-0.63,-0.63,-1.5021,-1.3448,-1.2225,-1.2007,-1.2415,0.0,0.0,-1.3408,0.0,-1.3233,0.0,-1.3507,-1.3293,-1.3387,-1.33,-1.2777,-1.269,-1.2328,-1.1442,-1.1637,-1.1558,-1.1015,-1.1236,-1.177,-1.2613,-1.2818,-1.3426,-1.4551,-1.4768,-1.5037,-1.5264,-1.5352,-1.541,-1.541,-1.541,-1.541,-1.5391,-1.5469,-1.5498,-1.5498,-1.5498,-1.5498,-1.5488,-1.543,-1.541,-1.541,-1.541,-1.541,-1.541,-1.541,-1.5703,-1.6095,-1.6095,-1.6597,-1.7209,-1.7209,-1.6831,-1.6393,-1.6245,-1.4977,-1.3673,-1.3564,-1.2915,-1.2305,-1.2305,-1.2305,-1.2231,-1.2013,-1.1933,0.0,0.0,0.0,0.0,-1.1089,-1.0621,0.0,0.0,0.0,-1.0043,-1.0043,0.0,0.0,0.0,-0.9835,-0.9951,-0.9177,-0.9238,0.0,0.0,0.0,0.0,0.0,-0.9498,0.0,-0.7816,0.0,-0.7285,-0.6327,-0.631,-0.63,-0.63,-0.63,-0.63,-0.63,-0.63,-0.63,-0.63,-0.63,-0.63,-0.63,-0.63,-0.63,-0.63,-0.63,-0.63,-0.63,-1.3164,-1.2519,-1.2285,-1.2231,-1.2549,-1.2948,-1.3321,-1.3407,-1.3467,-1.352,-1.3573,-1.3586,-1.3533,-1.3173,-1.2797,-1.2412,-1.2194,0.0,0.0,0.0,0.0,-1.0995,-1.1042,-1.1135,-1.1334,-1.2372,-1.2841,-1.2668,-1.4167,-1.4723,-1.4421,-1.5079,-1.541,-1.541,-1.541,-1.541,-1.5439,-1.5791,0.0,-1.5977,-1.5977,-1.5977,-1.5938,-1.5547,-1.541,-1.541,-1.541,-1.541,-1.541,-1.541,-1.5703,-1.6095,-1.6095,-1.6126,-1.6172,-1.6172,-1.5807,-1.5261,-1.4414,-1.3954,-1.3528,-1.2732,-1.2409,-1.2305,-1.2305,-1.2305,-1.2285,-1.2238,-1.2037,-1.1893,-1.1839,0.0,0.0,0.0,0.0,0.0,0.0,0.0,0.0,-0.9784,0.0,-0.8449,0.0,-0.8603,-0.8496,-0.8236,-0.8257,0.0,0.0,0.0,0.0,0.0,0.0,0.0,0.0,0.0,0.0,-0.6474,-0.6358,-0.63,-0.63,-0.63,-0.63,-0.63,-0.63,-0.63,-0.63,-0.63,-0.63,-0.63,-0.63,-0.63,-0.63,-0.63,-0.63,-0.63,-1.3527,-1.2732,-1.2398,-1.2719,-1.2893,0.0,0.0,-1.3513,0.0,-1.36,-1.3473,-1.336,-1.3193,-1.2779,-1.2435,-1.2104,-1.181,-1.1516,-1.1223,-1.1069,-1.0922,-1.0807,-1.0801,-1.0801,-1.0801,-1.139,-1.1797,-1.2004,-1.2875,-1.3381,-1.3606,-1.4392,-1.4776,-1.4805,-1.5196,-1.541,0.0,0.0,0.0,-1.6075,-1.584,-1.5889,-1.6046,-1.5576,-1.541,-1.5352,-1.4932,-1.4887,-1.5044,-1.5044,-1.5345,-1.5657,-1.5349,-1.5402,-1.5549,-1.5549,-1.5023,-1.4314,-1.3818,-1.3346,-1.2879,-1.2409,-1.2305,-1.2305,-1.2305,-1.2305,-1.2305,-1.2305,-1.2191,-1.2091,-1.2091,-1.185,0.0,0.0,0.0,0.0,0.0,0.0,-0.9587,0.0,-0.8162,0.0,0.0,0.0,0.0,0.0,0.0,0.0,0.0,0.0,0.0,0.0,0.0,0.0,0.0,0.0,0.0,-0.6402,-0.6334,-0.6337,-0.6409,-0.6334,-0.634,-0.6405,-0.633,-0.63,-0.63,-0.63,-0.63,-0.63,-0.63,-0.63,-0.63,-0.63,-0.63,-0.63,-1.4185,-1.3174,-1.2645,-1.3126,-1.3213,0.0,-1.3473,-1.3507,-1.3533,-1.3593,-1.3333,-1.3019,-1.2811,-1.2462,-1.2091,-1.1839,-1.1503,-1.1209,-1.0922,-1.0902,-1.0827,-1.06,-1.0593,-1.0593,-1.0593,-1.0593,-1.0926,0.0,0.0,-1.2104,-1.2757,-1.3575,-1.3936,-1.3965,0.0,0.0,0.0,0.0,-1.5638,-1.5908,-1.5571,-1.5518,-1.5633,-1.5092,-1.4903,-1.4824,-1.4243,-1.4202,-1.4421,-1.4366,-1.4704,-1.5075,-1.4629,-1.4692,-1.4879,-1.4879,-1.4171,-1.3382,-1.3382,-1.2842,-1.2305,-1.2305,-1.2305,-1.2305,-1.2305,-1.2305,-1.2305,-1.2305,-1.2305,-1.2305,-1.2305,-1.2118,0.0,0.0,0.0,0.0,0.0,0.0,0.0,0.0,0.0,0.0,-0.6485,0.0,0.0,0.0,0.0,-0.6634,-0.6755,-0.6225,0.0,0.0,0.0,0.0,-0.6344,0.0,-0.6443,0.0,-0.6361,-0.6405,-0.6508,-0.6395,-0.6388,-0.646,-0.6351,-0.6317,-0.634,-0.6313,-0.6317,-0.634,-0.6313,-0.63,-0.63,-0.63,-0.63,-0.63,-1.3657,-1.3186,0.0,0.0,0.0,0.0,-1.3247,-1.3253,-1.3307,-1.3567,-1.3146,-1.2817,-1.279,-1.2281,-1.1826,-1.149,-1.1202,-1.0909,-1.0653,-1.0633,-1.062,-1.0593,-1.0593,-1.0593,-1.0593,-1.0593,-1.0656,0.0,0.0,-1.1826,-1.1927,-1.2726,-1.31,0.0,0.0,0.0,0.0,-1.5159,-1.5455,-1.5396,-1.5455,-1.5006,-1.4219,-1.349,-1.3221,-1.3263,-1.3403,-1.3512,-1.3476,-1.3301,-1.3834,-1.4569,-1.4533,-1.421,-1.3846,-1.3846,-1.3164,-1.2445,-1.2445,-1.2372,-1.2305,-1.2305,-1.2305,-1.2305,-1.2305,-1.2305,-1.2305,-1.2305,-1.2305,-1.2305,-1.2305,-1.2278,-1.2265,0.0,0.0,0.0,0.0,0.0,-0.758,-0.7252,0.0,0.0,0.0,-0.5652,0.0,0.0,-0.5538,-0.5929,-0.6835,-0.6216,0.0,-0.7233,0.0,-0.6375,-0.6491,-0.6378,0.0,-0.6658,-0.6519,-0.6501,-0.6511,-0.6497,-0.6429,-0.632,-0.6306,-0.6371,-0.648,-0.6354,-0.6375,-0.648,-0.6351,-0.63,-0.63,-0.63,-0.63,-0.63,0.0,0.0,0.0,0.0,0.0,0.0,0.0,-1.3053,-1.3012,-1.3093,-1.2938,-1.2784,-1.2784,-1.2254,-1.1859,-1.1703,-1.1263,-1.0942,-1.0861,-1.0687,-1.0593,-1.0593,-1.0593,-1.0593,-1.0593,-1.0593,-1.0593,0.0,0.0,0.0,-1.1108,-1.1903,0.0,0.0,0.0,-1.3278,-1.3743,-1.4072,-1.436,-1.4574,-1.4541,-1.4446,-1.4279,-1.3745,-1.3525,-1.3485,-1.311,-1.3099,-1.3138,-1.2585,-1.2944,-1.3596,-1.3263,-1.3028,-1.2842,-1.2842,-1.2586,-1.2305,-1.2305,-1.2305,-1.2305,-1.2305,-1.2305,-1.2305,-1.2305,-1.2305,-1.2305,-1.2305,-1.2305,-1.2114,-1.1502,-1.1391,-1.1205,0.0,0.0,0.0,0.0,0.0,0.0,-0.654,0.0,-0.5881,0.0,0.0,-0.5691,-0.563,0.0,-0.5624,-0.6089,-0.593,0.0,-0.6496,0.0,-0.6368,-0.6511,-0.6457,-0.6532,-0.6702,-0.6637,-0.6658,-0.6742,-0.6651,-0.6529,-0.6426,-0.6426,-0.6412,-0.6395,-0.6515,-0.6494,-0.6388,-0.6416,-0.6426,-0.6426,-0.6426,-0.6484,-0.6525,-1.3972,0.0,-1.2705,0.0,-1.2991,-1.2857,-1.3039,-1.2851,-1.2656,-1.2656,-1.2656,-1.2656,-1.2656,-1.2208,-1.1906,-1.1906,-1.141,-1.1082,-1.1002,-1.0834,-1.068,-1.0593,-1.0593,0.0,-1.0593,-1.0593,-1.0593,-1.0593,-1.0593,0.0,0.0,0.0,0.0,0.0,-1.2546,-1.2712,-1.3195,-1.3227,-1.3459,-1.3812,-1.3753,-1.3719,-1.3692,-1.3318,-1.3153,-1.3101,-1.2648,-1.2589,-1.265,-1.2179,-1.2385,-1.2813,-1.2421,-1.2305,-1.2305,-1.2305,-1.2305,-1.2305,-1.2305,-1.2305,-1.2305,-1.2305,-1.2305,-1.2305,-1.2305,-1.2305,-1.2305,-1.2305,-1.207,-1.1657,-1.0938,-1.0565,-1.0115,0.0,0.0,0.0,0.0,0.0,0.0,0.0,-0.602,0.0,-0.5878,-0.5827,-0.58,0.0,0.0,0.0,0.0,0.0,0.0,0.0,0.0,0.0,0.0,0.0,-0.6617,-0.6766,-0.6766,-0.6824,-0.6879,-0.677,-0.6641,-0.6539,-0.6539,-0.6508,-0.6471,-0.6634,-0.6576,-0.6439,-0.6542,-0.6552,-0.6518,-0.6562,-0.6607,-0.666,-1.3581,-1.32,-1.32,-1.3213,-1.2991,-1.2784,-1.279,-1.2536,-1.2305,-1.2305,-1.2305,-1.2305,-1.2305,-1.2044,-1.1906,-1.1906,-1.1597,-1.1262,-1.1009,-1.0989,-1.0894,0.0,0.0,-1.0593,-1.0593,-1.0593,-1.0593,-1.0593,0.0,0.0,-1.06,0.0,0.0,-1.141,-1.1149,-1.1649,-1.2706,-1.2841,-1.2995,-1.312,-1.3259,-1.2734,-1.1908,-1.1571,-1.1423,-1.1463,-1.1792,-1.1906,-1.1946,-1.2204,-1.2298,-1.2298,-1.2305,-1.2305,-1.2305,-1.2305,-1.2305,-1.2305,-1.2305,-1.2305,-1.2305,-1.2305,-1.2305,-1.2305,-1.2305,-1.2305,-1.2305,-1.2305,-1.1502,-1.082,-1.0783,-1.0002,-0.9301,-0.9296,0.0,0.0,0.0,0.0,0.0,-0.6296,0.0,0.0,-0.599,-0.5891,0.0,0.0,0.0,0.0,0.0,0.0,0.0,-0.6293,-0.6436,0.0,-0.6511,-0.662,-0.6773,-0.6883,-0.6883,-0.6883,-0.6879,-0.677,-0.6698,-0.6698,-0.6698,-0.6783,-0.6866,-0.6763,-0.6698,-0.6695,-0.6698,-0.6607,-0.6528,-0.6644,-0.6698,-0.6533,-1.2698,-1.2592,-1.2592,-1.2592,-1.2512,-1.2445,-1.2445,-1.2365,-1.2305,-1.2305,-1.2305,-1.2305,-1.2305,-1.2218,-1.2164,0.0,-1.171,-1.1349,0.0,-1.0915,-1.0687,-1.0593,-1.0787,-1.0794,-1.0593,-1.0787,-1.0787,-1.0593,0.0,0.0,0.0,-1.0949,-1.1256,-1.1717,-1.1423,-1.1587,-1.2151,-1.2214,-1.2235,-1.231,-1.2547,-1.2449,-1.2151,-1.2058,-1.2024,-1.2037,-1.2131,-1.2164,-1.2178,-1.2271,-1.2305,-1.2305,-1.2305,-1.2305,-1.2305,-1.2305,-1.2305,-1.2305,-1.2305,-1.2305,-1.2305,-1.2305,-1.2305,-1.2305,-1.2305,-1.1768,-1.1279,-1.1279,-1.0545,-0.9697,-0.9,-0.869,-0.8315,-0.7636,0.0,0.0,0.0,0.0,0.0,0.0,0.0,0.0,0.0,-0.6184,0.0,0.0,0.0,0.0,0.0,0.0,0.0,0.0,-0.6491,0.0,-0.678,-0.6831,-0.6886,-0.7028,-0.7028,-0.7028,-0.7024,-0.6879,-0.6858,-0.6858,-0.6858,-0.6824,-0.6783,-0.6896,-0.6881,-0.6712,-0.6814,-0.6827,-0.6661,-0.589,-0.5703,-0.5646,-1.2372,-1.2305,-1.2305,-1.2305,-1.2305,-1.2305,-1.2305,-1.2305,-1.2305,-1.2305,-1.2305,-1.2305,-1.2305,-1.2305,0.0,-1.2305,-1.1864,-1.1543,-1.1395,-1.0982,-1.0707,-1.0593,-1.0767,-1.0774,-1.0593,0.0,0.0,-1.0593,-1.07,-1.0901,-1.1156,-1.1269,-1.1577,-1.206,-1.1724,-1.1757,-1.2024,-1.1953,-1.1966,-1.2044,-1.2231,-1.2305,-1.2305,-1.2305,-1.2305,-1.2305,-1.2305,-1.2305,-1.2305,-1.2305,-1.2305,-1.2305,-1.2305,-1.2305,-1.2305,-1.2305,-1.2305,-1.2305,-1.2305,-1.2305,-1.2305,-1.2305,-1.2305,-1.2187,-1.1811,-1.1242,-1.0677,-1.0303,-0.9535,-0.8751,-0.8124,-0.7801,-0.7435,-0.6823,0.0,-0.6511,-0.6511,0.0,0.0,0.0,0.0,0.0,0.0,-0.63,0.0,0.0,0.0,0.0,0.0,0.0,0.0,-0.6508,-0.6583,0.0,-0.6883,-0.694,-0.7007,-0.7095,-0.7095,-0.7095,-0.7092,-0.7004,-0.6964,-0.6964,-0.6964,-0.691,-0.6878,-0.7021,-0.669,-0.6114,-0.6254,-0.6016,-0.5499,-0.48,-0.4632,-0.4552,-1.2482,-1.2305,0.0,0.0,-1.2305,0.0,-1.2305,-1.2305,-1.2305,-1.2305,-1.2305,-1.2305,-1.2305,-1.2305,-1.2305,-1.2305,0.0,0.0,0.0,-1.1136,-1.0874,-1.06,-1.0613,0.0,-1.0593,-1.0613,-1.0613,-1.0593,-1.0888,-1.1142,-1.1395,-1.173,-1.2024,-1.2291,-1.206,-1.2087,-1.2285,-1.2011,-1.2058,-1.2305,-1.2305,-1.2305,-1.2305,-1.2305,-1.2305,-1.2305,-1.2305,-1.2305,-1.2305,-1.2305,-1.2305,-1.2305,-1.2305,-1.2305,-1.2305,-1.2305,-1.2305,-1.2305,-1.2305,-1.2305,-1.2305,-1.2305,-1.2261,-1.1922,-1.0938,-1.0645,-1.0325,-0.9392,-0.8533,-0.7928,-0.7928,-0.7275,-0.6729,-0.6729,-0.6597,-0.6528,-0.6528,0.0,0.0,0.0,0.0,0.0,0.0,-0.632,-0.6313,0.0,0.0,0.0,0.0,0.0,0.0,-0.6528,-0.6773,-0.6889,-0.69,-0.7031,-0.7095,-0.7095,-0.7095,-0.7095,-0.7095,-0.7095,-0.7095,-0.7095,-0.7095,-0.7095,-0.7095,-0.7007,-0.6262,-0.5122,-0.5227,-0.4502,-0.3436,-0.3457,-0.3481,-0.3303,0.0,0.0,-1.2305,-1.2305,-1.2305,-1.2305,-1.2305,-1.2305,-1.2305,-1.2305,-1.2305,-1.2305,-1.2305,-1.2305,-1.2305,-1.2305,-1.183,-1.1462,-1.1395,-1.0949,-1.0667,-1.0593,-1.0807,-1.0821,-1.0593,-1.0807,-1.0814,-1.0593,-1.0888,-1.1142,-1.1395,-1.173,-1.2024,-1.2298,-1.2231,-1.2238,-1.2298,-1.2231,-1.2238,-1.2305,-1.2305,-1.2305,-1.2305,-1.2305,-1.2305,-1.2305,-1.2305,-1.2305,-1.2305,-1.2305,-1.2305,-1.2305,-1.2305,-1.2305,-1.2305,-1.2305,-1.2305,-1.2305,-1.2305,-1.2305,-1.2305,-1.2305,-1.1731,-1.0901,-0.9895,-0.9149,-0.8604,-0.8369,-0.7682,-0.7154,-0.7154,-0.7064,-0.6994,-0.6994,-0.6817,-0.6647,-0.6647,0.0,0.0,0.0,-0.6525,-0.6597,-0.6597,-0.6532,-0.6463,0.0,0.0,0.0,0.0,0.0,-0.6766,-0.6651,-0.6831,-0.6937,-0.7045,-0.7078,-0.7095,-0.7095,-0.7095,-0.7095,-0.7095,-0.7095,-0.7095,-0.7095,-0.7095,-0.7095,-0.7051,-0.616,-0.5609,-0.5232,-0.4366,-0.3827,-0.3459,-0.2543,-0.2236,-0.2057,-1.2305,-1.2305,-1.2305,-1.2305,-1.2305,-1.2305,-1.2305,-1.2305,-1.2305,-1.2305,-1.2305,-1.2305,-1.2305,-1.2305,-1.2305,-1.2305,-1.1764,-1.1389,-1.1389,-1.0914,-1.0593,-1.0593,-1.0747,-1.0754,-1.0593,-1.0747,-1.0754,-1.0593,-1.0982,-1.1269,-1.1402,-1.1864,-1.2151,-1.2305,-1.2305,-1.2305,-1.2305,-1.2305,-1.2305,-1.2305,-1.2305,-1.2305,-1.2305,-1.2305,-1.2305,-1.2305,-1.2305,-1.2305,-1.2305,-1.2305,-1.2305,-1.2305,-1.2305,-1.2305,-1.2305,-1.2305,-1.2305,-1.2305,-1.2305,-1.1959,-1.1508,-1.1025,-1.0533,-0.9879,-0.8918,-0.8325,-0.7871,-0.7479,-0.7135,-0.6886,-0.6886,-0.7001,-0.7075,-0.7011,-0.6851,-0.6675,-0.6607,-0.6566,0.0,-0.6511,-0.6607,-0.6702,-0.6702,-0.6624,-0.6576,-0.6576,0.0,0.0,-0.6576,-0.68,-0.6849,-0.6807,-0.6906,-0.7018,-0.7095,-0.7095,-0.6827,-0.6337,-0.6337,-0.6024,-0.5487,-0.5487,-0.5487,-0.5487,-0.5487,-0.5487,-0.544,-0.4819,-0.4241,-0.3708,-0.3038,-0.2458,-0.1879,-0.121,-0.0986,-0.0897,-1.2305,-1.2305,-1.2305,-1.2305,-1.2305,-1.2305,-1.2305,-1.2305,-1.2305,-1.2305,-1.2305,-1.2305,-1.2305,-1.2305,-1.2305,-1.2305,-1.1804,-1.1435,-1.1395,-1.0914,-1.0593,-1.0593,-1.0593,-1.0593,-1.0593,-1.0593,-1.0613,-1.066,-1.1162,-1.1415,-1.1503,-1.2044,-1.2305,-1.2305,-1.2305,-1.2305,-1.2305,-1.2305,-1.2305,-1.2305,-1.2305,-1.2305,-1.2305,-1.2305,-1.2305,-1.2305,-1.2305,-1.2305,-1.2268,-1.2114,-1.207,-1.204,-1.1885,-1.1855,-1.1855,-1.1855,-1.1855,-1.1885,-1.2033,-1.1354,-1.034,-0.9334,-0.9094,-0.8856,-0.7971,-0.7812,-0.7619,-0.6871,-0.6854,-0.6916,-0.6916,-0.7014,-0.7058,-0.6937,-0.6814,-0.6664,-0.6556,0.0,-0.6555,-0.6539,-0.6675,-0.6766,-0.6766,-0.6749,-0.6736,-0.6736,-0.6736,0.0,0.0,-0.6708,-0.6658,-0.6658,-0.6943,-0.7007,-0.683,-0.6647,-0.6068,-0.5134,-0.5134,-0.4596,-0.3614,-0.3614,-0.3614,-0.3614,-0.3614,-0.3614,-0.357,-0.3392,-0.2726,-0.179,-0.1612,-0.0897,0.0,0.0,0.0,0.0,-1.2305,-1.2305,-1.2305,-1.2305,-1.2305,-1.2305,-1.2305,-1.2305,-1.2305,-1.2305,-1.2305,-1.2305,-1.2305,-1.2305,-1.2305,-1.2305,-1.1997,-1.1697,-1.1409,-1.0914,-1.0593,-1.0593,-1.0593,-1.0593,-1.0593,-1.0593,-1.0713,-1.0922,-1.1263,-1.1557,-1.1839,-1.2144,-1.2305,-1.2305,-1.2305,-1.2305,-1.2305,-1.2305,-1.2305,-1.2305,-1.2305,-1.2305,-1.2305,-1.2305,-1.2305,-1.2305,-1.2305,-1.2305,-1.2187,-1.1316,-1.1013,-1.0864,-1.0045,-0.975,-0.975,-0.975,-0.975,-0.9933,-1.0789,-1.0308,-0.9296,-0.8275,-0.8125,-0.7932,-0.694,-0.6915,-0.7031,-0.6888,-0.6964,-0.7061,-0.7061,-0.7082,-0.7088,-0.7065,-0.6878,-0.6736,0.0,0.0,-0.6712,-0.6844,-0.6943,-0.7028,-0.7028,-0.692,-0.6852,-0.6852,-0.6852,-0.6852,-0.6852,-0.6066,-0.5645,-0.5645,-0.6593,-0.665,-0.5669,-0.4641,-0.4059,-0.3881,-0.3881,-0.3792,-0.3614,-0.3614,-0.3614,-0.3614,-0.3614,-0.3614,-0.3525,-0.2503,-0.1969,-0.1701,-0.0673,-0.018,0.0,0.0,0.0,0.0,-1.2305,-1.2305,-1.2305,-1.2305,-1.2305,-1.2305,-1.2305,-1.2305,-1.2305,-1.2305,-1.2305,-1.2305,-1.2305,-1.2305,-1.2305,-1.2305,-1.2037,-1.1846,-1.167,-1.1116,-1.0754,-1.06,-1.0593,-1.0593,-1.0593,-1.0868,-1.1015,-1.0995,-1.1443,-1.1737,-1.1913,-1.2164,-1.2305,-1.2305,-1.2305,-1.2305,-1.2305,-1.2305,-1.1996,-1.1502,-1.1502,-1.1168,-1.0683,-1.0683,-1.0683,-1.0683,-1.0683,-1.0683,-1.0608,-1.0158,-1.0008,-0.9895,-0.9448,-0.9296,-0.9296,-0.9296,-0.9296,-0.9296,-0.9216,-0.8913,-0.835,-0.7344,-0.7194,-0.7182,-0.6823,-0.6827,-0.6906,-0.6984,-0.7051,-0.7095,-0.7095,-0.7095,-0.7071,-0.6994,-0.6869,0.0,0.0,-0.6881,-0.6893,-0.6886,-0.7126,-0.7231,-0.7105,-0.7038,-0.7001,-0.7001,-0.6427,-0.6075,-0.6075,-0.5019,-0.4419,-0.4419,-0.4952,-0.4952,-0.4419,-0.3881,-0.326,-0.2637,-0.2637,-0.2281,-0.1657,-0.1657,-0.1657,-0.1657,-0.1657,-0.1657,-0.1612,-0.1076,-0.0852,-0.0762,-0.0225,0.0,0.0,0.0,0.0,0.0,-1.2305,-1.2305,-1.2305,-1.2305,-1.2305,-1.2305,-1.2305,-1.2305,-1.2305,-1.2305,-1.2305,-1.2305,-1.2305,-1.2305,-1.2305,-1.2305,-1.2098,-1.198,-1.1906,-1.1484,-1.1069,-1.0807,-1.0794,-1.0794,-1.0794,-1.1196,-1.1349,-1.1196,-1.1678,-1.194,-1.2013,-1.2198,-1.2305,-1.2305,-1.2305,-1.2305,-1.2261,-1.204,-1.1502,-1.0783,-1.0559,-1.0002,-0.9296,-0.9296,-0.9296,-0.9296,-0.9296,-0.9296,-0.9258,-0.9031,-0.8955,-0.8917,-0.8694,-0.8618,-0.8618,-0.8618,-0.8613,-0.8482,-0.768,-0.7563,-0.7454,-0.6711,-0.6614,-0.6783,-0.6859,-0.691,-0.6964,-0.7071,-0.7095,-0.7095,-0.7095,-0.7095,-0.7061,-0.6953,0.0,0.0,0.0,-0.7021,-0.7068,-0.7041,-0.7234,-0.7312,-0.7109,-0.6874,-0.6694,-0.6694,-0.5625,-0.4999,-0.4999,-0.3838,-0.3037,-0.2769,-0.3037,-0.317,-0.317,-0.2903,-0.228,-0.1389,-0.1389,-0.0897,0.0,0.0,0.0,0.0,0.0,0.0,0.0,0.0,0.0,0.0,0.0,0.0,0.0,0.0,0.0,0.0,-1.2305,-1.2305,-1.2305,-1.2305,-1.2305,-1.2305,-1.2305,-1.2305,-1.2305,-1.2305,-1.2305,-1.2305,-1.2305,-1.2305,-1.2305,-1.2305,-1.2285,-1.2158,-1.1926,-1.1866,-1.1705,-1.1376,-1.1329,-1.1329,-1.1329,-1.1369,-1.155,-1.1839,-1.1886,-1.204,-1.2271,-1.2291,-1.2305,-1.2305,-1.2305,-1.2305,-1.2224,-1.1316,-1.0858,-1.0714,-0.9782,-0.9372,-0.9296,-0.9296,-0.9296,-0.9296,-0.9296,-0.9296,-0.9145,-0.8237,-0.7897,-0.7744,-0.6834,-0.6528,-0.6528,-0.6528,-0.6624,-0.6662,-0.645,-0.652,-0.6591,-0.6511,-0.6695,-0.6873,-0.6883,-0.6987,-0.7085,-0.7095,-0.7095,-0.7095,-0.7095,-0.7095,-0.7092,-0.7082,0.0,0.0,-0.7285,-0.7217,-0.7146,-0.7322,-0.7402,-0.7312,-0.7109,-0.616,-0.5536,-0.5536,-0.4419,-0.3748,-0.3748,-0.2592,-0.1433,-0.0314,-0.1344,-0.1924,-0.1924,-0.0807,-0.0225,-0.0135,-0.0135,-0.009,0.0,0.0,0.0,0.0,0.0,0.0,0.0,0.0,0.0,0.0,0.0,0.0,0.0,0.0,0.0,0.0,-1.2265,-1.2305,-1.2305,-1.2305,-1.2305,-1.2305,-1.2305,-1.2305,-1.2305,-1.2305,-1.2305,-1.2305,-1.2305,-1.2305,-1.2305,-1.2305,-1.2305,-1.2258,-1.2144,-1.2138,-1.1924,-1.1415,-1.1603,-1.1617,-1.1395,-1.1784,-1.1937,-1.1906,-1.2087,-1.2191,-1.2305,-1.2305,-1.1959,-1.1391,-1.2033,-1.1626,-1.0458,-1.0714,-1.0072,-0.8912,-0.8537,-0.8012,-0.7442,-0.7442,-0.7442,-0.7442,-0.7442,-0.7442,-0.7365,-0.6984,-0.6872,-0.6795,-0.6416,-0.63,-0.6317,-0.6405,-0.6538,-0.6603,-0.6549,-0.6641,-0.6756,-0.6756,-0.6866,-0.7014,-0.7014,-0.7177,-0.7285,-0.7285,-0.736,-0.7424,-0.7424,-0.7424,-0.7424,-0.7424,0.0,-0.7383,-0.7499,-0.7536,-0.7509,-0.7433,-0.7455,-0.7135,-0.6136,-0.5669,-0.509,-0.433,-0.3165,-0.2492,-0.2504,-0.1344,-0.0494,0.0,-0.0449,-0.0673,-0.0673,-0.0225,0.0,0.0,0.0,0.0,0.0,0.0,0.0,0.0,0.0,0.0,0.0,0.0,0.0,0.0,0.0,0.0,0.0,0.0,0.0,0.0,-1.2265,-1.2305,-1.2305,-1.2305,-1.2305,-1.2305,-1.2305,-1.2305,-1.2305,-1.2305,-1.2305,-1.2305,-1.2305,-1.2305,-1.2305,-1.2305,-1.2305,-1.2305,-1.2305,-1.2305,-1.2124,-1.1717,-1.1897,-1.1911,-1.1703,-1.2098,-1.2204,-1.204,-1.1898,-1.1848,-1.1811,-1.1508,-1.0981,-1.0378,-1.1056,-1.0571,-0.9334,-0.9701,-0.9059,-0.7783,-0.7442,-0.6911,-0.63,-0.63,-0.63,-0.63,-0.63,-0.63,-0.63,-0.63,-0.63,-0.63,-0.63,-0.633,-0.6395,-0.6542,-0.6654,-0.678,-0.6827,-0.6873,-0.6943,-0.6896,-0.6991,-0.7109,-0.7204,-0.7295,-0.7433,-0.7434,-0.7526,-0.76,-0.76,-0.76,-0.76,-0.76,-0.76,-0.7614,-0.7658,-0.775,-0.7589,-0.6967,-0.6985,-0.6476,-0.4979,-0.4509,-0.3917,-0.3097,-0.1895,-0.1252,-0.1234,-0.0457,0.0,0.0,0.0,0.0,0.0,0.0,0.0,0.0,0.0,0.0,0.0,0.0,0.0,0.0,0.0,0.0,0.0,0.0,0.0,0.0,0.0,0.0,0.0,0.0,0.0,0.0,-1.2305,-1.2305,-1.2305,-1.2305,-1.2305,-1.2305,-1.2305,-1.2305,-1.2305,-1.2305,-1.2305,-1.2305,-1.2305,-1.2305,-1.2305,-1.2305,-1.2305,-1.2305,-1.2305,-1.2305,-1.2305,-1.2305,-1.2305,-1.2305,-1.2305,-1.2298,-1.2298,-1.2298,-1.1279,-1.0783,-1.0783,-0.9782,-0.9296,-0.9296,-0.9296,-0.9296,-0.9221,-0.8237,-0.7783,-0.7706,-0.6718,-0.63,-0.63,-0.63,-0.63,-0.63,-0.63,-0.63,-0.63,-0.63,-0.63,-0.6303,-0.6303,-0.6402,-0.6545,-0.6658,-0.681,-0.6916,-0.7058,-0.7095,-0.7065,-0.6923,-0.6994,-0.7139,-0.7336,-0.7419,-0.7463,-0.757,-0.76,-0.7604,-0.7604,-0.7604,-0.7604,-0.7604,-0.7604,-0.7651,-0.7794,-0.7811,-0.7276,-0.5955,-0.581,-0.5184,-0.3708,-0.2519,-0.1808,-0.1808,-0.0667,0.0,0.0,0.0,0.0,0.0,0.0,0.0,0.0,0.0,0.0,0.0,0.0,0.0,0.0,0.0,0.0,0.0,0.0,0.0,0.0,0.0,0.0,0.0,0.0,0.0,0.0,0.0,0.0,0.0,-1.2265,-1.2305,-1.2305,-1.2305,-1.2305,-1.2305,-1.2305,-1.2305,-1.2305,-1.2305,-1.2305,-1.2305,-1.2305,-1.2305,-1.2305,-1.2305,-1.2305,-1.2305,-1.2305,-1.2305,-1.2305,-1.2305,-1.2305,-1.2305,-1.2305,-1.162,-1.1242,-1.1242,-1.0233,-0.9744,-0.9744,-0.9448,-0.8917,-0.8275,-0.8993,-0.8504,-0.7211,-0.7633,-0.7403,-0.6718,-0.6416,-0.63,-0.63,-0.63,-0.63,-0.63,-0.63,-0.63,-0.63,-0.63,-0.6368,-0.6467,-0.6536,-0.6671,-0.6803,-0.6848,-0.692,-0.7041,-0.7085,-0.7221,-0.7268,-0.7071,-0.719,-0.7316,-0.7405,-0.7533,-0.7692,-0.774,-0.7834,-0.786,-0.786,-0.786,-0.786,-0.786,-0.786,-0.7874,-0.7917,-0.7122,-0.6344,-0.5869,-0.4981,-0.3831,-0.2476,-0.1998,-0.1428,-0.0619,-0.0191,0.0,0.0,0.0,0.0,0.0,0.0,0.0,0.0,0.0,0.0,0.0,0.0,0.0,0.0,0.0,0.0,0.0,0.0,0.0,0.0,0.0,0.0,0.0,0.0,0.0,0.0,0.0,0.0,0.0,-1.2265,-1.2305,-1.2305,-1.2305,-1.2305,-1.2305,-1.2305,-1.2305,-1.2305,-1.2305,-1.2305,-1.2305,-1.2305,-1.2305,-1.2305,-1.2305,-1.2305,-1.2305,-1.2305,-1.2305,-1.2114,-1.1731,-1.1694,-1.1694,-1.1694,-1.1124,-1.0596,-1.019,-0.9183,-0.8694,-0.8694,-0.8313,-0.7783,-0.7249,-0.7859,-0.7442,-0.6338,-0.6949,-0.6872,-0.63,-0.63,-0.63,-0.63,-0.63,-0.63,-0.63,-0.63,-0.63,-0.63,-0.63,-0.6395,-0.6538,-0.6654,-0.6807,-0.6886,-0.6886,-0.6987,-0.7095,-0.7095,-0.7207,-0.7272,-0.7241,-0.7346,-0.7478,-0.7533,-0.7682,-0.7828,-0.7889,-0.7924,-0.7988,-0.7988,-0.7988,-0.7988,-0.7988,-0.7988,-0.7839,-0.7285,-0.6531,-0.5553,-0.4451,-0.3557,-0.2561,-0.122,-0.1072,-0.078,-0.0049,0.0,0.0,0.0,0.0,0.0,0.0,0.0,0.0,0.0,0.0,0.0,0.0,0.0,0.0,0.0,0.0,0.0,0.0,0.0,0.0,0.0,0.0,0.0,0.0,0.0,0.0,0.0,0.0,0.0,0.0,-1.2305,-1.2305,-1.2305,-1.2305,-1.2305,-1.2305,-1.2305,-1.2305,-1.2305,-1.2305,-1.2305,-1.2305,-1.2305,-1.2305,-1.2305,-1.2305,-1.2305,-1.2305,-1.2305,-1.2305,-1.1885,-1.0969,-1.0864,-1.0746,-1.0671,-1.0596,-1.0078,-0.915,-0.8161,-0.7668,-0.7629,-0.6718,-0.63,-0.63,-0.63,-0.63,-0.63,-0.63,-0.63,-0.63,-0.63,-0.63,-0.63,-0.63,-0.63,-0.63,-0.63,-0.63,-0.6303,-0.633,-0.6433,-0.6539,-0.6692,-0.6837,-0.6906,-0.6906,-0.6997,-0.7098,-0.7112,-0.7125,-0.7173,-0.7373,-0.7526,-0.7668,-0.7784,-0.7821,-0.7872,-0.7961,-0.7988,-0.7988,-0.7988,-0.7889,-0.7839,-0.7839,-0.7736,-0.7232,-0.5977,-0.5727,-0.4722,-0.2314,-0.1913,-0.136,-0.0101,0.0,0.0,0.0,0.0,0.0,0.0,0.0,0.0,0.0,0.0,0.0,0.0,0.0,0.0,0.0,0.0,0.0,0.0,0.0,0.0,0.0,0.0,0.0,0.0,0.0,0.0,0.0,0.0,0.0,0.0,0.0,0.0,0.0,-1.2305,-1.2305,-1.2305,-1.2305,-1.2305,-1.2305,-1.2305,-1.2305,-1.2305,-1.2305,-1.2305,-1.2305,-1.2305,-1.2305,-1.2305,-1.2305,-1.2305,-1.2305,-1.2305,-1.2305,-1.2187,-1.1996,-1.1205,-1.0415,-0.9636,-0.8841,-0.8347,-0.8122,-0.7138,-0.6641,-0.6602,-0.6412,-0.63,-0.63,-0.63,-0.63,-0.63,-0.63,-0.63,-0.63,-0.63,-0.63,-0.63,-0.63,-0.63,-0.63,-0.63,-0.63,-0.6334,-0.6529,-0.6705,-0.6854,-0.6957,-0.7024,-0.7051,-0.7051,-0.7071,-0.7122,-0.7288,-0.7411,-0.7533,-0.7678,-0.7831,-0.787,-0.7831,-0.7902,-0.7948,-0.7982,-0.7988,-0.7988,-0.7988,-0.7135,-0.6431,-0.6431,-0.5572,-0.4768,-0.4468,-0.3518,-0.2666,-0.2063,-0.1058,-0.0303,-0.0051,0.0,0.0,0.0,0.0,0.0,0.0,0.0,0.0,0.0,0.0,0.0,0.0,0.0,0.0,0.0,0.0,0.0,0.0,0.0,0.0,0.0,0.0,0.0,0.0,0.0,0.0,0.0,0.0,0.0,0.0,0.0,0.0,0.0,-1.2305,-1.2305,-1.2305,-1.2305,-1.2305,-1.2305,-1.2305,-1.2305,-1.2305,-1.2305,-1.2305,-1.2305,-1.2305,-1.2305,-1.2305,-1.2305,-1.2305,-1.2305,-1.2305,-1.2305,-1.1885,-1.0913,-1.034,-0.9405,-0.7897,-0.7365,-0.7099,-0.7099,-0.6567,-0.63,-0.63,-0.63,-0.63,-0.63,-0.63,-0.63,-0.6306,-0.6371,-0.6402,-0.6409,-0.648,-0.6467,-0.6402,-0.6402,-0.6358,-0.63,-0.63,-0.6344,-0.6436,-0.6624,-0.6803,-0.691,-0.7051,-0.7095,-0.7095,-0.7095,-0.7095,-0.7129,-0.7329,-0.7431,-0.7543,-0.7756,-0.7872,-0.788,-0.7874,-0.7931,-0.7988,-0.7988,-0.7487,-0.7033,-0.7033,-0.5927,-0.5022,-0.5022,-0.4468,-0.3765,-0.3115,-0.2465,-0.1762,-0.1109,-0.0404,0.0,0.0,0.0,0.0,0.0,0.0,0.0,0.0,0.0,0.0,0.0,0.0,0.0,0.0,0.0,0.0,0.0,0.0,0.0,0.0,0.0,0.0,0.0,0.0,0.0,0.0,0.0,0.0,0.0,0.0,0.0,0.0,0.0,0.0,0.0,-1.2305,-1.2305,-1.2305,-1.2305,-1.2305,-1.2305,-1.2305,-1.2305,-1.2305,-1.2305,-1.2305,-1.2305,-1.2305,-1.2305,-1.2305,-1.2305,-1.2305,-1.2305,-1.2305,-1.2305,-1.1471,-0.9631,-0.941,-0.8428,-0.6606,-0.6377,-0.63,-0.63,-0.63,-0.63,-0.63,-0.63,-0.63,-0.63,-0.63,-0.63,-0.6306,-0.6426,-0.6491,-0.6521,-0.661,-0.66,-0.6549,-0.6521,-0.6457,-0.6371,-0.6344,-0.6446,-0.6569,-0.6698,-0.6841,-0.6943,-0.7058,-0.7095,-0.7095,-0.7095,-0.7115,-0.7214,-0.737,-0.7473,-0.7512,-0.7784,-0.7654,-0.7537,-0.7611,-0.7637,-0.7637,-0.7637,-0.6581,-0.5677,-0.5677,-0.457,-0.3665,-0.3665,-0.3465,-0.2914,-0.1812,-0.1661,-0.126,-0.0151,0.0,0.0,0.0,0.0,0.0,0.0,0.0,0.0,0.0,0.0,0.0,0.0,0.0,0.0,0.0,0.0,0.0,0.0,0.0,0.0,0.0,0.0,0.0,0.0,0.0,0.0,0.0,0.0,0.0,0.0,0.0,0.0,0.0,0.0,0.0,0.0,-1.2305,-1.2305,-1.2305,-1.2305,-1.2305,-1.2305,-1.2305,-1.2305,-1.2305,-1.2305,-1.2305,-1.2305,-1.2305,-1.2305,-1.2305,-1.2305,-1.2305,-1.2305,-1.2305,-1.2305,-1.1774,-1.0634,-0.9744,-0.8765,-0.7633,-0.6756,-0.63,-0.63,-0.63,-0.63,-0.63,-0.63,-0.63,-0.63,-0.63,-0.63,-0.6303,-0.632,-0.6399,-0.6515,-0.6535,-0.6569,-0.6654,-0.6562,-0.6542,-0.6624,-0.6532,-0.6627,-0.6829,-0.6849,-0.695,-0.7071,-0.7092,-0.7095,-0.7095,-0.7095,-0.7234,-0.7373,-0.7529,-0.7658,-0.7794,-0.7917,-0.7105,-0.626,-0.6276,-0.6279,-0.6279,-0.6279,-0.5222,-0.4268,-0.4268,-0.3165,-0.2264,-0.2264,-0.131,-0.0454,-0.0303,-0.0252,-0.0202,0.0,0.0,0.0,0.0,0.0,0.0,0.0,0.0,0.0,0.0,0.0,0.0,0.0,0.0,0.0,0.0,0.0,0.0,0.0,0.0,0.0,0.0,0.0,0.0,0.0,0.0,0.0,0.0,0.0,0.0,0.0,0.0,0.0,0.0,0.0,0.0,0.0,-1.2305,-1.2305,-1.2305,-1.2305,-1.2305,-1.2305,-1.2305,-1.2305,-1.2305,-1.2305,-1.2305,-1.2305,-1.2305,-1.2305,-1.2305,-1.2305,-1.2305,-1.2305,-1.2305,-1.2305,-1.1583,-1.0045,-0.9523,-0.858,-0.6984,-0.6528,-0.63,-0.63,-0.63,-0.63,-0.63,-0.63,-0.63,-0.63,-0.63,-0.63,-0.6306,-0.6385,-0.6504,-0.6607,-0.6695,-0.6766,-0.682,-0.6753,-0.6715,-0.6692,-0.6624,-0.6742,-0.6886,-0.6886,-0.6977,-0.7095,-0.7095,-0.72,-0.7272,-0.7272,-0.7377,-0.7533,-0.7678,-0.7763,-0.765,-0.705,-0.6431,-0.5827,-0.5072,-0.432,-0.3969,-0.472,-0.3817,-0.2864,-0.2864,-0.1812,-0.0907,-0.0907,-0.0404,0.0,0.0,0.0,0.0,0.0,0.0,0.0,0.0,0.0,0.0,0.0,0.0,0.0,0.0,0.0,0.0,0.0,0.0,0.0,0.0,0.0,0.0,0.0,0.0,0.0,0.0,0.0,0.0,0.0,0.0,0.0,0.0,0.0,0.0,0.0,0.0,0.0,0.0,0.0,0.0,0.0]},{"header":{"parameterUnit":"m.s-1","parameterCategory":1,"la1":30.6,"la2":28.766,"lo1":-90.7593,"lo2":-88.6598,"dy":0.0162,"dx":0.0183,"nx":116,"ny":114,"refTime":"2023-06-03T06:00:00:Z","depth":0,"parameterNumber":3,"parameterNumberName":"V-component_of_WINDS"},"data":[0.0,0.0,0.0,0.0,0.0,0.0,0.0,0.0,0.0,0.0,0.0,0.0,0.0,0.0,0.0,0.0,0.0,0.0,0.0,0.0,0.0,0.0,0.0,0.0,0.0,0.0,0.0,0.0,0.0,0.0,0.0,0.0,0.0,0.0,0.0,0.0,0.0,0.0,0.0,0.0,0.0,0.0,0.0,0.0,0.0,0.0,0.0,0.0,0.0,0.0,0.0,0.0,0.0,0.0,0.0,0.0,0.0,0.0,0.0,0.0,0.0,0.0,0.0,0.0,0.0,0.0,0.0,0.0,0.0,0.0,0.0,0.0,0.0,0.0,0.0,0.0,0.0,0.0,0.0,0.0,0.0,0.0,0.0,0.0,0.0,0.0,0.0,0.0,0.0,0.0,0.0,0.0,0.0,0.0,0.0,0.0,0.0,0.0,0.0,0.0,0.0,0.0,0.0,0.0,0.0,0.0,0.0,0.0,0.0,0.0,0.0,0.0,0.0,0.0,0.0,0.0,0.0,0.0,0.0,0.0,0.0,0.0,0.0,0.0,0.0,0.0,0.0,0.0,0.0,0.0,0.0,0.0,0.0,0.0,0.0,0.0,0.0,0.0,0.0,0.0,0.0,0.0,0.0,0.0,0.0,0.0,0.0,0.0,0.0,0.0,0.0,0.0,0.0,0.0,0.0,0.0,0.0,0.0,0.0,0.0,0.0,0.0,0.0,0.0,0.0,0.0,0.0,0.0,0.0,0.0,0.0,0.0,0.0,0.0,0.0,0.0,0.0,0.0,0.0,0.0,0.0,0.0,0.0,0.0,0.0,0.0,0.0,0.0,0.0,0.0,0.0,0.0,0.0,0.0,0.0,0.0,0.0,0.0,0.0,0.0,0.0,0.0,0.0,0.0,0.0,0.0,0.0,0.0,0.0,0.0,0.0,0.0,0.0,0.0,0.0,0.0,0.0,0.0,0.0,0.0,0.0,0.0,0.0,0.0,0.0,0.0,0.0,0.0,0.0,0.0,0.0,0.0,0.0,0.0,0.0,0.0,0.0,0.0,0.0,0.0,0.0,0.0,0.0,0.0,0.0,0.0,0.0,0.0,0.0,0.0,0.0,0.0,0.0,0.0,0.0,0.0,0.0,0.0,0.0,0.0,0.0,0.0,0.0,0.0,0.0,0.0,0.0,0.0,0.0,0.0,0.0,0.0,0.0,0.0,0.0,0.0,0.0,0.0,0.0,0.0,0.0,0.0,0.0,0.0,0.0,0.0,0.0,0.0,0.0,0.0,0.0,0.0,0.0,0.0,0.0,0.0,0.0,0.0,0.0,0.0,0.0,0.0,0.0,0.0,0.0,0.0,0.0,0.0,0.0,0.0,0.0,0.0,0.0,0.0,0.0,0.0,0.0,0.0,0.0,0.0,0.0,0.0,0.0,0.0,0.0,0.0,0.0,0.0,0.0,0.0,0.0,0.0,0.0,0.0,0.0,0.0,0.0,0.0,0.0,0.0,0.0,0.0,0.0,0.0,0.0,0.0,0.0,0.0,0.0,0.0,0.0,0.0,0.0,0.0,0.0,0.0,0.0,0.0,0.0,0.0,0.0,0.0,0.0,0.0,0.0,0.0,0.0,0.0,0.0,0.0,0.0,0.0,0.0,0.0,0.0,0.0,0.0,0.0,0.0,0.0,0.0,0.0,0.0,0.0,0.0,0.0,0.0,0.0,0.0,0.0,0.0,0.0,0.0,0.0,0.0,0.0,0.0,0.0,0.0,0.0,0.0,0.0,0.0,0.0,0.0,0.0,0.0,0.0,0.0,0.0,0.0,0.0,0.0,0.0,0.0,0.0,0.0,0.0,0.0,0.0,0.0,0.0,0.0,0.0,0.0,0.0,0.0,0.0,0.0,0.0,0.0,0.0,0.0,0.0,0.0,0.0,0.0,0.0,0.0,0.0,0.0,0.0,0.0,0.0,0.0,0.0,0.0,0.0,0.0,0.0,0.0,0.0,0.0,0.0,0.0,0.0,0.0,0.0,0.0,0.0,0.0,0.0,0.0,0.0,0.0,0.0,0.0,0.0,0.0,0.0,0.0,0.0,0.0,0.0,0.0,0.0,0.0,0.0,0.0,0.0,0.0,0.0,0.0,0.0,0.0,0.0,0.0,0.0,0.0,0.0,0.0,0.0,0.0,0.0,0.0,0.0,0.0,0.0,0.0,0.0,0.0,0.0,0.0,0.0,0.0,0.0,0.0,0.0,0.0,0.0,0.0,0.0,0.0,0.0,0.0,0.0,0.0,0.0,0.0,0.0,0.0,0.0,0.0,0.0,0.0,0.0,0.0,0.0,0.0,0.0,0.0,0.0,0.0,0.0,0.0,0.0,0.0,0.0,0.0,0.0,0.0,0.0,0.0,0.0,0.0,0.0,0.0,0.0,0.0,0.0,0.0,0.0,0.0,0.0,0.0,0.0,0.0,0.0,0.0,0.0,0.0,0.0,0.0,0.0,0.0,0.0,0.0,0.0,0.0,0.0,0.0,0.0,0.0,0.0,0.0,0.0,0.0,0.0,0.0,0.0,0.0,0.0,0.0,0.0,0.0,0.0,0.0,0.0,0.0,0.0,0.0,0.0,0.0,0.0,0.0,0.0,0.0,0.0,0.0,0.0,0.0,0.0,0.0,0.0,0.0,0.0,0.0,0.0,0.0,0.0,0.0,0.0,0.0,0.0,0.0,0.0,0.0,0.0,0.0,0.0,0.0,0.0,0.0,0.0,0.0,0.0,0.0,0.0,0.0,0.0,0.0,0.0,0.0,0.0,0.0,0.0,0.0,0.0,0.0,0.0,0.0,0.0,0.0,0.0,0.0,0.0,0.0,0.0,0.0,0.0,0.0,0.0,0.0,0.0,0.0,0.0,0.0,0.0,0.0,0.0,0.0,0.0,0.0,0.0,0.0,0.0,0.0,0.0,0.0,0.0,0.0,0.0,0.0,0.0,0.0,0.0,0.0,0.0,0.0,0.0,0.0,0.0,0.0,0.0,0.0,0.0,0.0,0.0,0.0,0.0,0.0,0.0,0.0,0.0,0.0,0.0,0.0,0.0,0.0,0.0,0.0,0.0,0.0,0.0,0.0,0.0,0.0,0.0,0.0,0.0,0.0,0.0,0.0,0.0,0.0,0.0,0.0,0.0,0.0,0.0,0.0,0.0,0.0,0.0,0.0,0.0,0.0,0.0,0.0,0.0,0.0,0.0,0.0,0.0,0.0,0.0,0.0,0.0,0.0,0.0,0.0,0.0,0.0,0.0,0.0,0.0,0.0,0.0,0.0,0.0,0.0,0.0,0.0,0.0,0.0,0.0,0.0,0.0,0.0,0.0,0.0,0.0,0.0,0.0,0.0,0.0,0.0,0.0,0.0,0.0,0.0,0.0,0.0,0.0,0.0,0.0,0.0,0.0,0.0,0.0,0.0,0.0,0.0,0.0,0.0,0.0,0.0,0.0,0.0,0.0,0.0,0.0,0.0,0.0,0.0,0.0,0.0,0.0,0.0,0.0,0.0,0.0,0.0,0.0,0.0,0.0,0.0,0.0,0.0,0.0,0.0,0.0,0.0,0.0,0.0,0.0,0.0,0.0,0.0,0.0,0.0,0.0,0.0,0.0,0.0,0.0,0.0,0.0,0.0,0.0,0.0,0.0,0.0,0.0,0.0,0.0,0.0,0.0,0.0,0.0,0.0,0.0,0.0,0.0,0.0,0.0,0.0,0.0,0.0,0.0,0.0,0.0,0.0,0.0,0.0,0.0,0.0,0.0,0.0,0.0,0.0,0.0,0.0,0.0,0.0,0.0,0.0,0.0,0.0,0.0,0.0,0.0,0.0,0.0,0.0,0.0,0.0,0.0,0.0,0.0,0.0,0.0,0.0,0.0,0.0,0.0,0.0,0.0,0.0,0.0,0.0,0.0,0.0,0.0,0.0,0.0,0.0,0.0,0.0,0.0,0.0,0.0,0.0,0.0,0.0,0.0,0.0,0.0,0.0,0.0,0.0,0.0,0.0,0.0,0.0,0.0,0.0,0.0,0.0,0.0,0.0,0.0,0.0,0.0,0.0,0.0,0.0,0.0,0.0,0.0,0.0,0.0,0.0,0.0,0.0,0.0,0.0,0.0,0.0,0.0,0.0,0.0,0.0,0.0,0.0,0.0,0.0,0.0,0.0,0.0,0.0,0.0,0.0,0.0,0.0,0.0,0.0,0.0,0.0,0.0,0.0,0.0,0.0,0.0,0.0,0.0,0.0,0.0,0.0,0.0,0.0,0.0,0.0,0.0,0.0,0.0,0.0,0.0,0.0,0.0,0.0,0.0,0.0,0.0,0.0,0.0,0.0,0.0,0.0,0.0,0.0,0.0,0.0,0.0,0.0,0.0,0.0,0.0,0.0,0.0,0.0,0.0,0.0,0.0,0.0,0.0,0.0,0.0,0.0,0.0,0.0,0.0,0.0,0.0,0.0,0.0,0.0,0.0,0.0,0.0,0.0,0.0,0.0,0.0,0.0,0.0,0.0,0.0,0.0,0.0,0.0,0.0,0.0,0.0,0.0,0.0,0.0,0.0,0.0,0.0,0.0,0.0,0.0,0.0,0.0,0.0,0.0,0.0,0.0,0.0,0.0,0.0,0.0,0.0,0.0,0.0,0.0,0.0,0.0,0.0,0.0,0.0,0.0,0.0,0.0,0.0,0.0,0.0,0.0,0.0,0.0,0.0,0.0,0.0,0.0,0.0,0.0,0.0,0.0,0.0,0.0,0.0,0.0,0.0,0.0,0.0,0.0,0.0,0.0,0.0,0.0,0.0,0.0,0.0,0.0,0.0,0.0,0.0,0.0,0.0,0.0,0.0,0.0,0.0,0.0,0.0,0.0,0.0,0.0,0.0,0.0,0.0,0.0,0.0,0.0,0.0,0.0,0.0,0.0,0.0,0.0,0.0,0.0,0.0,0.0,0.0,0.0,0.0,0.0,0.0,0.0,0.0,0.0,0.0,0.0,0.0,0.0,0.0,0.0,0.0,0.0,0.0,0.0,0.0,0.0,0.0,0.0,0.0,0.0,0.0,0.0,0.0,0.0,0.0,0.0,0.0,0.0,0.0,0.0,0.0,0.0,0.0,0.0,0.0,0.0,0.0,0.0,0.0,0.0,0.0,0.0,0.0,0.0,0.0,0.0,0.0,0.0,0.0,0.0,0.0,0.0,0.0,0.0,0.0,0.0,0.0,0.0,0.0,0.0,0.0,0.0,0.0,0.0,0.0,0.0,0.0,0.0,0.0,0.0,0.0,0.0,0.0,0.0,0.0,0.0,0.0,0.0,0.0,0.0,0.0,0.0,0.0,0.0,0.0,0.0,0.0,0.0,0.0,0.0,0.0,0.0,0.0,0.0,0.0,0.0,0.0,0.0,0.0,0.0,0.0,0.0,0.0,0.0,0.0,0.0,0.0,0.0,0.0,0.0,0.0,0.0,0.0,0.0,0.0,0.0,0.0,0.0,0.0,0.0,0.0,0.0,0.0,0.0,0.0,0.0,0.0,0.0,0.0,0.0,0.0,0.0,0.0,0.0,0.0,0.0,0.0,0.0,0.0,0.0,0.0,0.0,0.0,0.0,0.0,0.0,0.0,0.0,0.0,0.0,0.0,0.0,0.0,0.0,0.0,0.0,0.0,0.0,0.0,0.0,0.0,0.0,0.0,0.0,0.0,0.0,0.0,0.0,0.0,0.0,0.0,0.0,0.0,0.0,0.0,0.0,0.0,0.0,0.0,0.0,0.0,0.0,0.0,0.0,0.0,0.0,0.0,0.0,0.0,0.0,0.0,0.0,0.0,0.0,0.0,0.0,0.0,0.0,0.0,0.0,0.0,0.0,0.0,0.0,0.0,0.0,0.0,0.0,0.0,0.0,0.0,0.0,0.0,0.0,0.0,0.0,0.0,0.0,0.0,0.0,0.0,0.0,0.0,0.0,0.0,0.0,0.0,0.0,0.0,0.0,0.0,0.0,0.0,0.0,0.0,0.0,0.0,0.0,0.0,0.0,0.0,0.0,0.0,0.0,0.0,0.0,0.0,0.0,0.0,0.0,0.0,0.5433,0.0,0.0,0.0,0.0,0.0,0.0,0.0,0.0,0.0,0.0,0.0,0.0,0.0,0.0,0.0,0.0,0.0,0.0,0.0,0.0,0.0,0.0,0.0,0.0,0.0,0.0,0.0,0.0,0.0,0.0,0.0,0.0,0.0,0.0,0.0,0.0,0.0,0.0,1.6082,1.6082,1.5952,1.57,1.4857,1.4156,1.3663,0.0,0.0,0.0,0.0,0.0,0.0,0.0,0.0,0.0,0.0,0.0,0.0,0.0,0.0,0.0,0.0,0.0,0.0,0.0,0.0,0.0,0.0,0.0,0.0,0.0,0.0,0.0,0.0,0.0,0.0,0.0,0.0,0.0,0.0,0.0,0.0,0.0,0.0,0.0,0.0,0.0,0.0,0.0,0.0,0.0,0.0,0.0,0.0,0.0,0.0,0.0,0.0,0.0,0.0,0.0,0.0,0.0,0.0,0.0,0.0,0.0,0.0,0.0,0.0,0.0,0.0,0.0,0.0,0.0,0.0,0.0,0.5504,0.0,0.0,0.0,0.0,0.0,0.0,0.0,0.0,0.0,0.0,0.0,0.0,0.0,0.0,0.0,0.0,0.0,0.0,0.0,0.0,0.0,0.0,0.0,1.8008,1.8008,1.8008,1.8008,1.8008,0.0,0.0,0.0,0.0,0.0,0.0,1.849,1.8184,1.7672,1.7076,1.7414,1.7396,1.7061,1.6958,1.6365,1.531,1.4456,0.0,0.0,0.0,0.0,0.0,0.0,0.0,0.0,0.0,0.0,0.0,0.0,0.0,0.0,0.0,0.0,0.0,0.0,0.0,0.0,0.0,0.0,0.0,0.0,0.0,0.0,0.0,0.0,0.0,0.0,0.0,0.0,0.0,0.0,0.0,0.0,0.0,0.0,0.0,0.0,0.0,0.0,0.0,0.0,0.0,0.0,0.0,0.0,0.0,0.0,0.0,0.0,0.0,0.0,0.0,0.0,0.0,0.0,0.0,0.0,0.0,0.0,0.0,0.9394,0.8788,0.8941,0.7529,0.6996,0.7069,0.6184,0.5755,0.5701,0.0,0.0,0.0,0.0,0.0,0.0,0.0,0.0,0.0,0.0,0.0,0.0,0.0,0.0,0.0,0.0,0.0,0.0,0.0,0.0,0.0,0.0,1.8008,1.8008,1.8008,1.8008,1.8008,1.8008,0.0,0.0,0.0,0.0,0.0,1.8096,1.8037,1.8293,1.8924,2.0622,2.17,2.2127,2.1618,2.085,1.9783,1.685,1.5642,1.5813,0.0,0.0,0.0,0.0,0.0,0.0,0.0,0.0,0.0,0.0,0.0,0.0,0.0,0.0,0.0,0.0,0.0,0.0,0.0,0.0,0.0,0.0,0.0,0.0,0.0,0.0,0.0,0.0,0.0,0.0,0.0,0.0,0.0,0.0,0.0,0.0,0.0,0.0,0.0,0.0,0.0,1.541,1.541,0.0,0.0,0.0,0.0,0.0,0.0,0.0,0.0,0.0,0.0,0.0,0.0,0.0,0.0,1.1444,1.1738,1.1497,1.0639,1.0622,1.0605,1.0481,0.9159,0.867,0.8698,0.7199,0.0,0.619,0.5884,0.0,0.0,0.0,0.0,0.0,0.0,0.0,0.0,0.0,0.0,0.0,0.0,0.0,0.0,0.0,0.0,0.0,0.0,0.0,0.0,0.0,1.8428,1.8721,1.8721,1.9737,2.0082,1.9495,1.9554,0.0,0.0,0.0,1.8236,1.8721,1.8721,1.946,2.095,2.2114,2.3102,2.3886,2.3631,2.2956,2.194,2.0672,1.8755,1.6392,1.6038,0.0,0.0,0.0,0.0,0.0,0.0,0.0,0.0,0.0,0.0,0.0,0.0,0.0,0.0,0.0,0.0,0.0,0.0,0.0,0.0,0.0,0.0,0.0,0.0,0.0,0.0,0.0,0.0,0.0,0.0,0.0,0.0,0.0,0.0,0.0,0.0,0.0,0.0,0.0,1.6434,1.6417,1.5498,1.582,1.5927,0.0,0.0,0.0,0.0,0.0,0.0,0.0,0.0,0.0,1.2164,1.2746,1.2923,1.2683,1.3204,1.3327,1.3059,1.2588,1.2411,1.2479,1.0353,0.9453,0.9421,0.7779,0.7339,0.7665,0.656,0.5874,0.5583,0.0,0.0,0.0,0.0,0.0,0.5525,0.0,0.0,0.0,0.0,0.0,0.0,0.0,0.0,0.0,0.0,0.0,0.0,1.852,1.9458,2.009,2.0252,2.1462,2.1846,2.1049,2.0762,2.024,1.9435,1.8656,1.859,1.9403,2.0019,2.1152,2.2754,2.3839,2.4809,2.5648,2.5639,2.512,2.4213,2.4102,2.172,1.7786,1.745,1.6862,1.6195,0.0,0.0,0.0,0.0,0.0,0.0,0.0,0.0,0.0,0.0,0.0,0.0,0.0,0.0,0.0,0.0,0.0,0.0,0.0,0.0,0.0,0.0,0.0,0.0,0.0,0.0,0.0,0.0,0.0,0.0,0.0,0.0,0.0,0.0,0.0,0.0,0.0,1.7352,1.7349,1.5615,1.6356,1.6638,0.0,0.0,0.0,0.0,0.0,0.0,1.3933,1.3661,1.3388,1.3125,1.3667,1.3973,1.4053,1.4552,1.4963,1.5184,1.4399,1.4122,1.431,1.1907,1.0805,1.064,0.9053,0.8571,0.8752,0.7064,0.6283,0.6171,0.5814,0.5576,0.5508,0.5508,0.5579,0.564,0.0,0.0,0.0,0.0,0.0,0.0,0.0,0.0,0.0,0.0,0.0,1.9433,1.9941,2.1224,2.2274,2.2875,2.2467,2.2173,2.2116,2.0638,1.9732,1.9676,1.9141,1.9108,1.9665,2.205,2.358,2.4193,2.6658,2.8113,2.8675,2.8662,2.836,2.7789,2.6211,2.4069,2.1547,2.0256,1.943,1.8861,1.7216,0.0,0.0,0.0,0.0,0.0,0.0,0.0,0.0,0.0,0.0,0.0,0.0,0.0,0.0,0.0,0.0,0.0,0.0,0.0,0.0,0.0,0.0,0.0,0.0,0.0,0.0,0.0,0.0,0.0,0.0,0.0,0.0,0.0,0.0,0.0,0.0,0.0,0.0,1.5645,1.6914,0.0,0.0,0.0,0.0,1.7813,1.7446,1.6881,1.6091,1.5631,1.4958,1.405,1.4633,1.503,1.5304,1.5611,1.5724,1.5738,1.5704,1.5669,1.5683,1.4304,1.353,1.3141,1.1733,1.0255,0.8761,0.714,0.7027,0.7732,0.6335,0.5786,0.5779,0.5779,0.5783,0.5772,0.0,0.0,0.0,0.0,0.0,0.0,0.0,0.0,1.8008,1.8008,1.8754,1.9626,2.0522,2.2048,2.3429,2.4366,2.4784,2.4505,2.3442,2.2273,2.1152,2.0062,1.9644,2.0285,2.2104,2.3587,2.5139,2.6754,2.8013,2.8925,2.949,2.9465,2.9172,2.8619,2.8326,2.6897,2.4594,2.2206,2.0779,1.9984,1.8792,1.8156,0.0,0.0,0.0,0.0,0.0,0.0,0.0,0.0,0.0,0.0,0.0,0.0,0.0,0.0,0.0,0.0,0.0,0.0,0.0,0.0,0.0,0.0,0.0,0.0,0.0,0.0,0.0,0.0,0.0,0.0,0.0,0.0,0.0,0.0,0.0,0.0,0.0,1.8089,1.8936,0.0,1.8267,1.8428,1.8521,1.834,1.8412,1.8138,1.751,1.693,1.6431,1.6125,1.5709,1.5571,1.5671,1.5731,1.5784,1.5784,1.5784,1.5784,1.5778,1.4459,1.3649,1.3204,1.187,1.1204,1.0967,0.9572,0.8195,0.6857,0.6325,0.5976,0.58,0.58,0.5864,0.5905,0.0,0.0,0.0,0.0,0.0,0.0,0.0,0.0,1.7894,1.8175,1.9149,2.0367,2.1882,2.3533,2.4949,2.609,2.6005,2.5448,2.4343,2.2874,2.1529,2.0423,2.0676,2.1631,2.3321,2.5037,2.664,2.8109,2.885,2.9415,2.9792,2.998,2.9876,2.946,2.9606,2.8834,2.7316,2.4977,2.2918,2.1182,2.0769,2.0334,1.9805,0.0,0.0,0.0,0.0,0.0,0.0,0.0,0.0,0.0,0.0,0.0,0.0,0.0,0.0,0.0,0.0,0.0,0.0,0.0,0.0,0.0,0.0,0.0,0.0,0.0,0.0,0.0,0.0,0.0,0.0,0.0,0.0,0.0,0.0,2.0748,2.0925,1.9639,2.0644,2.1045,2.0039,2.0205,2.0304,2.0071,2.0279,2.0149,1.9514,1.8935,1.8226,1.7378,1.6782,1.6251,1.5784,1.5784,1.5784,1.5784,1.5784,1.5784,1.5784,1.4949,1.4315,1.3896,1.2974,1.2506,1.2396,1.1457,0.963,0.7489,0.7473,0.7045,0.6463,0.6463,0.6314,0.6091,0.0,0.0,0.0,0.0,0.0,0.0,0.0,1.7373,1.767,1.8478,1.9875,2.1686,2.4064,2.5645,2.6939,2.8009,2.6088,2.4775,2.4738,2.2196,2.0704,2.0742,2.2246,2.312,2.3263,2.6461,2.8133,2.8196,2.929,2.983,2.9804,3.0331,3.0608,3.0578,3.0058,2.9827,2.9779,2.8743,2.612,2.2742,2.3054,2.2403,2.1192,0.0,0.0,0.0,0.0,0.0,0.0,0.0,0.0,0.0,0.0,0.0,0.0,0.0,0.0,0.0,0.0,0.0,0.0,0.0,0.0,0.0,0.0,0.0,0.0,0.0,0.0,0.0,0.0,0.0,0.0,0.0,0.0,0.0,2.0867,2.159,2.1771,2.0223,2.1863,2.2652,2.1414,2.2038,2.2744,2.3101,2.3184,2.2863,2.2098,2.1572,2.0215,1.787,1.7731,1.7131,1.5872,1.5825,1.5784,1.5784,1.5784,1.5784,1.5784,1.5784,1.5665,1.5364,1.5129,1.4193,1.2818,1.2476,1.1433,0.9999,0.9795,0.8956,0.7859,0.7859,0.7211,0.6332,0.0,0.0,0.0,0.0,0.0,0.0,0.0,1.6626,1.729,1.8437,1.9875,2.1857,2.4657,2.5879,2.6939,2.8009,2.6088,2.4449,2.3622,2.1757,2.1043,2.1832,2.2297,2.3989,2.7092,2.8038,2.9148,3.0351,3.0677,3.0457,2.9792,2.9942,3.0432,3.1185,3.1025,3.0924,3.0874,3.1896,3.0505,2.7466,2.5348,2.42,2.368,0.0,0.0,0.0,0.0,0.0,0.0,0.0,0.0,0.0,0.0,0.0,0.0,0.0,0.0,0.0,0.0,0.0,0.0,0.0,0.0,0.0,0.0,0.0,0.0,0.0,0.0,0.0,0.0,0.0,0.0,0.0,2.5259,2.4862,2.3616,2.3733,2.3784,2.3221,2.3656,2.3926,2.353,2.375,2.3945,2.4007,2.3789,2.3528,2.3319,2.2031,2.098,2.035,1.8588,1.7552,1.7178,1.6251,1.5784,1.5784,1.5784,1.5784,1.5784,1.5784,1.5558,1.5122,1.5042,1.4537,1.3756,1.3636,1.3096,1.2135,1.0479,0.9468,0.8879,0.8879,0.8732,0.8467,0.0,0.0,0.0,0.0,0.0,0.0,0.0,1.6399,1.7239,1.8717,1.985,2.1672,2.4694,2.5282,2.5774,2.6653,2.4707,2.315,2.2456,2.1907,2.2095,2.3259,2.4484,2.6432,2.9233,2.9571,3.0236,3.1217,3.0796,3.0317,2.9792,2.9792,3.0369,3.1386,3.1386,3.1613,3.2077,3.3134,3.239,3.0411,2.8687,2.7535,2.6606,2.4489,2.4046,2.4363,2.2742,2.2149,2.1905,2.0561,0.0,0.0,0.0,0.0,0.0,0.0,0.0,0.0,0.0,0.0,0.0,0.0,0.0,0.0,0.0,0.0,0.0,0.0,0.0,0.0,0.0,0.0,0.0,0.0,2.7273,2.7464,2.7364,2.6637,2.6132,2.6229,2.5931,2.5738,2.5738,2.5243,2.4923,2.4923,2.457,2.4326,2.4326,2.3243,2.2279,2.1608,2.0242,1.9162,1.8457,1.7217,1.6622,1.6574,1.6062,1.5784,1.5784,1.5784,1.5578,0.0,1.5062,1.4703,1.4262,1.4135,1.3741,0.0,0.0,0.0,0.0,0.0,0.9296,0.9266,0.0,0.0,0.0,0.0,0.0,0.0,0.0,1.6325,1.7235,1.913,1.9814,2.1288,2.4384,2.4293,2.4167,2.4562,2.2698,2.1511,2.1531,2.2336,2.3472,2.4936,2.7635,2.9529,3.0452,3.1156,3.1536,3.1536,3.0671,3.0215,3.0061,3.0061,3.0563,3.1486,3.1486,3.2077,3.3124,3.3144,3.2832,3.2194,3.216,3.1213,2.9455,2.6596,2.6109,2.6725,2.494,2.399,2.3518,2.3276,0.0,0.0,0.0,0.0,0.0,0.0,0.0,0.0,0.0,0.0,0.0,0.0,0.0,0.0,0.0,0.0,0.0,0.0,0.0,0.0,0.0,0.0,0.0,0.0,2.9616,3.0409,3.1352,2.9989,2.8885,2.9015,2.8225,2.771,2.771,2.6458,2.5693,2.5693,2.5322,2.5116,2.5116,0.0,0.0,0.0,0.0,2.1225,1.9724,1.8503,1.7917,1.787,1.6615,1.6015,1.6015,1.5872,1.5671,1.5384,1.5169,1.4823,1.4496,1.4242,1.3768,1.32,1.3133,1.2222,1.0864,0.997,0.9621,0.0,0.0,0.0,0.0,0.0,0.0,0.0,0.0,1.5588,1.6647,1.9427,1.9988,2.1128,2.386,2.4067,2.3853,2.3459,2.2246,2.1555,2.1734,2.2419,2.4001,2.6688,2.8271,3.0189,3.2542,3.3146,3.3449,3.3449,3.329,3.264,3.1588,3.1588,3.1744,3.2051,3.2051,3.2441,3.3106,3.3558,3.3915,3.4086,3.3032,3.1827,3.0662,3.0176,2.9624,2.8969,2.7512,2.6773,2.62,2.4361,2.4079,2.4352,2.3636,2.319,0.0,0.0,0.0,0.0,0.0,0.0,0.0,0.0,0.0,0.0,0.0,0.0,0.0,0.0,0.0,0.0,0.0,0.0,0.0,2.9302,3.0821,3.2118,3.3214,3.341,3.2702,3.0816,2.9206,2.8242,2.8242,2.6687,2.5693,2.5693,2.5322,2.5116,2.5116,2.4336,0.0,2.3464,2.215,2.1284,2.098,1.9761,1.9131,1.9131,0.0,0.0,1.7318,1.6244,1.5671,1.5391,1.5337,1.501,1.4516,1.4456,1.3955,1.316,1.2665,1.2293,1.2003,1.1774,1.1597,1.1425,0.0,0.0,0.0,0.0,0.0,0.0,0.0,1.5496,1.6688,1.8416,1.889,1.9722,2.1468,2.141,2.1265,2.1349,2.0924,2.1074,2.2049,2.3771,2.5952,2.8688,3.074,3.2591,3.4324,3.4119,3.4171,3.4488,3.3479,3.283,3.2486,3.1954,3.1873,3.2215,3.2215,3.2541,3.3136,3.337,3.3646,3.3878,3.3445,3.2613,3.1563,3.1248,3.0913,3.048,2.9485,2.8723,2.7919,2.6805,2.6318,2.6185,2.5721,2.5125,2.4496,0.0,0.0,0.0,0.0,0.0,0.0,0.0,0.0,0.0,0.0,0.0,0.0,0.0,0.0,2.5548,2.6631,0.0,2.875,3.0683,3.2152,3.3257,3.3822,3.4568,3.4545,3.3026,3.0948,2.9567,2.9328,2.7309,2.5977,2.5703,2.5527,2.54,2.54,2.4785,2.4326,2.4111,2.3069,2.2424,2.2217,2.098,2.0395,2.0395,1.8549,1.7692,1.7645,1.6386,1.5671,1.5391,1.5244,1.493,1.4496,1.4159,1.378,1.3347,1.2933,1.2572,1.2305,1.2305,1.2211,1.2104,0.0,0.0,0.0,0.0,0.0,0.0,0.0,1.5413,1.6571,1.7494,1.7782,1.8244,1.9141,1.8802,1.8748,1.938,1.9523,2.0432,2.2441,2.5009,2.7534,3.0111,3.2788,3.4451,3.4953,3.4626,3.4528,3.4703,3.3408,3.2898,3.3106,3.2256,3.2044,3.2378,3.2378,3.2704,3.3275,3.3275,3.3307,3.342,3.3759,3.3294,3.2276,3.1518,3.1254,3.1173,3.0645,2.9729,2.8737,2.8737,2.8185,2.7457,2.757,2.6904,2.5963,2.5322,2.4908,0.0,0.0,0.0,0.0,0.0,0.0,0.0,0.0,2.3584,2.4098,2.5327,2.6038,2.6992,2.8863,2.9389,3.0104,3.1926,3.3169,3.3897,3.3897,3.4705,3.5144,3.4625,3.251,3.0868,3.0274,2.8126,2.6438,2.5771,2.5762,2.5781,2.5693,2.5312,2.4863,2.4424,2.4004,2.3584,2.3101,2.2129,2.1658,2.1614,1.9451,1.8411,1.8365,1.685,1.604,1.5732,1.5158,1.4743,1.4482,1.3906,1.3653,1.358,1.3347,1.2926,1.2385,1.2385,1.2318,1.2225,0.0,0.0,0.0,0.0,0.0,0.0,0.0,0.0,1.5434,1.8134,1.7899,1.7898,1.9007,1.8744,1.8571,1.8792,1.8804,2.0079,2.3088,2.4598,2.6715,2.9725,3.2027,3.3139,3.2912,3.5078,3.5365,3.3578,3.4842,3.4839,3.3633,3.3512,3.3266,3.298,3.298,3.3282,3.3809,3.3809,3.4085,3.45,3.4073,3.3533,3.293,3.2297,3.1501,3.0633,3.008,2.9164,2.8197,2.8197,2.8109,2.8097,2.8549,2.8323,2.762,2.6625,2.5267,2.3841,2.2711,2.2096,2.2209,2.4048,2.376,2.3785,0.0,2.6741,2.6575,2.8098,2.8925,2.9553,3.0294,3.121,3.1926,3.2177,3.3169,3.3897,3.3897,3.4424,3.4613,3.406,3.2774,3.1483,3.0334,2.8876,2.7367,2.582,2.6103,2.6143,2.5703,2.5312,2.4863,2.4424,2.4004,2.3584,2.3101,2.296,2.2906,2.2862,2.1534,2.089,2.08,1.8542,1.7313,1.6905,1.5276,1.4549,1.4496,1.4168,1.3881,1.36,1.3567,1.3227,1.2737,1.2737,1.2402,1.1993,0.0,0.0,0.0,0.0,0.0,0.0,0.0,0.0,0.0,1.6232,1.629,1.6481,1.7284,1.7339,1.7533,1.8027,1.8447,1.9858,2.2588,2.4662,2.681,2.906,3.1508,3.2744,3.2593,3.3684,3.4129,3.3992,3.4067,3.4157,3.4266,3.3633,3.3255,3.3093,3.342,3.3684,3.3897,3.3897,3.4035,3.4198,3.3646,3.288,3.2039,3.1486,3.0193,2.8687,2.8775,2.8097,0.0,2.6414,2.6389,2.6678,2.6917,2.6829,2.649,2.5724,2.5021,2.4305,2.3502,2.3577,2.4029,2.4637,2.539,2.6389,2.7783,2.826,2.8599,2.9289,3.0118,3.0796,3.1022,3.17,3.2328,3.2667,3.3382,3.3671,3.3006,3.3407,3.3432,3.2541,3.1992,3.1165,2.9838,2.8505,2.7177,2.5791,2.5859,2.5937,2.5703,2.5312,2.4863,2.4424,2.4004,2.3584,2.3101,2.3091,2.3091,2.3101,2.1889,2.1293,2.1248,1.9542,1.8163,1.7131,1.5473,1.4676,1.4496,1.4208,1.4015,1.3901,1.3901,1.354,1.2993,1.2851,1.2522,1.2138,0.0,0.0,0.0,0.0,0.0,0.0,0.0,0.0,0.0,0.0,1.5055,1.5496,1.6043,1.6275,1.6618,1.723,1.7977,1.936,2.1626,2.4013,2.6162,2.802,3.0446,3.1779,3.1829,3.2521,3.3097,3.358,3.325,3.346,3.4233,3.3484,3.3124,3.3136,3.3495,3.3759,3.3897,3.3897,3.3809,3.3633,3.3244,3.2227,3.0871,3.0181,2.8624,2.6866,2.7268,2.6603,2.5456,2.4619,2.4707,2.5159,2.5159,2.536,2.5473,2.4795,2.4449,2.4299,2.4255,2.4795,2.5473,2.5828,2.7155,2.8448,2.89,2.9528,3.0055,3.0206,3.0733,3.1223,3.1361,3.1725,3.2164,3.2754,3.3169,3.3144,3.2328,3.2579,3.2428,3.1311,3.1173,3.0665,2.9347,2.8704,2.774,2.6114,2.6237,2.6181,2.5742,2.5312,2.4863,2.4424,2.4004,2.3584,2.3101,2.3091,2.3091,2.3091,2.2208,2.18,2.1747,2.0471,1.9109,1.7634,1.6396,1.5704,1.5426,1.5113,1.4817,1.4531,1.4531,1.4008,1.318,1.2998,1.2632,1.2305,0.0,0.0,0.0,0.0,0.0,0.0,0.0,0.0,0.0,0.0,0.0,0.0,0.0,1.6115,1.6228,1.6495,1.7202,1.8423,2.0318,2.2182,2.4199,2.6492,2.8517,2.9699,2.987,3.232,3.2898,3.1508,3.3035,3.3552,3.3154,3.3124,3.3124,3.3124,3.3136,3.3395,3.3897,3.3897,3.3583,3.3106,3.3124,3.1775,2.9716,2.8599,2.713,2.5649,2.5661,2.4619,2.3195,2.3158,2.3534,2.4054,2.4054,2.4757,2.5385,2.433,2.3597,2.3396,2.4474,2.4788,2.5452,2.8098,2.8813,2.9276,3.0922,3.0922,3.0733,3.1235,3.0972,3.0796,3.1298,3.1399,3.1599,3.2152,3.2252,3.2252,3.2215,3.2227,3.1838,3.0771,3.0633,3.014,2.8952,3.0091,2.9726,2.6882,2.7583,2.7385,2.5801,2.5312,2.4863,2.4424,2.4004,2.3584,2.3101,2.3091,2.3091,2.3091,2.3047,2.3047,2.2994,2.1534,2.0202,1.9007,1.8251,1.7895,1.7854,1.7409,1.6601,1.5655,1.5655,1.4634,1.3213,1.32,1.2819,1.2305,0.0,0.0,0.0,0.0,0.0,0.0,0.0,0.0,0.0,0.0,0.0,0.0,0.0,0.0,0.0,0.0,1.6736,1.7531,1.9028,2.1153,2.2889,2.4059,2.6631,2.8244,2.8662,2.9865,3.0624,3.0871,3.1396,3.1777,3.1951,3.1951,3.2152,3.2516,3.2905,3.3382,3.3872,3.3508,3.3257,3.2955,3.1486,3.0218,2.9051,2.757,2.5749,2.3885,0.0,2.2824,2.1933,2.1179,2.1305,2.1823,2.1823,2.2284,2.2874,2.2874,2.354,2.4311,2.4687,2.6117,2.7734,2.8662,2.9979,3.126,3.18,3.18,3.1625,3.1436,3.0382,2.944,2.9252,2.9515,2.9942,3.052,3.1512,3.2215,3.2215,3.2215,3.1813,3.0746,3.062,3.0298,2.9557,2.9508,0.0,2.7491,2.7257,2.6957,2.639,2.5563,2.4863,2.4424,2.4004,2.3584,2.3101,2.3091,2.3091,2.3091,2.3091,2.3091,2.3047,2.1759,2.0917,2.0474,1.8937,1.8285,1.8235,1.759,1.709,1.674,1.6461,1.5495,1.4243,1.3964,1.3205,1.2305,0.0,0.0,0.0,0.0,0.0,0.0,0.0,0.0,0.0,0.0,0.0,0.0,0.0,0.0,0.0,0.0,0.0,1.7044,1.7746,1.9654,2.1087,2.1875,2.4131,2.575,2.6493,2.7126,2.7872,2.8825,2.9026,2.9503,3.0218,3.0419,3.0922,3.1662,3.2026,3.2491,3.2968,3.2428,3.1964,3.1436,2.9628,2.8323,2.7245,2.5611,2.3966,0.0,2.1681,2.1192,2.0778,2.0049,2.0188,2.0691,2.0691,2.1207,2.1933,2.2698,2.3816,2.5001,2.5991,2.7546,2.9076,2.9866,3.1022,3.1976,3.2177,3.1913,3.1424,3.067,2.9515,2.8398,2.7657,2.7808,2.8298,2.9063,3.0068,3.0959,3.1562,3.1474,3.1235,3.0922,3.0733,3.047,3.0118,2.9721,2.9064,2.814,2.7855,2.7448,2.6727,2.5757,2.4947,2.4424,2.3857,2.3428,2.3091,2.3091,2.3091,2.3091,2.3091,2.3091,2.3047,2.2306,2.1859,2.1639,2.0247,1.9551,1.9366,1.8734,1.8143,1.7638,1.7383,1.636,1.5041,1.4794,1.4125,1.3237,0.0,0.0,0.0,0.0,0.0,0.0,0.0,0.0,0.0,0.0,0.0,0.0,0.0,0.0,0.0,0.0,0.0,0.0,1.6467,1.7689,1.8886,1.992,2.1202,2.2432,2.3547,2.4299,2.4968,2.5515,2.6101,2.6939,2.7946,2.8436,2.9264,3.0357,3.0357,3.0645,3.1097,3.0583,2.9703,2.8624,2.7519,2.6126,2.4525,2.2899,2.1933,2.1333,2.0225,1.9823,1.9811,1.9836,2.025,2.0779,2.0779,2.1531,2.2648,2.3728,2.4494,2.5528,2.8173,2.895,2.9515,3.165,3.18,3.1549,3.2026,3.1298,3.0218,2.9076,2.836,2.757,2.6562,2.6411,2.6801,2.7846,2.816,2.8837,3.047,3.0269,3.0331,3.1311,3.0997,3.0683,3.0658,3.0658,3.018,2.901,0.0,2.8749,2.6908,2.5973,2.518,2.4457,2.3619,2.3178,2.3091,2.3091,2.3091,2.3091,2.3091,2.3081,2.3062,2.3062,2.2838,2.2461,2.2031,2.1621,2.1161,2.0723,1.9696,1.8391,1.8317,1.722,1.5691,1.5675,1.5452,1.495,0.0,0.0,0.0,0.0,0.0,0.0,0.0,0.0,0.0,0.0,0.0,0.0,0.0,0.0,0.0,0.0,0.0,0.0,1.5662,1.694,1.7787,1.8084,1.967,2.0896,2.1594,2.2767,2.3636,2.4192,2.4884,2.5385,2.5628,2.5766,2.6226,2.6879,2.6879,2.7193,2.7718,2.7118,2.6703,2.6314,2.4763,2.391,2.3396,2.2171,2.1355,2.0867,2.0578,2.0189,1.9874,2.0327,2.1091,2.1895,2.1895,2.2949,2.4211,2.4519,2.5875,2.7519,2.8587,2.9829,3.0896,3.1461,3.18,3.1825,3.1173,3.0116,2.9126,2.8461,2.6578,2.4958,2.4682,2.5285,2.6084,2.6801,2.8938,3.0846,3.1687,3.2051,3.2177,3.2026,3.1888,3.165,3.1235,3.1198,3.1063,0.0,2.9651,2.8798,2.8284,2.7238,2.6184,2.5194,2.4638,2.3963,2.3091,2.3091,2.3091,2.3091,2.3091,2.2925,2.2676,2.2676,2.2441,2.2021,2.1592,2.1298,2.1132,2.04,1.9858,1.942,1.8799,1.7796,1.6775,1.6475,1.5876,1.5128,0.0,0.0,0.0,0.0,0.0,0.0,0.0,0.0,0.0,0.0,0.0,0.0,0.0,0.0,0.0,0.0,0.0,0.0,0.0,1.6316,1.6601,1.6836,1.8096,1.8863,1.8978,2.0221,2.1035,2.1315,2.1815,2.2252,2.2666,2.3037,2.3631,2.4423,2.4753,2.5209,2.5699,2.5134,2.4745,0.0,0.0,2.2272,2.1958,2.1079,2.0564,2.0314,2.0314,2.0401,2.0665,2.1481,2.2334,2.31,2.3339,2.4393,2.5636,2.6126,2.7143,2.8386,2.9666,3.0683,3.1449,3.1687,3.18,3.1499,3.0181,2.9202,2.821,2.6929,2.5435,2.4205,2.3715,2.4318,2.5159,2.5984,2.8059,3.003,3.1336,3.1788,3.2139,3.2541,3.2365,3.2089,3.1788,3.175,3.1562,3.1085,3.013,2.9463,2.9172,2.8115,2.7091,2.6174,2.5753,2.501,2.3844,2.3343,2.3091,2.3091,2.2906,2.2744,2.251,2.2324,2.2002,2.1582,0.0,2.1083,2.0908,2.04,1.998,1.959,1.9111,1.8363,1.7509,1.7301,1.6897,1.6446,0.0,0.0,0.0,0.0,0.0,0.0,0.0,0.0,0.0,0.0,0.0,0.0,0.0,0.0,0.0,0.0,0.0,0.0,0.0,0.0,1.5752,1.6163,1.6779,1.6941,1.6537,1.7658,1.8242,1.8242,1.8456,1.8946,1.9711,2.0569,2.1451,2.2366,2.3108,2.3753,2.423,2.3678,2.3201,2.2681,2.1681,2.1006,2.0515,0.0,1.9798,1.9798,1.9798,2.0476,2.1556,2.2706,2.3584,2.4318,2.4958,2.59,2.7027,2.8021,2.8386,2.8888,3.0947,3.1499,3.1599,3.2001,3.1687,3.0834,2.9101,2.8222,2.7193,2.5134,2.4625,2.4261,2.3283,2.3634,2.4456,2.5536,2.6716,2.826,3.0419,3.0783,3.1386,3.2905,3.2641,3.2328,3.2328,3.2252,3.1825,3.0896,3.0696,3.0316,2.966,2.8798,2.7975,2.7245,2.6779,2.5964,2.483,2.3844,2.3256,2.3091,2.2773,2.2539,2.2412,2.2051,2.1611,2.1103,0.0,0.0,2.0595,2.0537,2.0077,1.9365,1.9307,1.8799,1.8096,1.8096,1.8057,1.8008,0.0,0.0,0.0,0.0,0.0,0.0,0.0,0.0,0.0,0.0,1.1202,1.1357,0.0,0.0,0.0,0.0,0.0,0.0,0.0,0.0,0.0,1.658,1.6705,1.676,1.666,1.7461,1.7889,1.7889,1.8531,1.8736,1.8601,1.9349,1.9614,1.9447,2.0192,2.0853,2.137,2.0778,2.0752,2.1069,2.0363,2.0037,1.9936,1.9836,0.0,0.0,1.9798,2.0238,2.1069,2.2581,2.4073,2.5498,2.6527,2.7607,2.8637,2.9302,2.9829,3.0457,3.1725,3.2077,3.1989,3.1625,3.1135,3.0193,2.8059,2.6779,2.5674,2.4406,2.3722,2.3333,2.3145,2.3948,2.5034,2.6172,2.762,2.9252,3.1009,3.165,3.2215,3.3023,3.2993,3.293,3.293,3.2491,3.2139,0.0,3.1122,3.0378,2.9806,2.9594,2.9025,2.7973,2.701,2.5964,2.483,2.4585,2.4049,2.3091,2.3023,2.2666,2.1992,2.1924,2.1445,2.0684,0.0,0.0,2.0576,2.0176,1.9941,1.9775,1.9424,1.8975,1.849,1.849,1.8276,1.8008,0.0,0.0,0.0,0.0,0.0,0.0,0.0,1.1089,1.1209,1.1804,1.163,1.1591,1.1873,1.2004,1.2655,0.0,0.0,0.0,0.0,0.0,0.0,0.0,1.707,1.6963,1.6707,1.7284,1.7585,1.7585,0.0,1.7781,1.7863,1.8788,1.912,1.8963,2.0165,2.0867,2.1081,2.0515,2.044,2.0641,2.0037,1.9798,1.9798,1.9798,0.0,0.0,1.9798,2.0201,2.0893,2.2246,2.3396,2.4657,2.6653,2.8247,2.9377,2.9352,2.9942,3.0783,3.1574,3.1989,3.2077,3.1524,3.0783,2.9603,2.7404,2.5988,2.4883,2.3747,2.3296,2.3108,2.3108,2.3797,2.4657,2.5473,2.6502,2.7883,2.9829,3.0595,3.1373,3.2491,3.2893,3.3124,3.3124,3.2554,3.2089,3.18,3.106,3.0507,3.0231,2.9942,2.9534,2.8988,2.7907,2.7075,2.6521,2.5953,2.5009,2.3661,2.3427,2.2822,2.1865,2.1447,2.1094,2.0898,2.0703,0.0,2.0586,2.038,2.0117,1.9873,1.9453,1.916,1.8926,1.8477,1.8286,1.8266,0.0,0.0,0.0,0.0,0.0,0.0,0.0,1.1229,1.1376,1.2198,1.2104,1.2,1.2,1.2164,1.2666,0.0,0.0,0.0,0.0,0.0,0.0,0.0,0.0,0.0,1.698,0.0,0.0,1.7519,1.7145,0.0,0.0,0.0,0.0,0.0,2.0779,2.1556,2.1631,2.1106,2.0867,0.0,0.0,1.9911,1.9798,0.0,0.0,0.0,0.0,2.0087,2.0679,2.1757,2.2498,2.3333,2.5674,2.7632,2.9038,2.8812,2.9602,3.0758,3.1386,3.1964,3.224,3.1562,3.0495,2.9051,2.6977,2.5523,2.4324,2.3308,2.3108,2.3108,2.3108,2.3471,2.4042,2.4675,2.5159,2.6251,2.8562,2.9315,3.0256,3.2001,3.2616,3.2893,3.2893,3.2365,3.1813,3.1273,3.0733,0.0,3.0444,3.003,2.9792,2.9792,2.8937,2.8347,2.8096,2.725,2.6106,2.4707,2.4185,2.3366,2.2206,2.1402,2.1076,2.1034,2.0752,0.0,0.0,2.0605,2.0361,2.0019,1.9687,1.9502,1.9346,1.8662,1.8471,1.8559,0.0,0.0,0.0,0.0,0.0,0.0,0.0,1.1369,1.1603,1.2225,1.2278,1.2265,1.2265,1.2285,1.2666,0.0,0.0,0.0,0.0,0.0,0.0,0.0,0.0,0.0,0.0,0.0,0.0,1.7949,1.791,0.0,0.0,0.0,0.0,0.0,0.0,2.1769,2.2196,2.1644,0.0,0.0,0.0,0.0,0.0,0.0,0.0,0.0,0.0,1.9836,2.0062,2.1179,2.1933,2.2493,2.3246,2.5008,2.6989,2.7896,2.934,3.0834,3.1863,3.2554,3.2742,3.1662,3.0181,2.8561,2.6889,2.5255,2.3891,2.3233,2.3108,2.3108,2.3108,2.3145,2.3534,2.4612,2.4825,2.5803,2.8512,2.8938,2.9765,3.1964,3.2252,3.229,3.229,3.1788,3.1248,3.0721,3.0181,0.0,2.9867,2.9817,2.9792,2.9792,2.9714,2.9157,2.8124,2.8004,2.7377,2.6281,2.5687,2.4701,2.3322,2.278,2.182,2.0664,0.0,0.0,0.0,2.0605,2.0576,2.0537,2.0498,2.0205,1.9844,1.9766,1.9231,1.8598,0.0,0.0,0.0,0.0,0.0,0.0,1.1336,1.1389,1.1703,1.2509,1.2412,1.2371,1.2589,1.2412,1.2445,1.2806,0.0,0.0,0.0,0.0,0.0,0.0,0.0,0.0,0.0,0.0,1.8008,1.8008,1.8008,0.0,0.0,0.0,0.0,0.0,0.0,2.2569,2.2744,2.2221,0.0,0.0,0.0,0.0,0.0,0.0,0.0,0.0,0.0,0.0,1.9874,2.0326,2.0614,2.084,2.1066,2.2209,2.391,2.5975,2.7783,2.9352,3.0457,3.1399,3.1876,3.111,2.9415,2.767,2.6713,2.4908,2.3384,2.3158,2.3108,2.3245,2.3738,2.3826,2.4129,2.5017,2.4866,2.5189,2.686,2.709,2.7873,2.9969,3.0545,3.1009,3.165,3.1235,3.0696,3.0168,0.0,0.0,2.9792,2.9792,2.9792,2.9792,2.9792,2.9573,2.9118,2.9106,2.8452,2.7079,2.6504,2.5563,2.4384,2.3558,2.2706,2.1839,0.0,0.0,0.0,2.0605,2.0605,2.0576,2.0273,2.0225,2.0244,1.9727,1.9326,1.8994,0.0,0.0,0.0,0.0,0.0,1.1127,1.1702,1.156,1.171,1.2549,1.2432,1.2385,1.263,1.2425,1.2305,1.2305,1.2305,0.0,0.0,0.0,0.0,0.0,0.0,0.0,0.0,0.0,1.8008,1.8008,1.8008,1.8008,0.0,0.0,2.0365,2.0655,0.0,0.0,0.0,0.0,0.0,0.0,0.0,0.0,0.0,0.0,0.0,0.0,0.0,0.0,0.0,0.0,0.0,1.9798,1.9798,2.0351,2.1468,2.3904,2.6163,2.8072,2.9038,3.0319,3.1223,3.0545,2.8812,2.7128,2.6399,2.4607,2.3108,2.3108,2.3275,2.3632,2.4205,2.4481,2.4794,2.5315,2.5052,2.5107,2.6109,2.6162,2.6922,2.9114,2.9466,3.0008,3.1182,3.0729,3.0218,2.9829,0.0,0.0,0.0,2.9792,2.9792,2.9792,2.9792,2.9792,2.9792,2.9792,2.9183,2.7926,2.733,2.6417,2.5207,2.4351,2.3594,2.2922,0.0,0.0,0.0,2.1155,2.1001,2.0971,2.0661,2.0551,2.0566,2.021,1.9829,1.9424,0.0,0.0,0.0,0.0,0.0,0.0,1.2584,1.1935,1.1602,1.2231,1.2305,1.2305,1.2305,1.2305,1.2305,1.2305,1.2305,0.0,0.0,0.0,0.0,0.0,0.0,0.0,0.0,0.0,1.8008,1.8008,1.8008,1.8008,1.8008,1.8888,1.9781,2.0655,0.0,0.0,0.0,0.0,0.0,0.0,0.0,0.0,0.0,0.0,0.0,0.0,0.0,0.0,0.0,0.0,0.0,0.0,0.0,1.9811,2.015,2.1845,2.4695,2.7419,2.7971,2.9716,3.1135,3.0068,2.8524,2.6992,2.5862,2.4318,2.3108,2.3108,2.3738,2.4292,2.4292,2.4908,2.5398,2.5398,2.5384,2.577,2.6838,2.6818,2.7622,3.0188,2.9561,2.9466,3.0856,3.0292,2.9804,0.0,0.0,0.0,0.0,2.9792,2.9792,2.9792,2.9792,2.9792,2.9792,2.9792,2.9503,2.8888,2.8336,2.7262,2.5766,2.523,2.4456,0.0,0.0,0.0,0.0,2.2403,2.1989,2.1989,2.1989,2.1403,2.0712,2.1621,2.1069,1.9902,0.0,0.0,0.0,0.0,0.0,0.0,0.0,1.1822,1.1602,1.2225,1.2305,1.2378,1.2623,1.2425,1.2305,1.2305,1.2305,0.0,0.0,0.0,0.0,0.0,0.0,0.0,0.0,0.0,1.8008,1.8008,1.8008,1.8303,1.8877,1.9177,2.0074,2.1491,2.1784,2.2353,0.0,0.0,0.0,0.0,0.0,0.0,0.0,0.0,0.0,0.0,0.0,0.0,0.0,0.0,0.0,0.0,0.0,0.0,0.0,2.0439,2.2159,2.4255,2.5937,2.6892,2.7444,2.7542,2.6553,2.5618,2.5749,2.4402,2.3382,2.4467,2.4481,2.4595,2.5618,2.5987,2.631,2.6811,2.689,2.7023,2.7299,2.7638,2.8166,2.9027,2.9351,2.9693,3.0152,0.0,2.9792,0.0,0.0,0.0,0.0,2.9792,2.9792,2.9792,2.9415,2.939,2.9792,2.9402,2.9076,2.8888,2.8373,2.7663,2.6803,2.626,0.0,0.0,0.0,0.0,0.0,2.3147,2.3036,2.3036,2.3036,2.285,2.2638,2.2925,2.2557,2.1937,0.0,0.0,0.0,0.0,0.0,0.0,0.0,1.2109,1.1758,1.194,1.2071,1.2248,1.2435,1.2345,1.2305,1.2305,1.2305,0.0,0.0,0.0,0.0,0.0,0.0,0.0,1.8008,1.8008,1.8008,1.8008,1.8008,1.8462,1.9299,1.9299,2.0236,2.1908,2.1908,2.2353,0.0,0.0,0.0,0.0,0.0,0.0,1.9798,0.0,0.0,0.0,0.0,0.0,0.0,0.0,0.0,0.0,0.0,0.0,0.0,0.0,2.1275,2.2143,2.4129,2.5285,2.6051,2.648,2.5691,2.5001,2.5826,2.4743,2.3901,2.5147,2.5259,2.5398,2.6336,2.6721,2.706,2.7524,2.76,2.7582,2.7551,2.8217,2.8766,2.8877,2.952,2.996,0.0,2.9884,0.0,0.0,0.0,0.0,0.0,2.9792,2.9792,2.9792,2.9453,2.9327,2.9465,2.9076,2.8687,2.8298,2.7959,2.7507,2.7002,2.665,0.0,0.0,0.0,0.0,0.0,2.3824,2.3761,2.3773,2.4003,2.3818,2.3562,2.3927,2.3661,2.308,0.0,0.0,0.0,0.0,0.0,0.0,0.0,1.2702,1.2011,1.1519,1.1685,1.1879,1.1899,1.2111,1.2278,1.2305,0.0,0.0,0.0,0.0,0.0,0.0,0.0,0.0,1.8008,1.7978,1.7978,1.8008,1.7978,1.8465,1.9398,1.9332,2.0268,2.197,2.1939,2.2329,0.0,0.0,0.0,0.0,0.0,0.0,0.0,0.0,0.0,0.0,0.0,0.0,0.0,0.0,0.0,0.0,0.0,0.0,0.0,0.0,0.0,0.0,0.0,2.4653,2.6332,2.6497,2.5691,2.5069,2.6017,2.5272,0.0,2.5398,2.6068,2.651,2.6563,2.7137,2.76,2.76,2.7645,2.766,2.766,2.87,2.9501,2.9656,3.0099,3.0385,3.0404,3.0147,0.0,0.0,0.0,0.0,0.0,2.9807,2.9743,2.9679,2.9679,2.9428,2.89,2.8813,2.8298,2.7281,2.7281,2.7027,2.6499,2.6449,0.0,0.0,0.0,0.0,0.0,2.4389,2.4241,2.4288,2.4777,2.4411,2.3716,2.4672,2.4458,2.3584,0.0,0.0,0.0,0.0,0.0,0.0,0.0,0.0,0.0,0.0,1.1702,1.1617,1.1879,1.1966,1.2094,0.0,0.0,0.0,0.0,0.0,0.0,0.0,0.0,0.0,1.8008,1.7695,1.7686,1.8008,1.7686,1.8494,2.0268,1.9617,2.0547,2.2793,2.2156,2.2122,0.0,0.0,0.0,0.0,0.0,0.0,0.0,0.0,0.0,0.0,1.985,2.0502,0.0,0.0,0.0,0.0,0.0,0.0,0.0,0.0,2.2045,2.2269,2.2623,0.0,2.4392,2.4844,2.5113,2.5445,0.0,2.5744,2.5494,2.6811,2.6759,2.6669,2.7229,2.7484,2.76,2.76,2.8034,2.8353,2.8353,2.9696,3.0885,3.1429,3.1806,3.164,3.0637,3.14,0.0,0.0,0.0,0.0,0.0,2.9777,2.9181,2.8536,2.8499,2.8637,2.8888,2.8097,2.7544,2.7281,2.7281,2.7027,2.6474,2.6034,0.0,0.0,0.0,0.0,2.48,2.4685,2.4669,2.4682,2.4806,2.4711,2.4548,2.5222,2.5302,2.5095,0.0,0.0,0.0,0.0,0.0,0.0,0.0,0.0,0.0,0.0,0.0,0.0,0.0,0.0,0.0,0.0,0.0,0.0,0.0,0.0,0.0,0.0,0.0,1.7725,1.7725,1.75,1.75,1.7725,1.7686,1.8685,2.059,2.0107,2.09,2.2719,2.2031,2.1654,0.0,0.0,0.0,0.0,2.0239,0.0,0.0,0.0,0.0,0.0,2.0371,2.1055,0.0,2.1756,2.1904,2.2246,0.0,0.0,0.0,0.0,2.2596,2.2715,2.2983,2.3502,2.4111,2.4745,2.4922,2.531,2.6701,2.6213,2.5859,2.7308,2.7043,2.6758,2.7464,2.7106,2.6896,2.7495,2.766,2.7993,2.8921,2.9434,3.0319,3.1889,3.1853,3.1806,0.0,0.0,0.0,0.0,0.0,0.0,0.0,3.0148,2.9556,2.871,2.8418,2.8265,2.8172,2.7582,2.719,2.6939,2.6939,2.665,2.6084,2.5737,0.0,0.0,0.0,0.0,2.4036,2.433,2.4443,2.4469,2.4687,2.4788,2.4825,2.5146,2.5247,2.5209,0.0,0.0,0.0,0.0,0.0,0.0,0.0,0.0,0.0,0.0,0.0,0.0,0.0,0.0,0.0,0.0,0.0,0.0,0.0,0.0,0.0,0.0,1.6535,1.7314,1.7383,1.7288,1.7318,1.748,1.7705,1.8744,2.059,2.059,2.121,2.2284,2.1732,2.1207,0.0,2.1106,2.0677,1.9849,2.0365,0.0,0.0,0.0,0.0,0.0,0.0,0.0,0.0,2.2053,2.1908,2.2086,2.2657,0.0,0.0,0.0,0.0,0.0,2.3465,2.4086,2.4727,2.5347,2.5194,2.5374,2.7198,2.667,2.6167,2.7339,2.7151,2.6871,2.736,2.6587,2.6243,2.7285,2.7151,2.769,2.9891,2.9372,2.9636,3.204,3.166,0.0,0.0,0.0,0.0,0.0,0.0,0.0,0.0,3.061,3.0187,2.9361,2.8856,2.8245,2.7586,2.7331,2.6952,2.6499,2.6411,2.6097,2.5586,2.5423,2.4858,0.0,0.0,0.0,2.3145,2.3665,2.3866,2.3916,2.4349,2.4525,2.455,2.4625,2.4662,2.46,0.0,0.0,0.0,0.0,0.0,0.0,0.0,0.0,0.0,0.0,0.0,0.0,0.0,0.0,0.0,0.0,0.0,0.0,0.0,0.0,0.0,1.5263,1.626,1.7002,1.7373,1.6682,1.6838,1.791,1.7213,1.8171,2.059,2.059,2.121,2.2284,2.1732,2.1207,2.0666,2.0225,1.9962,1.9811,1.9899,0.0,0.0,0.0,0.0,0.0,0.0,0.0,0.0,2.2581,2.2883,2.3341,2.3443,0.0,0.0,0.0,0.0,0.0,2.3573,2.4483,2.5449,2.556,2.6352,2.7198,2.7519,2.7434,2.7339,2.756,2.751,2.73,2.6851,2.7061,2.718,2.6821,2.7619,2.937,3.2467,3.2288,3.2184,3.3181,0.0,0.0,0.0,0.0,0.0,0.0,0.0,0.0,0.0,0.0,2.9942,2.9086,2.8958,2.8871,2.8724,2.7325,2.6575,2.6487,2.5996,2.5686,2.5561,2.4657,2.4155,0.0,0.0,2.3195,2.3108,2.3195,2.3233,2.3246,2.3333,2.3358,2.3421,2.3941,2.4117,2.4117,0.0,0.0,0.0,0.0,0.0,0.0,0.0,0.0,0.0,0.0,0.0,0.0,0.0,0.0,0.0,0.0,0.0,0.0,0.0,0.0,1.4498,1.5308,1.5763,1.6221,1.6692,1.6514,1.6836,1.7676,1.7973,1.907,2.0927,2.1046,2.1387,2.1832,2.0966,2.0439,2.0214,1.9911,1.9798,1.9824,0.0,0.0,0.0,0.0,0.0,0.0,0.0,0.0,0.0,0.0,2.3377,2.3595,2.3595,0.0,0.0,0.0,0.0,0.0,2.3595,2.4328,2.5053,2.5053,2.5809,2.6512,2.6512,2.6243,2.6183,2.6926,2.6752,2.6527,2.6572,2.6566,2.6671,2.7076,2.8274,2.9654,3.1165,3.112,3.13,0.0,0.0,0.0,0.0,0.0,0.0,0.0,0.0,0.0,0.0,0.0,3.0176,2.9721,2.969,2.9473,2.9002,2.786,2.7307,2.7293,2.6654,2.5999,2.5349,2.5236,2.4572,2.3514,0.0,2.3514,2.3108,2.3108,2.3108,2.3108,2.3108,2.3108,2.3133,2.3409,2.3496,2.3547,0.0,0.0,0.0,0.0,0.0,0.0,0.0,0.0,0.0,0.0,0.0,0.0,0.0,0.0,0.0,0.0,0.0,0.0,0.0,1.4213,1.4569,1.5352,1.541,1.5664,1.6242,1.6662,1.7193,1.7849,1.8928,2.002,2.1165,2.1533,2.1543,2.1282,2.0388,1.9924,1.9798,1.9798,1.9798,1.985,0.0,0.0,0.0,0.0,0.0,0.0,0.0,0.0,0.0,0.0,0.0,0.0,0.0,0.0,0.0,2.3595,2.3595,2.3595,2.3595,2.4081,2.4575,2.441,2.4978,2.5689,2.6004,2.5674,2.5636,2.6811,2.6662,2.6318,2.6363,2.6078,2.6273,2.763,2.8963,2.9909,3.0223,3.0268,3.0702,3.1824,0.0,0.0,0.0,0.0,0.0,0.0,0.0,0.0,0.0,0.0,3.0254,3.0119,3.0133,2.9822,2.9144,2.8464,2.8086,2.7999,2.7198,2.6312,2.5375,2.5813,2.5141,2.3666,2.4279,2.4221,2.3636,2.3636,2.3531,2.3395,2.3395,2.3275,2.3108,2.3108,2.3195,2.3371,0.0,0.0,0.0,0.0,0.0,0.0,0.0,0.0,0.0,0.0,0.0,0.0,0.0,0.0,0.0,0.0,0.0,0.0,0.0,1.4213,1.4569,1.5352,1.541,1.5781,1.6638,1.7103,1.7955,1.9158,1.9636,2.0247,2.1025,2.1876,2.1707,2.0742,2.0666,2.0327,1.9798,1.9798,1.9798,1.985,2.0522,0.0,0.0,0.0,0.0,0.0,0.0,0.0,0.0,0.0,0.0,0.0,0.0,0.0,2.3595,2.3595,2.3595,2.3595,2.3595,2.4081,2.4455,2.3834,2.4642,2.5929,2.718,2.742,2.76,2.8308,2.8427,2.7829,2.6019,2.6138,2.6961,2.8308,2.9594,3.0866,3.2123,0.0,3.2572,0.0,0.0,0.0,0.0,0.0,0.0,0.0,0.0,0.0,0.0,0.0,0.0,2.966,2.966,2.9632,2.9563,2.8896,2.8377,2.7999,2.6829,2.6193,2.6109,2.5659,2.5384,2.5231,2.5287,2.5287,2.5231,2.5231,2.4838,2.4205,2.4205,2.3767,2.3108,2.3108,2.3446,2.3941,0.0,0.0,0.0,0.0,0.0,0.0,0.0,0.0,0.0,0.0,0.0,0.0,0.0,0.0,0.0,0.0,0.0,0.0,0.0,1.4962,1.5079,1.5381,1.5835,1.636,1.6992,1.7519,1.8259,1.9299,2.0452,2.1464,2.2297,2.1615,2.1282,2.1182,2.0465,2.0012,1.9798,1.9798,2.0055,2.0472,2.1113,2.1605,0.0,0.0,0.0,0.0,0.0,0.0,0.0,0.0,2.3595,2.3595,2.3595,2.3595,2.3595,2.3595,2.3595,2.3595,2.3595,2.4033,2.4326,2.3741,2.4478,2.5536,2.62,2.6363,2.6662,2.7739,2.7989,2.763,2.6437,2.6752,2.7525,2.8442,2.9669,3.0836,3.175,3.1869,0.0,0.0,0.0,0.0,0.0,0.0,0.0,0.0,0.0,0.0,0.0,0.0,0.0,2.9592,2.9606,2.9606,2.9606,2.8936,2.8317,2.7739,2.7287,2.6841,2.6408,2.665,2.6269,2.5425,2.5864,2.581,2.5398,2.5398,2.5231,2.4979,2.4979,2.4809,2.4593,2.4983,2.5293,2.5601,0.0,0.0,0.0,0.0,0.0,0.0,0.0,0.0,0.0,0.0,0.0,0.0,0.0,0.0,0.0,0.0,0.0,0.0,1.5352,1.541,1.5497,1.5729,1.6236,1.6816,1.7515,1.8191,1.8879,1.9584,2.0957,2.1877,2.2334,2.1219,2.0792,2.0928,2.015,1.9798,1.9798,1.9798,2.0207,2.0845,2.1448,2.21,0.0,0.0,0.0,0.0,0.0,0.0,0.0,0.0,2.3595,2.3595,2.3595,2.3595,2.3595,2.3595,2.3724,2.3858,2.3858,2.4246,2.4556,2.4199,2.4829,2.5707,2.631,2.6642,2.7076,2.8021,2.7884,2.7525,2.7279,2.7419,2.7824,2.8487,2.9505,3.0447,3.1077,3.1017,0.0,0.0,0.0,0.0,0.0,0.0,0.0,0.0,0.0,0.0,0.0,0.0,0.0,0.0,2.8323,2.8323,2.8323,2.7874,2.741,2.6971,2.6971,2.6827,2.656,2.7253,2.706,2.6135,2.6628,2.6549,2.6094,2.6094,2.5973,2.5728,2.5481,2.5536,2.5757,2.6229,2.6631,2.7074,0.0,0.0,0.0,0.0,0.0,0.0,0.0,0.0,0.0,0.0,0.0,0.0,0.0,0.0,0.0,0.0,0.0,0.0,1.541,1.541,1.5719,1.6464,1.6521,1.7063,1.8275,1.9149,1.9801,2.0197,2.1063,2.1232,2.0704,2.0691,2.0377,1.9811,1.9811,1.9798,1.9798,1.9798,2.0207,2.087,2.1448,2.21,2.2762,0.0,0.0,0.0,0.0,0.0,0.0,0.0,2.3595,2.3595,2.3595,2.3616,2.3616,2.3616,2.3991,2.441,2.441,2.4796,2.5221,2.5202,2.575,2.6647,2.7993,2.8856,2.9437,2.9558,2.8554,2.7835,2.848,2.8052,2.7835,2.8498,2.9172,2.9816,3.0402,0.0,0.0,0.0,0.0,0.0,0.0,0.0,0.0,0.0,0.0,0.0,0.0,0.0,0.0,0.0,2.5615,2.5615,2.5615,2.5615,2.5615,2.56,2.5615,2.5959,2.6617,2.7285,2.7585,2.76,2.76,2.76,2.76,2.76,2.7178,2.6457,2.5701,2.5827,2.641,2.641,2.7173,2.8213,0.0,0.0,0.0,0.0,0.0,0.0,0.0,0.0,0.0,0.0,0.0,0.0,0.0,0.0,0.0,0.0,0.0,0.0,1.541,1.541,1.5719,1.6464,1.7006,1.7673,1.8561,1.934,2.018,2.1103,2.1009,2.1056,2.1257,2.0426,2.0214,2.0441,2.0489,2.0497,2.0497,2.0497,2.1151,2.2105,2.1805,2.2354,2.3341,0.0,0.0,0.0,0.0,0.0,0.0,0.0,0.0,0.0,2.4158,2.443,2.4732,2.4732,2.4851,2.4969,2.4969,2.5354,2.567,2.5297,2.6302,2.7408,2.7557,2.8121,2.8771,2.9289,2.9508,2.9406,2.8615,2.8672,2.892,2.9116,2.9728,3.0245,0.0,0.0,0.0,0.0,0.0,0.0,0.0,0.0,0.0,0.0,0.0,0.0,0.0,0.0,0.0,0.0,2.5615,0.0,2.5615,2.5615,2.5352,2.4903,2.5367,2.5959,2.6602,2.6821,2.7151,2.76,2.76,2.76,2.76,2.76,2.7458,2.7255,2.7034,2.7059,2.7305,2.7761,2.8171,2.8598,0.0,0.0,0.0,0.0,0.0,0.0,0.0,0.0,0.0,0.0,1.5564,1.4954,0.0,0.0,0.0,0.0,0.0,0.0,0.0,1.5671,1.6169,1.6894,1.7633,1.8382,1.9123,1.9553,2.0137,2.0815,2.0515,2.0515,2.0803,2.0363,2.051,2.1158,2.1132,2.1289,2.1536,2.1269,2.1762,2.2672,2.2253,2.2711,2.3595,0.0,0.0,0.0,0.0,0.0,0.0,0.0,0.0,0.0,2.441,2.4756,2.5202,2.5202,2.5354,2.5521,2.5521,2.589,2.6192,2.5873,2.7046,2.8288,2.8379,2.8779,2.948,3.0674,3.0671,3.0289,2.9708,2.9494,2.9502,2.9751,2.9665,2.9671,0.0,0.0,0.0,0.0,0.0,0.0,0.0,0.0,0.0,0.0,0.0,0.0,0.0,0.0,0.0,0.0,2.5129,0.0,2.4807,2.4807,2.4612,2.4201,2.4627,2.5166,2.5824,2.6363,2.6811,2.7225,2.748,2.76,2.76,2.76,2.76,2.76,2.76,2.7764,2.8064,2.8442,2.8771,2.9101,0.0,0.0,0.0,0.0,0.0,0.0,0.0,0.0,0.0,0.0,1.5632,1.5541,0.0,0.0,0.0,0.0,0.0,0.0,0.0,1.6226,1.6922,1.766,1.8421,1.9123,1.9798,1.9798,1.9798,1.9798,1.9798,1.9824,1.9914,2.0444,2.1094,2.1804,2.1728,2.2069,2.2648,2.2041,2.217,2.2785,2.2717,2.3054,2.3595,2.3595,0.0,0.0,0.0,0.0,0.0,0.0,0.0,0.0,2.4532,2.4863,2.5255,2.5319,2.564,2.5984,2.605,2.6367,2.6691,2.6691,2.7808,2.9094,2.9837,3.0145,3.08,3.2723,3.1715,3.0648,3.1265,3.0397,2.9756,3.0289,2.9293,2.8645,0.0,0.0,0.0,0.0,0.0,0.0,0.0,0.0,0.0,0.0,0.0,0.0,0.0,0.0,0.0,0.0,2.4471,0.0,2.3752,2.3745,2.3745,0.0,2.3745,2.4107,2.4792,2.5901,2.6516,2.6714,2.7375,2.7685,2.7675,2.7625,2.76,2.76,2.76,2.7974,2.8502,2.8502,2.8891,2.9442,0.0,0.0,0.0,0.0,0.0,0.0,0.0,0.0,0.0,0.0,0.0,0.0,0.0,0.0,0.0,0.0,0.0,0.0,0.0,1.7274,1.7677,1.8421,1.9176,1.9643,1.9798,1.9798,1.9798,1.9798,1.9798,2.008,2.0585,2.0715,2.1116,2.1736,2.224,2.255,2.2698,2.2555,2.2838,2.3377,2.2875,2.3054,2.3595,2.3595,2.3595,0.0,0.0,0.0,0.0,0.0,0.0,0.0,2.5521,2.5583,2.5631,2.62,2.6051,2.5799,2.6387,2.6624,2.6691,2.6691,2.7385,2.8281,2.9059,2.928,2.9585,3.0608,3.0925,3.1072,3.1231,3.1016,3.0684,3.0226,2.9911,0.0,0.0,0.0,0.0,0.0,0.0,0.0,0.0,0.0,0.0,0.0,0.0,0.0,0.0,0.0,0.0,2.5031,0.0,2.4973,2.4871,2.4871,2.4871,0.0,2.4871,2.5234,2.5909,2.5309,2.5863,2.7342,2.8027,2.831,2.8286,2.781,2.76,2.76,2.76,2.769,2.7824,2.7824,2.7914,2.8109,0.0,0.0,0.0,0.0,0.0,0.0,0.0,0.0,0.0,0.0,0.0,0.0,0.0,0.0,0.0,0.0,0.0,0.0,0.0,0.0,1.8474,1.9202,1.9579,1.9798,1.9798,1.9798,1.9798,1.9798,2.0131,2.0446,2.0809,2.1397,2.2034,2.2668,2.2955,2.327,2.359,2.3267,2.3312,2.3573,2.3268,2.3334,2.3595,2.3595,2.3595,2.3595,2.3595,0.0,0.0,0.0,0.0,0.0,0.0,0.0,2.5693,2.6065,2.5642,2.522,2.5964,2.6167,2.6336,2.7063,2.7519,2.801,2.8824,2.8687,2.8636,2.9397,2.9871,3.0161,3.0161,3.0161,3.0025,2.9634,2.9262,0.0,0.0,0.0,0.0,0.0,0.0,0.0,0.0,0.0,0.0,0.0,0.0,0.0,0.0,2.5926,2.5817,2.5596,2.5596,2.5449,2.5202,2.5202,2.5202,2.5202,2.5202,2.5394,2.5794,2.6219,2.6954,2.7888,2.8243,2.8416,2.8339,2.7682,2.7628,2.7929,2.7929,2.8154,2.8472,2.8472,2.8472,2.8518,0.0,0.0,0.0,0.0,0.0,0.0,0.0,0.0,0.0,0.0,0.0,0.0,0.0,0.0,0.0,0.0,0.0,0.0,0.0,0.0,0.0,1.9773,1.9798,1.9798,1.9798,1.9798,1.9798,1.9798,2.0597,2.1008,2.1153,2.2133,2.3007,2.3682,2.3565,2.3858,2.4395,2.3849,2.3595,2.3595,2.3595,2.3595,2.3595,2.3595,2.3595,2.3595,2.3595,2.3595,2.3702,2.4328,0.0,0.0,0.0,0.0,2.5439,2.5559,2.4983,2.4474,2.5203,2.5507,2.5914,2.7266,2.7604,2.7773,2.8451,2.8095,2.7807,2.8468,2.8705,2.884,2.8976,2.8993,2.8959,2.8824,0.0,0.0,0.0,0.0,0.0,0.0,0.0,0.0,0.0,0.0,0.0,0.0,0.0,0.0,2.6691,2.6691,2.6505,2.6138,2.612,2.5924,2.5451,2.5597,2.5646,2.5646,2.5794,2.571,2.5532,2.7559,2.8354,2.8089,2.8217,2.8265,2.8212,2.7487,2.7578,2.8131,2.8243,2.868,2.9246,2.9358,2.9406,2.9406,0.0,0.0,0.0,0.0,0.0,0.0,0.0,0.0,0.0,0.0,1.6795,1.671,0.0,0.0,0.0,0.0,0.0,0.0,0.0,0.0,0.0,1.9798,1.9798,1.9798,1.9798,1.9798,1.9798,1.9798,2.0988,2.1866,2.2451,2.2607,2.3028,2.362,2.3584,2.3642,2.3729,2.364,2.3595,2.3595,2.3595,2.3595,2.3595,2.3595,2.3595,2.3595,2.3595,2.3595,2.3752,2.4772,2.5144,0.0,0.0,0.0,2.4778,2.5423,2.4628,2.3712,2.4457,2.5101,2.5812,2.664,2.6843,2.6877,2.6979,2.6911,2.6877,2.6979,2.752,2.8162,2.8874,2.8993,2.8755,2.806,0.0,0.0,0.0,0.0,0.0,0.0,0.0,0.0,0.0,0.0,0.0,0.0,0.0,0.0,2.6691,2.6691,2.6674,2.6607,2.6607,2.6573,2.6505,2.7126,2.7462,2.7462,2.8152,2.78,2.6555,2.8169,2.8315,2.7282,2.7866,2.8125,2.8069,2.7462,2.7269,2.7413,2.8046,2.8355,2.8515,2.916,2.9406,2.9406,0.0,0.0,0.0,0.0,0.0,0.0,0.0,0.0,0.0,0.0,0.0,1.8063,0.0,0.0,0.0,0.0,0.0,0.0,0.0,0.0,0.0,1.9798,1.9798,1.9798,1.9798,2.0182,2.0359,2.0359,2.1629,2.2602,2.3259,2.3603,2.4126,2.4702,2.4321,2.4156,2.4126,2.3759,2.3595,2.3595,2.3595,2.3595,2.3595,2.3595,2.3595,2.3595,2.3595,2.3595,2.3752,2.4851,2.5202,2.5392,2.6385,0.0,0.0,0.0,2.3934,2.2936,2.3678,2.4712,2.5693,2.5998,2.6387,2.6691,2.6691,2.6691,2.6691,2.6691,2.6962,2.73,2.7656,2.7723,2.7605,0.0,0.0,0.0,0.0,0.0,0.0,0.0,0.0,0.0,0.0,0.0,0.0,0.0,0.0,2.6691,2.6691,2.6691,2.6691,2.6691,2.6691,2.6691,2.6691,2.7012,2.7182,2.7199,2.796,2.7757,2.6725,2.7824,2.8022,2.7504,2.7803,2.7918,2.7866,2.7193,2.7165,2.7561,2.7894,2.8309,2.8774,2.9518,2.9799,2.9848,0.0,0.0,0.0,0.0,0.0,0.0,0.0,0.0,0.0,0.0,0.0,0.0,0.0,0.0,0.0,0.0,0.0,0.0,0.0,0.0,0.0,1.9798,1.9798,1.9798,1.9798,2.0446,2.0795,2.0795,2.2081,2.3121,2.3985,2.4576,2.5292,2.6078,2.5217,2.4844,2.4814,2.4126,2.3864,2.3849,2.367,2.3595,2.3595,2.3595,2.3595,2.3595,2.3595,2.3595,2.3752,2.4851,2.5202,2.5392,2.6385,2.5692,0.0,0.0,0.0,2.2499,2.3427,2.4475,2.5423,2.5795,2.6285,2.6691,2.6691,2.6691,2.6691,2.6691,2.6691,2.6691,2.6691,2.6691,2.6691,0.0,0.0,0.0,0.0,0.0,0.0,0.0,0.0,0.0,0.0,0.0,0.0,0.0,0.0,2.6691,2.6691,2.6691,2.6691,2.6691,2.6691,2.6691,2.6691,2.6894,2.6979,2.6996,2.7536,2.7401,2.6708,2.7283,2.7519,2.7519,2.7519,2.7519,2.7469,2.6928,2.7029,2.7536,2.7722,2.8298,2.9094,2.9837,3.0226,3.0463,0.0,0.0,0.0,0.0,0.0,0.0,0.0,0.0,0.0,0.0,0.0,0.0,1.9973,1.9948,1.9897,1.9762,1.9786,1.9798,1.9798,1.9798,1.9798,1.9798,1.9798,0.0,1.9798,2.0446,2.0795,2.0795,2.2081,2.3374,2.466,2.5281,2.6243,2.7435,2.6123,2.5555,2.551,2.4829,2.4545,2.4485,2.3864,2.3595,2.3595,2.3595,2.3595,2.3595,2.3595,2.3595,2.3752,2.4851,2.5202,2.5392,2.6385,2.5692,2.4491,0.0,0.0,0.0,2.4051,2.4491,2.488,2.6285,2.6657,2.6691,2.6691,2.6691,2.6691,2.6691,2.6691,2.6691,2.6691,2.6691,2.6691,0.0,0.0,0.0,0.0,0.0,0.0,0.0,0.0,0.0,0.0,0.0,0.0,0.0,0.0,2.6691,2.6691,2.6691,2.6691,2.6691,2.6691,2.6691,2.6691,2.7384,2.7739,2.7739,2.779,2.7401,2.6691,2.6742,2.6759,2.6759,2.6759,2.6759,2.6742,2.6708,2.6708,2.6826,2.7536,2.8298,2.9094,2.9837,3.0548,3.114,0.0,0.0,0.0,0.0,0.0,0.0,0.0,0.0,0.0,0.0,0.0,0.0,0.0,2.1336,2.1074,2.1024,2.0683,2.0258,1.9824,2.0207,2.0258,1.9824,2.0582,2.083,2.0446,2.1489,2.2011,2.2011,2.286,2.3747,2.4657,2.4857,2.5674,2.6941,2.6452,2.6004,2.557,2.4889,2.435,2.3939,2.3699,2.3595,2.3595,2.3595,2.3595,2.3638,2.3991,2.39,2.3752,2.4851,2.5202,2.5316,2.6033,2.5765,2.5017,2.4069,2.3088,2.2516,2.3511,2.3797,2.4152,2.5625,2.5998,2.6116,2.659,2.6691,2.6691,2.6691,2.6691,2.6691,2.6691,2.6691,2.6691,0.0,0.0,0.0,0.0,0.0,0.0,0.0,0.0,0.0,0.0,0.0,0.0,0.0,0.0,0.0,2.6691,2.6691,2.6691,2.6691,2.6691,2.6691,2.6691,2.6962,2.7097,2.7097,2.7097,2.6962,2.6691,2.6691,2.6691,2.6691,2.6691,2.6691,2.6691,2.6691,2.6691,2.6776,2.7503,2.7976,2.8383,2.9651,3.0277,3.0565,0.0,0.0,0.0,0.0,0.0,0.0,0.0,0.0,2.3879,2.3879,0.0,0.0,0.0,0.0,2.1946,2.172,2.1342,2.0917,2.0471,2.0843,2.0892,2.0471,2.1256,2.152,2.1113,2.2151,2.2694,2.2694,2.3312,2.3954,2.4605,2.4829,2.5397,2.6273,2.6497,2.6348,2.5899,2.5217,2.4545,2.3924,2.3684,2.3595,2.3595,2.3595,2.3595,2.3638,2.3991,2.4012,2.4012,2.4894,2.5316,2.5559,2.6068,2.595,2.5372,2.412,2.341,2.3207,2.3934,2.4137,2.4425,2.5659,2.5981,2.6099,2.659,2.6691,2.6691,2.6691,2.6691,2.6691,2.6691,2.6808,2.6906,0.0,0.0,0.0,0.0,0.0,0.0,0.0,0.0,0.0,0.0,0.0,0.0,0.0,0.0,0.0,2.7492,2.7509,2.7509,2.7509,2.7235,2.7035,2.6906,2.7146,2.7282,2.7298,2.7282,2.7364,2.7492,2.7235,2.7099,2.7099,2.7099,2.6955,2.6708,2.6841,2.6906,2.6991,2.7892,2.8389,2.8733,2.9878,3.0454,3.0725,0.0,0.0,0.0,0.0,0.0,0.0,0.0,0.0,2.441,2.443,0.0,0.0,0.0,0.0,0.0,2.1805,2.172,2.172,2.1697,2.172,2.172,2.1697,2.1734,2.1771,2.1748,2.2397,2.276,2.276,2.3341,2.3947,2.4619,2.5277,2.5615,2.563,2.6273,2.6557,2.6497,2.5854,2.5173,2.4515,2.3864,2.3595,2.3595,2.3595,2.3595,2.3595,2.3616,2.3964,2.4491,2.5028,2.5559,2.6085,2.6539,2.6184,2.5456,2.4745,2.4508,2.466,0.0,0.0,0.0,2.6505,2.6657,2.664,2.6691,2.6674,2.6674,2.6691,2.6691,2.6691,2.6691,2.7019,2.7301,0.0,0.0,0.0,0.0,0.0,0.0,0.0,0.0,0.0,0.0,0.0,0.0,0.0,0.0,2.8315,2.9089,2.9139,2.9139,2.9139,2.8386,2.7777,2.7386,2.81,2.8497,2.8562,2.8497,2.8703,2.9107,2.8298,2.7947,2.7933,2.7897,2.7472,2.6775,2.7162,2.7334,2.7469,2.8661,2.9573,3.0294,3.0626,3.1219,3.1752,0.0,0.0,0.0,0.0,0.0,2.5781,2.5781,2.4992,2.4552,0.0,0.0,0.0,2.3912,2.3586,2.3098,2.2475,2.2429,2.2216,2.172,2.2146,2.2193,2.172,2.3042,2.358,2.3169,2.3771,2.4059,2.4059,2.4253,2.4425,2.4619,2.5277,2.5615,2.5615,2.5794,2.5615,2.5128,2.4948,2.4485,2.3864,2.367,2.3595,2.3595,2.3595,2.3595,2.3659,2.4032,2.4266,2.4491,2.5028,2.5559,2.6085,2.6539,2.6184,2.5558,2.5355,2.4915,2.466,2.5406,0.0,0.0,0.0,0.0,0.0,2.6454,2.6285,2.6065,2.659,2.6691,2.6691,2.6691,2.7019,2.7411,0.0,0.0,0.0,0.0,0.0,0.0,0.0,0.0,0.0,0.0,0.0,0.0,0.0,2.9447,2.9742,2.9955,2.9955,2.9955,2.9955,2.976,2.9576,2.947,2.9667,2.9773,2.9788,2.9773,2.9834,2.9938,2.9124,2.8773,2.8737,2.8142,2.7765,2.7592,2.7678,2.8071,2.8679,2.9564,3.0389,3.1135,3.1767,3.2122,3.2299,0.0,0.0,0.0,0.0,0.0,2.6764,2.6764,2.6054,2.5538,0.0,0.0,0.0,2.4389,2.4397,2.4031,2.315,2.3076,2.3022,2.2924,2.3281,2.3443,2.3311,2.4425,2.4855,2.4514,2.4565,2.4605,2.4605,2.4605,2.4605,2.4634,2.5561,2.5719,2.5187,2.5495,2.5053,2.4171,2.4171,2.3969,2.3625,2.3909,2.4007,2.4007,2.4007,2.4007,2.4006,2.4055,2.4204,2.4491,2.5028,2.5689,2.6332,2.6607,2.6404,2.6065,2.6065,2.5744,2.5506,2.5947,2.5744,2.5625,2.6488,0.0,0.0,2.6505,2.6133,2.5711,0.0,2.6014,2.5825,2.5952,2.658,2.7163,0.0,0.0,0.0,0.0,0.0,0.0,0.0,0.0,0.0,0.0,0.0,0.0,2.933,2.9917,3.0548,3.1211,3.1265,3.1265,3.1265,3.0922,3.0689,3.0549,3.0519,3.0519,3.0549,3.018,3.0091,3.0224,2.9436,2.9058,2.904,2.8545,2.8558,2.8828,2.8504,2.873,2.944,3.0715,3.1492,3.1963,3.257,3.2793,3.2761,0.0,0.0,2.6558,2.7719,2.7858,2.7841,2.7925,2.7464,2.6922,0.0,2.5861,2.5297,2.4677,2.5202,2.5137,2.4003,2.3754,2.3966,2.4672,2.465,2.4874,2.5457,2.5621,2.5719,2.5719,2.5053,2.4754,2.4829,2.4754,2.4754,2.4844,2.6033,2.5929,2.4739,2.5247,2.4792,2.3595,2.3595,2.3595,2.3655,2.4246,2.4485,2.4485,2.4485,2.4485,2.441,2.3819,2.3927,2.4491,2.5105,2.5926,2.6691,2.6691,2.6691,2.6691,2.6691,2.6691,2.6691,2.6691,2.6691,2.6691,2.6691,2.664,0.0,2.6674,2.6065,2.5507,0.0,2.5031,2.4658,2.4948,2.5942,2.6726,0.0,0.0,0.0,0.0,0.0,0.0,0.0,0.0,0.0,0.0,2.9152,2.9262,2.9262,3.0099,3.1219,3.2656,3.2729,3.2729,3.2729,3.2045,3.1514,3.1224,3.1151,3.1151,3.1206,3.0338,3.0117,3.0448,2.9537,2.9189,2.9262,2.917,2.9592,3.0283,2.9666,2.9618,3.0097,3.1801,3.2583,3.2776,3.3136,3.3273,3.3214,0.0,2.7448,2.7735,2.8601,2.8229,2.801,2.8671,2.7816,2.7433,2.8304,2.7952,2.7189,2.6054,2.6058,2.605,2.5785,2.4838,2.4538,2.5274,2.4865,2.4664,2.4784,2.5839,2.6393,2.6393,2.5749,2.5674,2.6213,2.5674,2.5689,2.6213,2.6467,2.6168,2.5382,2.4978,2.4335,2.3595,2.3595,2.3595,2.361,2.3744,2.3804,2.3804,2.3804,2.3804,2.3789,2.3655,2.3927,2.4552,2.5521,2.6244,2.6691,2.6691,2.6691,2.6691,2.6691,2.6691,2.6691,2.6691,2.6691,2.6691,2.6691,2.6251,0.0,2.6556,2.5675,2.488,0.0,2.5231,2.4919,2.4991,2.5628,2.6368,0.0,0.0,0.0,0.0,0.0,0.0,0.0,0.0,0.0,0.0,3.0173,3.0925,3.0925,3.2284,3.3238,3.355,3.3568,3.3568,3.3568,3.3403,3.3303,3.3236,3.3204,3.3204,3.3218,3.2418,3.2059,3.2087,3.062,3.032,3.0889,3.0246,3.0411,3.1201,3.1702,3.1939,3.1992,3.1726,3.243,3.3573,3.3652,3.3694,3.368,2.7874,2.8111,2.8636,2.9397,2.9228,2.9075,2.9482,2.9009,2.8699,2.8956,2.9093,2.8649,2.7405,2.759,2.7389,2.6399,2.5719,2.5489,2.5831,2.557,2.5534,2.5874,2.6885,2.745,2.745,2.7132,2.7177,2.7503,2.652,2.6222,2.6542,2.6245,2.5875,2.5462,2.4875,2.4393,2.397,2.3709,2.3595,2.3625,2.3947,2.4096,2.4096,2.4096,2.4096,2.4036,2.3729,2.4116,2.4875,2.5411,2.6087,2.6691,2.6691,2.6691,2.6691,2.6691,2.6691,2.6691,2.6691,2.6691,2.6691,2.6691,2.642,0.0,0.0,2.5828,2.5152,2.5524,2.4985,2.4476,2.4636,2.5417,2.623,0.0,0.0,0.0,0.0,0.0,0.0,0.0,0.0,0.0,0.0,2.9721,3.054,3.1342,3.2149,3.2944,3.3752,3.3807,3.3807,3.3807,3.3807,3.3807,3.3807,3.3403,3.3201,3.3201,3.2394,3.2008,3.1971,3.1164,3.1029,3.1378,3.0962,3.1256,3.2008,3.2008,3.2467,3.3164,3.2742,3.2834,3.3256,3.3642,3.3807,3.3807,2.8398,2.8772,2.9431,3.0192,3.0192,3.014,3.0294,3.0192,2.9888,2.9297,2.9854,2.9873,2.8685,2.9111,2.8784,2.7169,2.6694,2.6498,2.6583,2.635,2.6445,2.6983,2.7689,2.8163,2.8291,2.8222,2.8313,2.8591,2.7199,2.6563,2.6665,2.5811,2.5349,2.5222,2.4773,2.4438,2.4225,2.39,2.3702,2.3655,2.4186,2.441,2.441,2.441,2.441,2.4358,2.3919,2.4369,2.5221,2.5316,2.5946,2.6691,2.6691,2.6691,2.6691,2.6691,2.6691,2.6691,2.6691,2.6691,0.0,0.0,0.0,2.6691,0.0,0.0,0.0,2.5592,2.4871,2.426,2.4486,2.5315,0.0,0.0,0.0,0.0,0.0,0.0,0.0,0.0,0.0,0.0,0.0,2.9133,2.9831,3.1286,3.1544,3.2192,3.3495,3.3715,3.3807,3.3807,3.3807,3.3807,3.3807,3.3151,3.2821,3.2821,3.2027,3.1623,3.1635,3.147,3.1476,3.1623,3.1623,3.2082,3.2784,3.2118,3.254,3.3568,3.3568,3.3275,3.2913,3.3568,3.3807,3.3807,2.9989,2.9922,3.0209,3.0954,3.0531,3.0328,3.097,3.0531,3.0074,2.9989,3.0615,3.0765,2.9964,2.9964,2.9909,2.9703,2.8033,2.729,2.7915,2.6848,2.6222,2.6302,2.6951,2.7641,2.8291,2.7742,2.8052,2.9278,2.7428,2.6812,2.7364,2.5553,2.4724,2.4687,2.4514,2.4151,2.3724,2.4137,2.4032,2.361,2.3684,2.3714,2.3714,2.3714,2.3714,2.3764,2.4168,2.4692,2.5278,0.0,2.6262,2.6691,0.0,2.6691,2.6691,2.6691,0.0,0.0,0.0,0.0,0.0,0.0,2.6691,0.0,0.0,0.0,2.5592,2.5592,0.0,2.5332,2.5371,0.0,0.0,0.0,0.0,0.0,0.0,0.0,0.0,0.0,0.0,0.0,0.0,0.0,3.0448,3.1342,3.2063,3.2528,3.2729,3.3421,3.3807,3.3807,3.3807,3.3807,3.3807,3.3715,3.366,3.3642,3.2852,3.2454,3.2436,3.1733,3.1788,3.2454,3.2454,3.2926,3.366,3.3568,3.322,3.2729,3.2729,3.3128,3.3678,3.377,3.3807,3.3807,2.96,3.0142,3.07,3.0581,3.0666,3.0835,3.114,3.0937,3.0734,3.0734,3.1004,3.1072,3.0768,3.0734,3.0565,3.0142,2.8943,2.8144,2.7975,2.7038,2.6478,2.6478,2.7621,2.8163,2.7995,2.8616,2.8996,2.9158,2.7611,2.6993,2.7226,2.5685,2.5111,2.5413,2.5037,2.491,2.4969,2.4572,2.4266,2.4032,2.3724,2.3794,2.4032,2.3724,2.3794,2.4095,2.4307,2.4934,2.5689,0.0,2.6314,0.0,0.0,0.0,0.0,2.6691,0.0,0.0,0.0,0.0,0.0,0.0,0.0,0.0,2.6691,0.0,2.63,0.0,0.0,0.0,0.0,0.0,0.0,0.0,2.6602,0.0,0.0,0.0,0.0,0.0,0.0,0.0,0.0,0.0,0.0,0.0,0.0,3.1421,3.188,3.2669,3.3096,3.3096,3.3568,3.3807,3.3807,3.3807,3.3807,3.3807,3.3458,3.3311,3.3293,3.2944,3.2981,3.3311,3.3311,3.3495,3.3807,3.3807,3.3605,3.3311,3.3311,3.322,3.3151,3.3623,3.3807,3.3807,2.9467,3.0159,3.0734,3.0192,3.0717,3.119,3.119,3.119,3.119,3.119,3.119,3.119,3.119,3.1516,3.1406,3.0638,3.0205,2.954,2.8528,2.7656,2.718,2.7164,2.8132,2.8501,2.8128,2.9228,2.9533,2.8993,2.7725,2.7102,2.7067,2.5788,2.5411,2.5779,2.554,2.5542,2.5726,2.5105,2.4736,2.4592,2.4199,2.4266,2.4572,2.4199,2.4287,2.4652,2.4792,2.5335,2.6031,2.6156,2.6419,0.0,2.6691,0.0,2.6691,0.0,0.0,0.0,2.6742,0.0,0.0,0.0,0.0,0.0,0.0,0.0,0.0,0.0,0.0,0.0,0.0,0.0,2.753,2.6741,0.0,2.6447,0.0,0.0,0.0,0.0,0.0,0.0,0.0,0.0,0.0,0.0,3.0081,0.0,3.1035,3.2045,3.2601,3.2601,3.3385,3.3807,3.3807,3.3807,3.3807,3.3807,3.3807,3.3807,3.3807,3.3807,3.3807,3.3807,3.3807,3.3807,3.3807,3.3807,3.3842,3.3915,3.3915,3.3598,3.3247,3.372,3.3915,3.3928,3.0226,3.0108,3.0123,3.0108,3.0717,3.119,3.119,3.119,3.119,3.119,3.119,3.119,3.119,3.2309,3.2693,3.1823,3.2195,3.1808,3.0223,2.9068,2.8412,2.8347,2.8015,2.8179,2.8942,2.901,2.9027,2.8993,2.7725,2.7102,2.7067,2.5788,2.5221,2.5259,2.5744,2.5689,2.5259,2.5744,2.5652,2.5182,2.5163,2.5163,2.5182,0.0,2.5163,2.524,2.5744,0.0,0.0,2.6505,2.6691,0.0,0.0,0.0,0.0,0.0,0.0,0.0,0.0,0.0,0.0,2.6877,0.0,0.0,0.0,0.0,2.757,0.0,0.0,0.0,2.8,2.7838,2.753,2.6741,2.6602,0.0,0.0,0.0,0.0,0.0,0.0,0.0,0.0,0.0,0.0,2.9042,2.9769,3.021,3.0246,3.1739,3.2601,3.2601,3.3385,3.3807,3.3807,3.3807,3.3807,3.3807,3.3807,3.3807,3.3807,3.3807,3.3807,3.3807,3.3807,3.3807,3.3807,3.3807,3.3948,3.4195,3.4195,3.436,3.4595,3.4292,3.4195,3.4223,2.9433,2.977,3.0108,3.0108,3.0717,3.1291,3.1564,3.1603,3.2096,3.3473,3.3649,3.386,3.4367,3.4832,3.4534,3.3195,3.2767,3.214,3.1062,3.019,2.9671,2.9673,2.971,2.9386,2.868,2.8883,2.8502,2.7486,2.706,2.6839,2.6839,2.6397,2.6193,2.6193,2.6367,2.635,2.6176,2.605,2.5888,2.5726,2.5726,2.5726,2.5689,0.0,0.0,2.5744,2.5924,2.6209,0.0,2.6657,2.6691,2.6691,2.6691,2.6691,2.6691,2.6691,2.7232,0.0,0.0,0.0,2.8416,2.7621,0.0,0.0,0.0,0.0,0.0,0.0,0.0,0.0,0.0,2.8427,2.8326,2.753,2.6961,2.6227,0.0,0.0,0.0,0.0,0.0,0.0,0.0,0.0,0.0,2.9005,2.9244,2.9409,2.9409,3.0418,3.1256,3.1788,3.2596,3.3256,3.3788,3.3807,3.3807,3.3807,3.3807,3.3807,3.382,3.3986,3.4068,3.408,3.4295,3.4405,3.4405,3.4405,3.4442,3.4529,3.4529,3.4593,3.4684,3.4572,3.4529,3.4551,2.9959,3.0148,3.016,2.9771,3.0428,3.1199,3.1718,3.2177,3.295,3.4287,3.4711,3.5101,3.5634,3.6078,3.5701,3.4096,3.392,3.3206,3.1505,3.1112,3.0805,3.049,3.0781,3.0417,2.9311,2.9489,2.8782,2.7097,2.7097,2.6962,2.6691,2.6691,2.6691,2.6691,2.6691,2.6691,2.6674,2.6367,2.6244,2.6244,2.6244,2.6244,0.0,0.0,2.5944,2.6244,0.0,2.6436,2.6691,2.6691,2.6691,2.6691,2.6691,2.6877,2.7097,2.7097,2.7824,2.8568,2.8297,2.8898,0.0,2.8647,2.8579,0.0,2.868,0.0,0.0,0.0,0.0,0.0,0.0,2.8737,2.873,2.7934,2.7365,2.6649,0.0,2.5852,0.0,0.0,0.0,2.8429,0.0,0.0,2.9005,2.9005,2.9005,2.9005,0.0,0.0,3.0852,3.1378,3.2467,3.3309,3.3935,3.3935,3.3999,3.4123,3.4123,3.4123,3.4123,3.4307,3.4379,3.439,3.4612,3.4694,3.4694,3.4694,3.4773,3.4832,3.4832,3.4908,3.4972,3.4889,3.4908,3.4981,3.1716,3.1183,3.0316,2.9342,3.0074,3.1046,3.1757,3.2932,3.3771,3.3876,3.4603,3.51,3.5136,3.6192,3.6244,3.462,3.5568,3.489,3.1727,3.1897,3.1743,3.0932,3.124,3.1201,3.0716,3.0699,2.9765,2.7825,2.7807,2.7418,2.6691,2.6691,2.6691,2.6691,2.6691,2.6691,2.6691,2.6691,2.6691,2.6691,2.6691,2.6691,2.6691,2.6691,0.0,2.6691,2.6691,2.6691,2.6691,2.6691,2.6691,2.6691,2.6691,2.7215,2.7807,2.7807,2.8889,2.9956,2.9265,2.9899,3.0578,2.9865,0.0,0.0,0.0,0.0,3.0951,0.0,0.0,0.0,0.0,0.0,2.8748,2.797,2.7835,2.7247,2.5686,2.5485,2.5815,0.0,0.0,2.9005,2.9005,2.9005,2.9005,2.9005,2.9005,2.9005,0.0,0.0,0.0,3.1397,3.2952,3.3899,3.4188,3.4211,3.4379,3.4694,3.4694,3.4694,3.4694,3.4704,3.4714,3.4714,3.4724,3.4734,3.4734,3.4734,3.4898,3.5113,3.5113,3.5281,3.5479,3.5215,3.5281,3.55,3.1668,3.1462,3.1277,3.1548,3.1826,3.222,3.2757,3.3631,3.4774,3.6318,3.7239,3.7949,3.8549,3.8357,3.7561,3.5937,3.553,3.4711,3.3275,3.2737,3.2373,3.2158,3.196,3.1533,3.0853,3.0758,2.992,2.8316,2.7981,2.7418,2.6691,2.6691,2.6691,2.6691,2.6691,2.6691,2.6691,2.6691,2.6691,2.6691,2.6691,2.6691,0.0,0.0,2.6691,2.6691,2.6691,2.6691,2.6691,2.6691,2.6691,2.6691,2.6691,2.7215,2.7807,2.7807,2.8889,3.0116,3.0228,3.0888,3.1428,3.1049,3.1032,3.1129,0.0,0.0,0.0,0.0,0.0,0.0,0.0,0.0,2.8932,2.873,2.8191,2.7438,2.6429,2.6814,0.0,2.829,0.0,0.0,2.9005,2.9005,2.9005,2.9005,2.9005,2.9005,0.0,0.0,0.0,3.1378,3.2569,3.354,3.42,3.4464,3.4603,3.4694,3.4694,3.4694,3.4723,3.4908,3.499,3.5008,3.5207,3.5297,3.5297,3.5297,3.5346,3.541,3.541,3.5439,3.5493,3.5424,3.5439,3.55,3.1969,3.2291,3.2472,3.2535,3.3129,0.0,3.3722,3.4271,0.0,3.6765,3.7694,3.8212,3.8322,3.823,3.7514,3.5866,3.5279,3.4362,3.2852,3.2669,3.2289,3.1574,3.1667,3.1474,3.0874,3.078,2.9985,2.8463,2.8201,2.7589,2.6691,2.6691,2.6691,2.6691,2.6691,2.6691,2.6691,2.6691,2.6691,2.6691,2.6691,0.0,0.0,2.6691,2.6691,2.6691,2.6691,2.6691,2.6691,2.6691,2.6911,2.7182,2.7182,2.7925,2.8804,2.8804,2.9765,3.0891,3.1113,3.1794,3.2377,3.2224,3.2316,3.2451,3.2451,3.2141,3.1852,0.0,0.0,0.0,0.0,0.0,0.0,2.9574,2.8558,2.764,2.7181,2.7512,0.0,0.0,2.9197,0.0,2.9197,2.9067,2.9044,2.9178,2.9496,0.0,0.0,0.0,0.0,3.1589,3.3336,3.4358,3.4576,3.5134,3.5286,3.5062,3.5062,3.5062,3.5043,3.5207,3.5262,3.5289,3.5439,3.55,3.55,3.55,3.55,3.55,3.55,3.55,3.55,3.55,3.55,3.55,3.2583,3.3284,3.3587,3.2876,3.3995,0.0,0.0,3.5042,0.0,3.6358,0.0,3.7235,3.6523,3.6905,3.6541,3.4986,3.4747,3.3757,3.1544,3.1971,3.1647,3.0265,3.087,3.1068,3.0735,3.0756,3.0068,2.8557,2.8445,2.7839,2.6775,2.6725,2.6691,2.6691,2.6691,2.6691,2.6725,2.6793,2.6843,2.6843,2.6843,2.6843,2.6826,2.6725,2.6691,2.6691,2.6691,2.6691,2.6691,2.6691,2.7199,2.7807,2.7807,2.8892,3.0185,3.0185,3.0999,3.1915,3.1969,3.2582,3.3214,3.3258,3.3536,3.3807,3.3807,3.3807,3.3605,3.2894,3.2674,0.0,0.0,0.0,0.0,3.0467,2.9182,0.0,0.0,0.0,2.8165,2.8165,0.0,0.0,0.0,2.9394,2.9314,2.9443,3.0099,0.0,0.0,0.0,0.0,0.0,3.4396,0.0,3.5257,0.0,3.6009,3.5654,3.5558,3.55,3.55,3.55,3.55,3.55,3.55,3.55,3.55,3.55,3.55,3.55,3.55,3.55,3.55,3.55,3.55,3.55,3.3419,3.3707,3.3752,3.3605,3.4362,3.5215,3.5868,3.6586,3.7125,3.7272,3.7419,3.7456,3.7309,3.6193,3.5041,3.41,3.339,0.0,0.0,0.0,0.0,3.021,3.0338,3.0387,3.0314,3.0622,3.0344,2.9398,2.8728,2.7984,2.7194,2.6857,2.6691,2.6691,2.6691,2.6691,2.6742,2.7351,0.0,2.7604,2.7604,2.7604,2.7536,2.6928,2.6691,2.6691,2.6691,2.6691,2.6691,2.6691,2.7199,2.7807,2.7807,2.9091,3.0576,3.0576,3.1446,3.245,3.2856,3.3075,3.3273,3.3606,3.3748,3.3807,3.3807,3.3807,3.3752,3.3623,3.3073,3.2564,3.2417,0.0,0.0,0.0,0.0,0.0,0.0,0.0,0.0,3.0111,0.0,3.0856,0.0,3.0631,3.0377,2.9699,2.9775,0.0,0.0,0.0,0.0,0.0,0.0,0.0,0.0,0.0,0.0,3.6481,3.5827,3.55,3.55,3.55,3.55,3.55,3.55,3.55,3.55,3.55,3.55,3.55,3.55,3.55,3.55,3.55,3.55,3.55,3.3905,3.394,3.4064,3.4945,3.5422,0.0,0.0,3.7254,0.0,3.7492,3.7144,3.6707,3.6248,3.511,3.405,3.3256,3.2449,3.1641,3.0834,3.0411,3.0008,2.9592,2.9574,2.9574,2.9574,2.977,2.9569,2.8979,2.8582,2.8132,2.7589,2.721,2.7003,2.6987,2.6791,2.6691,0.0,0.0,0.0,2.7773,2.7367,2.7452,2.7722,2.6979,2.6691,2.6725,2.6939,2.7276,2.7635,2.7635,2.8116,2.8836,2.9486,3.0557,3.1618,3.1618,3.2216,3.2921,3.3154,3.3346,3.355,3.3748,3.3807,3.3807,3.3807,3.3807,3.3807,3.3807,3.3495,3.322,3.322,3.2559,0.0,0.0,0.0,0.0,0.0,0.0,3.1115,0.0,3.1418,0.0,0.0,0.0,0.0,0.0,0.0,0.0,0.0,0.0,0.0,0.0,0.0,0.0,0.0,0.0,0.0,3.6077,3.5692,3.5712,3.6115,3.5692,3.5731,3.6096,3.5673,3.55,3.55,3.55,3.55,3.55,3.55,3.55,3.55,3.55,3.55,3.55,3.4566,3.4546,3.4743,3.6064,3.6303,0.0,3.7144,3.7235,3.7309,3.7474,3.6633,3.5771,3.5078,3.4124,3.322,3.2417,3.1604,3.0797,3.0008,2.9953,2.9647,2.9023,2.9005,2.9005,2.9005,2.9005,2.8839,0.0,0.0,2.8259,2.7992,2.7604,2.7424,2.7409,0.0,0.0,0.0,0.0,2.7641,2.8117,2.7522,2.7709,2.8203,2.7297,2.6955,2.7021,2.7508,2.8099,2.8689,2.9131,2.9573,3.0153,3.1107,3.1961,3.2648,3.2648,3.2983,3.3332,3.3332,3.3564,3.3807,3.3807,3.3807,3.3807,3.3807,3.3807,3.3807,3.3807,3.3807,3.3807,3.3807,3.3293,0.0,0.0,0.0,0.0,0.0,0.0,0.0,0.0,0.0,0.0,3.051,0.0,0.0,0.0,0.0,3.0877,3.0311,3.2594,0.0,0.0,0.0,0.0,3.575,0.0,3.6308,0.0,3.5846,3.6096,3.6673,3.6038,3.6,3.6404,3.5788,3.5596,3.5731,3.5577,3.5596,3.5731,3.5577,3.55,3.55,3.55,3.55,3.55,3.5929,3.6105,0.0,0.0,0.0,0.0,3.6395,3.6413,3.6684,3.7401,3.6119,3.5096,3.5023,3.3628,3.2381,3.1568,3.0779,2.9971,2.917,2.9115,2.9078,2.9005,2.9005,2.9005,2.9005,2.9005,2.8982,0.0,0.0,2.8376,2.8355,2.8006,2.7855,0.0,0.0,0.0,0.0,2.866,2.9298,2.9418,2.9298,2.9531,2.981,2.8361,2.7797,2.7885,2.8661,2.8977,2.9316,3.1146,3.1533,3.1243,3.1345,3.2199,3.3121,3.3121,3.3419,3.3734,3.3734,3.3762,3.3807,3.3807,3.3807,3.3807,3.3807,3.3807,3.3807,3.3807,3.3807,3.3807,3.3807,3.3733,3.3697,0.0,0.0,0.0,0.0,0.0,3.3329,3.2542,0.0,0.0,0.0,3.1648,0.0,0.0,3.0438,3.0682,3.1153,3.2357,0.0,3.3665,0.0,3.5923,3.6577,3.5942,0.0,3.7757,3.6969,3.6635,3.6692,3.6615,3.6231,3.5615,3.5538,3.5904,3.6519,3.5808,3.5923,3.6519,3.5788,3.55,3.55,3.55,3.55,3.55,0.0,0.0,0.0,0.0,0.0,0.0,0.0,3.5862,3.5628,3.5973,3.5426,3.5004,3.5004,3.3555,3.2472,3.2155,3.0944,3.0063,2.9739,2.9262,2.9005,2.9005,2.9005,2.9005,2.9005,2.9005,2.9005,0.0,0.0,0.0,2.8749,2.8386,0.0,0.0,0.0,2.8073,2.8413,2.9013,2.9525,2.9964,2.998,3.0372,3.0796,2.973,2.9337,2.942,2.9973,3.0489,3.1045,3.2051,3.214,3.1933,3.2622,3.3178,3.3564,3.3564,3.3662,3.3807,3.3807,3.3807,3.3807,3.3807,3.3807,3.3807,3.3807,3.3807,3.3807,3.3807,3.3807,3.3855,3.4006,3.4043,3.4105,0.0,0.0,0.0,0.0,0.0,0.0,3.3647,0.0,3.3353,0.0,0.0,3.2275,3.1929,0.0,3.072,3.1507,3.2391,0.0,3.4014,0.0,3.5885,3.6692,3.6385,3.6808,3.8007,3.7642,3.7757,3.8238,3.7719,3.7026,3.6212,3.6212,3.6135,3.6038,3.6712,3.6596,3.6,3.6154,3.6212,3.6212,3.6212,3.6538,3.7007,3.48,0.0,3.4908,0.0,3.5573,3.5206,3.5826,3.5188,3.4656,3.4656,3.4656,3.4656,3.4656,3.3426,3.2601,3.2601,3.1347,3.0448,3.0228,2.9666,2.9244,2.9005,2.9005,0.0,2.9005,2.9005,2.9005,2.9005,2.9005,0.0,0.0,0.0,0.0,0.0,2.894,2.8975,2.9637,2.9622,3.0053,3.0751,3.0799,3.1178,3.1679,3.0905,3.0614,3.0679,3.1206,3.1756,3.232,3.2792,3.2798,3.2738,3.3556,3.3807,3.3807,3.3807,3.3807,3.3807,3.3807,3.3807,3.3807,3.3807,3.3807,3.3807,3.3807,3.3807,3.3807,3.3807,3.385,3.3974,3.4171,3.4288,3.4423,0.0,0.0,0.0,0.0,0.0,0.0,0.0,3.4359,0.0,3.3333,3.3045,3.2891,0.0,0.0,0.0,0.0,0.0,0.0,0.0,0.0,0.0,0.0,0.0,3.7526,3.8373,3.8373,3.87,3.9265,3.8392,3.7661,3.7084,3.7084,3.6911,3.6699,3.7623,3.7296,3.6288,3.6865,3.6923,3.6731,3.6981,3.7469,3.8015,3.6083,3.6266,3.6266,3.6303,3.5573,3.5004,3.5023,3.4325,3.3807,3.3807,3.3807,3.3807,3.3807,3.3091,3.2601,3.2601,3.1861,3.1048,3.0246,3.0191,2.9831,0.0,0.0,2.9005,2.9005,2.9005,2.9005,2.9005,0.0,0.0,2.9023,0.0,0.0,3.1347,3.0528,3.0445,3.0866,3.081,3.1275,3.2068,3.2011,3.2224,3.2496,3.1684,3.1384,3.1494,3.2289,3.2601,3.2711,3.3532,3.3788,3.3788,3.3807,3.3807,3.3807,3.3807,3.3807,3.3807,3.3807,3.3807,3.3807,3.3807,3.3807,3.3807,3.3807,3.3807,3.3807,3.3807,3.4006,3.4188,3.42,3.4456,3.4713,3.4694,0.0,0.0,0.0,0.0,0.0,3.5481,0.0,0.0,3.4186,3.341,0.0,0.0,0.0,0.0,0.0,0.0,0.0,3.5462,3.6269,0.0,3.6692,3.7546,3.8411,3.9284,3.9284,3.9284,3.9265,3.8392,3.7988,3.7988,3.7988,3.8469,3.9188,3.8354,3.7988,3.7969,3.7988,3.7469,3.6788,3.768,3.7988,3.8017,3.4536,3.4596,3.4596,3.4596,3.4376,3.4192,3.4192,3.3972,3.3807,3.3807,3.3807,3.3807,3.3807,3.3568,3.3421,0.0,3.2173,3.1286,0.0,2.9989,2.9262,2.9005,2.9537,2.9555,2.9005,2.9537,2.9537,2.9005,0.0,0.0,0.0,3.0081,3.0925,3.2192,3.1384,3.1407,3.2072,3.2027,3.2187,3.2492,3.3008,3.3296,3.3385,3.3128,3.3036,3.3073,3.333,3.3421,3.3458,3.3715,3.3807,3.3807,3.3807,3.3807,3.3807,3.3807,3.3807,3.3807,3.3807,3.3807,3.3807,3.3807,3.3807,3.3807,3.3807,3.3935,3.408,3.408,3.4764,3.5415,3.5599,3.6198,3.6747,3.6914,0.0,0.0,0.0,0.0,0.0,0.0,0.0,0.0,0.0,3.4846,0.0,0.0,0.0,0.0,0.0,0.0,0.0,0.0,3.6577,0.0,3.845,3.8738,3.9304,4.0112,4.0112,4.0112,4.0092,3.9265,3.8892,3.8892,3.8892,3.87,3.8469,3.9361,3.9027,3.8065,3.8642,3.8719,3.851,3.8833,3.9335,3.9856,3.3762,3.3807,3.3807,3.3807,3.3807,3.3807,3.3807,3.3807,3.3807,3.3807,3.3807,3.3807,3.3807,3.3807,0.0,3.3807,3.2596,3.1715,3.1415,3.0173,2.9317,2.9005,2.9482,2.95,2.9005,0.0,0.0,2.9005,2.9299,2.9849,3.065,3.0962,3.1806,3.3023,3.221,3.2302,3.3036,3.2729,3.2766,3.3091,3.3605,3.3807,3.3807,3.3807,3.3807,3.3807,3.3807,3.3807,3.3807,3.3807,3.3807,3.3807,3.3807,3.3807,3.3807,3.3807,3.3807,3.3807,3.3807,3.3807,3.3807,3.3807,3.3807,3.3829,3.3941,3.4093,3.4253,3.4368,3.5277,3.6103,3.6269,3.7099,3.7811,3.7966,0.0,3.6692,3.6692,0.0,0.0,0.0,0.0,0.0,0.0,3.55,0.0,0.0,0.0,0.0,0.0,0.0,0.0,3.6673,3.7334,0.0,3.9284,3.9611,3.9996,4.0496,4.0496,4.0496,4.0477,3.9977,3.9746,3.9746,3.9746,3.9438,3.9008,4.0073,3.9714,3.8601,3.9488,3.9663,3.9443,3.9809,4.0262,4.0742,3.3721,3.3807,0.0,0.0,3.3807,0.0,3.3807,3.3807,3.3807,3.3807,3.3807,3.3807,3.3807,3.3807,3.3807,3.3807,0.0,0.0,0.0,3.0595,2.9776,2.9023,2.906,0.0,2.9005,2.906,2.906,2.9005,2.9812,3.0613,3.1415,3.2228,3.3036,3.377,3.3023,3.3096,3.3752,3.2999,3.3128,3.3807,3.3807,3.3807,3.3807,3.3807,3.3807,3.3807,3.3807,3.3807,3.3807,3.3807,3.3807,3.3807,3.3807,3.3807,3.3807,3.3807,3.3807,3.3807,3.3807,3.3807,3.3807,3.3807,3.3802,3.3902,3.4171,3.4284,3.4443,3.4749,3.5713,3.6512,3.6512,3.7424,3.8161,3.8161,3.7411,3.6788,3.6788,0.0,0.0,0.0,0.0,0.0,0.0,3.5615,3.5577,0.0,0.0,0.0,0.0,0.0,0.0,3.6788,3.8411,3.9323,3.9381,4.0131,4.0496,4.0496,4.0496,4.0496,4.0496,4.0496,4.0496,4.0496,4.0496,4.0496,4.0496,4.0512,4.01,3.9572,4.0386,4.0296,3.9774,4.0536,4.0809,4.0824,0.0,0.0,3.3807,3.3807,3.3807,3.3807,3.3807,3.3807,3.3807,3.3807,3.3807,3.3807,3.3807,3.3807,3.3807,3.3807,3.2504,3.1599,3.1415,3.0081,2.9207,2.9005,2.9592,2.9629,2.9005,2.9592,2.961,2.9005,2.9812,3.0613,3.1415,3.2228,3.3036,3.3788,3.3605,3.3623,3.3788,3.3605,3.3623,3.3807,3.3807,3.3807,3.3807,3.3807,3.3807,3.3807,3.3807,3.3807,3.3807,3.3807,3.3807,3.3807,3.3807,3.3807,3.3807,3.3807,3.3807,3.3807,3.3807,3.3807,3.3807,3.3807,3.3948,3.4183,3.4508,3.5218,3.5837,3.5893,3.7343,3.86,3.86,3.9312,3.9919,3.9919,3.8661,3.77,3.77,0.0,0.0,0.0,3.7007,3.7411,3.7411,3.6808,3.6423,0.0,0.0,0.0,0.0,0.0,3.8373,3.7719,3.8738,3.9592,4.0208,4.04,4.0496,4.0496,4.0496,4.0496,4.0496,4.0496,4.0496,4.0496,4.0496,4.0496,4.0504,4.061,4.0551,4.0424,4.0684,4.068,4.0556,4.0839,4.0955,4.0964,3.3807,3.3807,3.3807,3.3807,3.3807,3.3807,3.3807,3.3807,3.3807,3.3807,3.3807,3.3807,3.3807,3.3807,3.3807,3.3807,3.232,3.1397,3.1397,2.9886,2.9005,2.9005,2.9427,2.9445,2.9005,2.9427,2.9445,2.9005,3.0173,3.0962,3.1433,3.2596,3.3385,3.3807,3.3807,3.3807,3.3807,3.3807,3.3807,3.3807,3.3807,3.3807,3.3807,3.3807,3.3807,3.3807,3.3807,3.3807,3.3807,3.3807,3.3807,3.3807,3.3807,3.3807,3.3807,3.3807,3.3807,3.3807,3.3807,3.3889,3.4024,3.4184,3.4318,3.4594,3.5277,3.5883,3.6445,3.6966,3.8266,3.9304,3.9304,3.9958,4.0381,4.0015,3.8854,3.7853,3.7469,3.7,0.0,3.6692,3.7469,3.8007,3.8007,3.7565,3.7296,3.7296,0.0,0.0,3.7296,3.8565,3.9092,3.8604,3.9419,4.0054,4.0496,4.0496,4.0523,4.0582,4.0582,4.061,4.0647,4.0647,4.0647,4.0647,4.0647,4.0647,4.0633,4.0712,4.0776,4.0848,4.0883,4.0922,4.0992,4.1056,4.1082,4.1103,3.3807,3.3807,3.3807,3.3807,3.3807,3.3807,3.3807,3.3807,3.3807,3.3807,3.3807,3.3807,3.3807,3.3807,3.3807,3.3807,3.243,3.1525,3.1415,2.9886,2.9005,2.9005,2.9005,2.9005,2.9005,2.9005,2.906,2.9189,3.0668,3.147,3.1604,3.3091,3.3807,3.3807,3.3807,3.3807,3.3807,3.3807,3.3807,3.3807,3.3807,3.3807,3.3807,3.3807,3.3807,3.3807,3.3807,3.3807,3.382,3.3855,3.385,3.3881,3.3915,3.3947,3.3947,3.3947,3.3947,3.3915,3.3863,3.4056,3.4357,3.4684,3.4849,3.5192,3.6143,3.6557,3.7037,3.7997,3.8873,3.9477,3.9477,4.0035,4.0285,3.9592,3.8642,3.7796,3.718,0.0,3.6942,3.7084,3.7853,3.8373,3.8373,3.8277,3.82,3.82,3.82,0.0,0.0,3.9037,3.9521,3.9521,4.0146,4.0512,4.0542,4.0533,4.0604,4.0713,4.0713,4.0738,4.0797,4.0797,4.0797,4.0797,4.0797,4.0797,4.0801,4.0816,4.0905,4.0996,4.1023,4.1103,4.1191,4.1191,4.1191,4.1191,3.3807,3.3807,3.3807,3.3807,3.3807,3.3807,3.3807,3.3807,3.3807,3.3807,3.3807,3.3807,3.3807,3.3807,3.3807,3.3807,3.2963,3.2137,3.1452,2.9886,2.9005,2.9005,2.9005,2.9005,2.9005,2.9005,2.9335,3.0008,3.0944,3.1751,3.2417,3.3366,3.3807,3.3807,3.3807,3.3807,3.3807,3.3807,3.3807,3.3807,3.3807,3.3807,3.3807,3.3807,3.3807,3.3807,3.3807,3.3807,3.3829,3.4068,3.4147,3.4195,3.4464,3.4569,3.4569,3.4569,3.4569,3.4497,3.4218,3.4386,3.4694,3.4972,3.5548,3.6152,3.6554,3.7771,3.8881,3.9065,3.9746,4.0304,4.0304,4.0419,4.0458,4.0323,3.9008,3.82,0.0,0.0,3.8065,3.8815,3.9631,4.0112,4.0112,3.9496,3.9111,3.9111,3.9111,3.9111,3.9111,3.9992,4.0487,4.0487,4.0482,4.0552,4.0661,4.0732,4.0755,4.0773,4.0773,4.0781,4.0797,4.0797,4.0797,4.0797,4.0797,4.0797,4.0805,4.092,4.0988,4.1019,4.1127,4.1171,4.1191,4.1191,4.1191,4.1191,3.3807,3.3807,3.3807,3.3807,3.3807,3.3807,3.3807,3.3807,3.3807,3.3807,3.3807,3.3807,3.3807,3.3807,3.3807,3.3807,3.3073,3.2436,3.2063,3.054,2.9445,2.9023,2.9005,2.9005,2.9005,2.9861,3.0265,3.021,3.1439,3.2247,3.2619,3.3421,3.3807,3.3807,3.3807,3.3807,3.3807,3.3807,3.3876,3.4006,3.4006,3.4117,3.4272,3.4272,3.4272,3.4272,3.4272,3.4272,3.4295,3.4431,3.4475,3.4508,3.4653,3.4694,3.4694,3.4694,3.4694,3.4694,3.4695,3.5097,3.5636,3.5897,3.6584,3.7383,3.7966,3.8719,3.9419,3.9861,4.0246,4.0496,4.0496,4.0496,4.0362,3.9919,3.9207,0.0,0.0,3.9027,3.9342,3.9304,4.0412,4.1008,4.0554,4.0169,3.9958,3.9958,4.0014,4.005,4.005,4.051,4.0757,4.0757,4.0696,4.0696,4.0757,4.0773,4.0847,4.0911,4.0911,4.0952,4.1021,4.1021,4.1021,4.1021,4.1021,4.1021,4.1023,4.108,4.1104,4.1106,4.1171,4.1191,4.1191,4.1191,4.1191,4.1191,3.3807,3.3807,3.3807,3.3807,3.3807,3.3807,3.3807,3.3807,3.3807,3.3807,3.3807,3.3807,3.3807,3.3807,3.3807,3.3807,3.3238,3.2803,3.2601,3.1445,3.0411,2.9592,2.9555,2.9555,2.9555,3.076,3.1182,3.076,3.1977,3.2693,3.2894,3.3513,3.3807,3.3807,3.3807,3.3807,3.3802,3.3881,3.4006,3.42,3.4269,3.4456,3.4694,3.4694,3.4694,3.4694,3.4694,3.4694,3.4704,3.4764,3.4784,3.4793,3.487,3.4889,3.4889,3.4889,3.5031,3.5163,3.5187,3.5772,3.6433,3.6656,3.7507,3.8469,3.915,3.9438,3.9746,4.0362,4.0496,4.0496,4.0496,4.0496,4.0304,3.9688,0.0,0.0,0.0,3.9815,4.0342,3.9931,4.1027,4.147,4.0573,4.0534,4.0545,4.0545,4.0667,4.071,4.071,4.0796,4.0864,4.0883,4.0864,4.0854,4.0854,4.0874,4.0933,4.1051,4.1051,4.1103,4.1191,4.1191,4.1191,4.1191,4.1191,4.1191,4.1191,4.1191,4.1191,4.1191,4.1191,4.1191,4.1191,4.1191,4.1328,4.1484,3.3807,3.3807,3.3807,3.3807,3.3807,3.3807,3.3807,3.3807,3.3807,3.3807,3.3807,3.3807,3.3807,3.3807,3.3807,3.3807,3.3752,3.3403,3.2656,3.2491,3.2051,3.1256,3.1231,3.1231,3.1231,3.1342,3.1733,3.2417,3.2546,3.2968,3.3715,3.377,3.3807,3.3807,3.3807,3.3807,3.3815,3.4068,3.4176,3.4242,3.454,3.4674,3.4694,3.4694,3.4694,3.4694,3.4694,3.4694,3.4734,3.4981,3.5079,3.5113,3.5361,3.5439,3.5439,3.5439,3.5957,3.6387,3.5671,3.6056,3.6678,3.6692,3.7969,3.9227,3.9284,3.9881,4.0439,4.0496,4.0496,4.0496,4.0496,4.0496,4.0477,4.0419,0.0,0.0,4.1316,4.0931,4.0785,4.1527,4.1712,4.147,4.0573,4.061,4.068,4.068,4.0757,4.0785,4.0785,4.0914,4.1049,4.1171,4.1052,4.099,4.099,4.1105,4.1171,4.1191,4.1191,4.1191,4.1191,4.1191,4.1191,4.1191,4.1191,4.1191,4.1191,4.1191,4.1191,4.1191,4.1191,4.1191,4.1191,4.1191,4.168,4.2305,3.3697,3.3807,3.3807,3.3807,3.3807,3.3807,3.3807,3.3807,3.3807,3.3807,3.3807,3.3807,3.3807,3.3807,3.3807,3.3807,3.3807,3.3678,3.3366,3.3348,3.2761,3.147,3.188,3.1916,3.1415,3.2375,3.2797,3.2601,3.3096,3.3495,3.3807,3.3807,3.3889,3.4043,3.3863,3.4005,3.4341,3.4242,3.4416,3.4774,3.4889,3.5053,3.5198,3.5198,3.5198,3.5198,3.5198,3.5198,3.5215,3.5312,3.5354,3.5369,3.5479,3.55,3.5596,3.6096,3.6846,3.745,3.7142,3.7661,3.8315,3.8315,3.9188,4.0035,4.0035,4.07,4.1316,4.1316,4.1739,4.2104,4.2104,4.2104,4.2104,4.2104,0.0,4.1873,4.2527,4.2739,4.2585,4.1885,4.2277,4.2075,4.0752,4.0661,4.0718,4.0767,4.1363,4.1488,4.0939,4.1052,4.1149,4.1191,4.115,4.1127,4.1127,4.1171,4.1191,4.1191,4.1191,4.1191,4.1191,4.1191,4.1191,4.1191,4.1191,4.1191,4.1191,4.1191,4.1191,4.1191,4.1191,4.1191,4.1269,4.1758,4.2148,4.248,3.3697,3.3807,3.3807,3.3807,3.3807,3.3807,3.3807,3.3807,3.3807,3.3807,3.3807,3.3807,3.3807,3.3807,3.3807,3.3807,3.3807,3.3807,3.3807,3.3807,3.3311,3.2192,3.2687,3.2724,3.2155,3.3238,3.3532,3.2968,3.36,3.3928,3.3941,3.4024,3.4177,3.4345,3.4153,3.4307,3.4684,3.4542,3.4716,3.5105,3.5198,3.5346,3.55,3.55,3.55,3.55,3.55,3.55,3.55,3.55,3.55,3.55,3.55,3.5673,3.6038,3.6865,3.7738,3.845,3.8719,3.9227,3.9631,3.9361,3.99,4.0573,4.0854,4.1373,4.1885,4.2162,4.2681,4.3104,4.3104,4.3104,4.3104,4.3104,4.3104,4.3181,4.3431,4.3951,4.388,4.2776,4.3189,4.3011,4.1676,4.1592,4.1632,4.1682,4.234,4.2481,4.1876,4.1931,4.1992,4.1992,4.1719,4.1719,4.1973,4.1719,4.1445,4.1211,4.1738,4.1836,4.1582,4.1582,4.1582,4.1562,4.1308,4.1191,4.1191,4.1191,4.1348,4.1582,4.1582,4.1738,4.2051,4.2598,4.2812,4.293,3.3807,3.3807,3.3807,3.3807,3.3807,3.3807,3.3807,3.3807,3.3807,3.3807,3.3807,3.3807,3.3807,3.3807,3.3807,3.3807,3.3807,3.3807,3.3807,3.3807,3.3807,3.3807,3.3807,3.3807,3.3807,3.3788,3.3788,3.3788,3.408,3.42,3.42,3.454,3.4694,3.4694,3.4694,3.4694,3.4714,3.4981,3.5105,3.5122,3.5383,3.55,3.55,3.55,3.55,3.55,3.55,3.55,3.55,3.55,3.55,3.5519,3.5519,3.6077,3.6885,3.7757,3.8623,3.9477,4.0285,4.0496,4.0323,3.9515,3.9919,4.0746,4.1604,4.1808,4.2058,4.2931,4.3104,4.3124,4.3124,4.3124,4.3124,4.3124,4.3124,4.3393,4.4201,4.4297,4.4368,4.4486,4.4505,4.4209,4.3475,4.3521,4.3595,4.3595,4.3667,4.3691,4.3711,4.3691,4.3691,4.3691,4.2851,4.2832,4.3691,4.2832,4.1992,4.123,4.291,4.3242,4.2402,4.2402,4.2402,4.2363,4.1562,4.1211,4.1211,4.1211,4.1699,4.2402,4.2402,4.2949,4.3691,4.3711,4.3711,4.3828,3.3697,3.3807,3.3807,3.3807,3.3807,3.3807,3.3807,3.3807,3.3807,3.3807,3.3807,3.3807,3.3807,3.3807,3.3807,3.3807,3.3807,3.3807,3.3807,3.3807,3.3807,3.3807,3.3807,3.3807,3.3807,3.3986,3.4093,3.4093,3.4409,3.4551,3.4551,3.4653,3.4793,3.4972,3.4774,3.4917,3.5246,3.5157,3.5207,3.5383,3.5479,3.55,3.55,3.55,3.55,3.55,3.55,3.55,3.55,3.55,3.5885,3.6442,3.7065,3.7834,3.8584,3.8834,3.9496,4.0189,4.0439,4.095,4.1219,4.0362,4.0777,4.1489,4.1731,4.272,4.3624,4.3893,4.4432,4.4863,4.4863,4.4863,4.4863,4.4863,4.4863,4.494,4.519,4.5283,4.5142,4.4576,4.4586,4.4346,4.3602,4.3587,4.3629,4.3667,4.3691,4.3965,4.457,4.4023,4.3691,4.3691,4.3457,4.3437,4.3691,4.2832,4.2598,4.2969,4.3457,4.3555,4.3301,4.3301,4.3301,4.3301,4.3066,4.2949,4.2949,4.2949,4.3105,4.3301,4.3301,4.3476,4.3769,4.4394,4.4609,4.4746,3.3697,3.3807,3.3807,3.3807,3.3807,3.3807,3.3807,3.3807,3.3807,3.3807,3.3807,3.3807,3.3807,3.3807,3.3807,3.3807,3.3807,3.3807,3.3807,3.3807,3.3855,3.3948,3.3961,3.3961,3.3961,3.4111,3.4258,3.4401,3.4724,3.487,3.487,3.4963,3.5105,3.5239,3.5088,3.5198,3.5493,3.5339,3.5354,3.55,3.55,3.55,3.55,3.55,3.55,3.55,3.55,3.55,3.55,3.55,3.6038,3.6846,3.7738,3.8604,3.9304,3.9304,3.9881,4.0496,4.0496,4.0873,4.1239,4.1066,4.1662,4.2412,4.272,4.3566,4.4393,4.4739,4.5229,4.5594,4.5594,4.5594,4.5594,4.5594,4.5594,4.562,4.5673,4.5747,4.564,4.5191,4.5192,4.5103,4.471,4.4675,4.4681,4.4726,4.4726,4.4961,4.5488,4.5019,4.4726,4.4726,4.4394,4.4375,4.4726,4.3867,4.3516,4.3711,4.4394,4.4551,4.4219,4.4219,4.4219,4.4199,4.3848,4.3691,4.3691,4.3691,4.3906,4.4219,4.4219,4.4414,4.4785,4.5312,4.5293,4.5117,3.3807,3.3807,3.3807,3.3807,3.3807,3.3807,3.3807,3.3807,3.3807,3.3807,3.3807,3.3807,3.3807,3.3807,3.3807,3.3807,3.3807,3.3807,3.3807,3.3807,3.3915,3.414,3.4195,3.4211,3.4235,3.4258,3.4434,3.4753,3.4999,3.513,3.5138,3.5383,3.55,3.55,3.55,3.55,3.55,3.55,3.55,3.55,3.55,3.55,3.55,3.55,3.55,3.55,3.55,3.55,3.5519,3.5673,3.625,3.7084,3.795,3.8777,3.9419,3.9419,3.9938,4.0516,4.0593,4.0669,4.0939,4.1816,4.2681,4.3489,4.4143,4.4355,4.4643,4.5441,4.5594,4.5594,4.5594,4.5612,4.562,4.562,4.5618,4.5661,4.5783,4.5815,4.589,4.6075,4.6113,4.6171,4.6289,4.6308,4.6308,4.6308,4.6308,4.6308,4.6308,4.6308,4.6308,4.6308,4.5527,4.5508,4.6289,4.5508,4.4726,4.3945,4.5547,4.5879,4.5117,4.5117,4.5117,4.5078,4.4277,4.3926,4.3926,4.3926,4.4394,4.5117,4.5117,4.5605,4.6308,4.6308,4.5801,4.5234,3.3807,3.3807,3.3807,3.3807,3.3807,3.3807,3.3807,3.3807,3.3807,3.3807,3.3807,3.3807,3.3807,3.3807,3.3807,3.3807,3.3807,3.3807,3.3807,3.3807,3.3829,3.3876,3.4105,3.4334,3.4601,3.4813,3.4935,3.5008,3.5281,3.5398,3.5405,3.546,3.55,3.55,3.55,3.55,3.55,3.55,3.55,3.55,3.55,3.55,3.55,3.55,3.55,3.55,3.55,3.55,3.5692,3.7026,3.8027,3.8873,3.9708,4.0092,4.0246,4.0246,4.0362,4.065,4.1335,4.2027,4.272,4.3547,4.4412,4.4921,4.4412,4.4816,4.5364,4.5556,4.5594,4.5594,4.5594,4.5696,4.5761,4.5761,4.5795,4.5846,4.5877,4.5979,4.6056,4.6087,4.6199,4.6268,4.6308,4.6308,4.6308,4.6308,4.6308,4.6308,4.6308,4.6308,4.6308,4.6308,4.6113,4.6113,4.6308,4.6113,4.5918,4.5742,4.6113,4.6191,4.6016,4.6016,4.6016,4.6016,4.582,4.5742,4.5742,4.5742,4.5859,4.6016,4.6016,4.6133,4.6308,4.6308,4.6172,4.6055,3.3807,3.3807,3.3807,3.3807,3.3807,3.3807,3.3807,3.3807,3.3807,3.3807,3.3807,3.3807,3.3807,3.3807,3.3807,3.3807,3.3807,3.3807,3.3807,3.3807,3.3915,3.422,3.4357,3.4645,3.5079,3.5215,3.5289,3.5289,3.5432,3.55,3.55,3.55,3.55,3.55,3.55,3.55,3.5538,3.5904,3.6077,3.6115,3.6519,3.6442,3.6077,3.6077,3.5827,3.55,3.55,3.575,3.6269,3.7565,3.8584,3.9438,4.0246,4.0496,4.0496,4.0496,4.0496,4.0689,4.1566,4.2143,4.2777,4.3989,4.4643,4.4979,4.494,4.5267,4.5594,4.5594,4.566,4.5692,4.5692,4.579,4.5859,4.5859,4.5877,4.592,4.5988,4.6067,4.6119,4.6198,4.6268,4.6308,4.6308,4.6308,4.6308,4.6308,4.6308,4.6308,4.6308,4.6308,4.6308,4.6308,4.6308,4.6308,4.6308,4.6308,4.6308,4.6308,4.6308,4.6308,4.6308,4.6308,4.6308,4.6308,4.6308,4.6308,4.6308,4.6308,4.6308,4.6308,4.6308,4.6308,4.6308,4.6308,4.6308,4.6308,3.3807,3.3807,3.3807,3.3807,3.3807,3.3807,3.3807,3.3807,3.3807,3.3807,3.3807,3.3807,3.3807,3.3807,3.3807,3.3807,3.3807,3.3807,3.3807,3.3807,3.4037,3.4582,3.4663,3.4935,3.5424,3.5486,3.55,3.55,3.55,3.55,3.55,3.55,3.55,3.55,3.55,3.55,3.5538,3.6212,3.6577,3.675,3.7488,3.743,3.6904,3.675,3.6385,3.5904,3.575,3.6327,3.7257,3.7988,3.8796,3.9631,4.0285,4.0496,4.0496,4.0496,4.0612,4.0912,4.1797,4.2115,4.2604,4.4143,4.4542,4.4741,4.5481,4.5635,4.5635,4.5635,4.574,4.5821,4.5821,4.5886,4.5928,4.5928,4.5944,4.6001,4.6117,4.6122,4.6174,4.6289,4.6308,4.6308,4.6308,4.6308,4.6308,4.6308,4.6308,4.6308,4.6308,4.6308,4.6308,4.6308,4.6308,4.6308,4.6308,4.6308,4.6308,4.6308,4.6308,4.6308,4.6308,4.6308,4.6308,4.6308,4.6308,4.6308,4.6308,4.6308,4.6308,4.6308,4.6308,4.6308,4.6308,4.6308,4.6308,4.6308,3.3807,3.3807,3.3807,3.3807,3.3807,3.3807,3.3807,3.3807,3.3807,3.3807,3.3807,3.3807,3.3807,3.3807,3.3807,3.3807,3.3807,3.3807,3.3807,3.3807,3.3954,3.4246,3.4551,3.4832,3.5157,3.5376,3.55,3.55,3.55,3.55,3.55,3.55,3.55,3.55,3.55,3.55,3.5519,3.5615,3.6058,3.6712,3.6827,3.7257,3.7738,3.6981,3.7103,3.7565,3.6808,3.7584,3.8977,3.9092,3.9669,4.0362,4.0477,4.0496,4.0496,4.0496,4.1027,4.1816,4.2701,4.3431,4.4201,4.519,4.5503,4.5627,4.5743,4.5763,4.5763,4.5763,4.5836,4.5896,4.5896,4.5985,4.6077,4.6077,4.6173,4.6248,4.6268,4.6269,4.6289,4.6308,4.6308,4.6308,4.6308,4.6308,4.6308,4.6308,4.6308,4.6308,4.6308,4.6308,4.6308,4.6308,4.6308,4.6308,4.6308,4.6308,4.6308,4.6308,4.6308,4.6308,4.6308,4.6308,4.6308,4.6308,4.6308,4.6308,4.6308,4.6308,4.6308,4.6308,4.6308,4.6308,4.6308,4.6308,4.6308,4.6308,3.3807,3.3807,3.3807,3.3807,3.3807,3.3807,3.3807,3.3807,3.3807,3.3807,3.3807,3.3807,3.3807,3.3807,3.3807,3.3807,3.3807,3.3807,3.3807,3.3807,3.3999,3.4464,3.4632,3.4898,3.5312,3.5439,3.55,3.55,3.55,3.55,3.55,3.55,3.55,3.55,3.55,3.55,3.5538,3.5981,3.6654,3.7469,3.7969,3.8373,3.8681,3.8296,3.8084,3.795,3.7565,3.8238,3.9304,3.9304,3.9823,4.0496,4.0496,4.0835,4.1239,4.1239,4.1835,4.272,4.3547,4.4028,4.4523,4.5472,4.5761,4.5803,4.5853,4.591,4.5942,4.5871,4.5935,4.6005,4.6005,4.6117,4.6202,4.6202,4.6268,4.6308,4.6308,4.6308,4.6308,4.6308,4.6308,4.6308,4.6308,4.6308,4.6308,4.6308,4.6308,4.6308,4.6308,4.6308,4.6308,4.6308,4.6308,4.6308,4.6308,4.6308,4.6308,4.6308,4.6308,4.6308,4.6308,4.6308,4.6308,4.6308,4.6308,4.6308,4.6308,4.6308,4.6308,4.6308,4.6308,4.6308,4.6308,4.6308,4.6308,4.6308]}]]